[[{"header":{"parameterUnit":"m.s-1","parameterCategory":1,"la1":30.6,"la2":29.2853,"lo1":-89.7004,"lo2":-87.6739,"dy":0.0162,"dx":0.0183,"nx":112,"ny":82,"refTime":"2024-07-26T12:00:00:Z","depth":0,"parameterNumber":2,"parameterNumberName":"U-component_of_WINDS"},"data":[0.0,0.0,0.0,0.0,0.0,0.0,0.0,0.0,0.0,0.0,0.0,0.0,0.0,0.0,0.0,0.0,0.0,0.0,0.0,0.0,0.0,0.0,0.0,0.0,0.0,0.0,0.0,0.0,0.0,0.0,0.0,0.0,0.0,0.0,0.0,0.0,0.0,0.0,0.0,0.0,0.0,0.0,0.0,0.0,0.0,0.0,0.0,0.0,0.0,0.0,0.0,0.0,0.0,0.0,0.0,0.0,0.0,0.0,0.0,0.0,0.0,0.0,0.0,0.0,0.0,0.0,0.0,0.0,0.0,0.0,0.0,0.0,0.0,0.0,0.0,0.0,0.0,0.0,0.0,0.0,0.0,0.0,0.0,0.0,0.0,0.0,0.0,0.0,0.0,0.0,0.631,0.6464,0.7288,0.7549,0.6943,0.6397,0.5443,0.3917,0.0,0.0,0.0,0.0,0.0,0.0,0.0,0.0,0.0,0.0,0.0,0.0,0.0,0.0,0.0,0.0,0.0,0.0,0.0,0.0,0.0,0.0,0.0,0.0,0.0,0.0,0.0,0.0,0.0,0.0,0.0,0.0,0.0,0.0,0.0,0.0,0.0,0.0,0.0,0.0,0.0,0.0,0.0,0.0,0.0,0.0,0.0,0.0,0.0,0.0,0.0,0.0,0.0,0.0,0.0,0.0,0.0,0.0,0.0,0.0,0.0,0.0,0.0,0.0,0.0,0.0,0.0,0.0,0.0,0.0,0.0,0.0,0.0,0.0,0.0,0.0,0.0,0.0,0.0,0.0,0.0,0.0,0.0,0.0,0.0,0.0,0.0,0.0,0.0,0.0,0.0,0.0,0.0,0.0,0.0,0.0,0.0,0.0,0.0,0.0,0.0,0.0,0.0,0.0,0.6037,0.7259,0.771,0.7466,0.649,0.5547,0.4482,0.316,0.0,0.0,0.0,0.0,0.0,0.0,0.0,0.0,0.0,0.0,0.0,0.0,0.0,0.0,0.0,0.0,0.0,0.0,0.0,0.0,0.0,0.0,0.0,0.0,0.0,0.0,0.0,0.0,0.0,0.0,0.0,0.0,0.0,0.0,0.0,0.0,0.0,0.0,0.0,0.0,0.0,0.0,0.0,0.0,0.0,0.0,0.0,0.0,0.0,0.0,0.0,0.0,0.0,0.0,0.0,0.0,0.0,0.0,0.0,0.0,0.0,0.0,0.0,0.0,0.0,0.0,0.0,0.0,0.0,0.0,0.0,0.0,0.0,0.0,0.0,0.0,0.0,0.0,0.0,0.0,0.0,0.0,0.0,0.0,0.0,0.0,0.0,0.0,0.0,0.0,0.0,0.0,0.0,0.0,0.0,0.0,0.0,0.0,0.0,0.0,0.0,0.0,0.0,0.6231,0.6839,0.7904,0.7694,0.6885,0.5439,0.4469,0.3349,0.202,0.2154,0.0,0.0,0.0,0.0,0.0,0.0,0.0,0.0,0.0,0.0,0.0,0.0,0.0,0.0,0.0,0.0,0.0,0.0,0.0,0.0,0.0,0.0,0.0,0.0,0.0,0.0,0.0,0.0,0.0,0.0,0.0,0.0,0.0,0.0,0.0,0.0,0.0,0.0,0.0,0.0,0.0,0.0,0.0,0.0,0.0,0.0,0.0,0.0,0.0,0.0,0.0,0.0,0.0,0.0,0.0,0.0,0.0,0.0,0.0,0.0,0.0,0.0,0.0,0.0,0.0,0.0,0.0,0.0,0.0,0.0,0.0,0.0,0.0,0.0,0.0,0.0,0.0,0.0,0.0,0.0,0.0,0.0,0.0,0.0,0.0,0.0,0.0,0.0,0.0,0.0,0.0,0.0,0.0,0.0,0.0,0.0,0.0,0.0,0.0,0.0,0.0,0.0,0.6824,0.7382,0.7748,0.7064,0.5929,0.4191,0.309,0.1959,0.0714,0.058,0.0,0.0,0.0,0.0,0.0,0.0,0.0,0.0,0.0,0.0,0.0,0.0,0.0,0.0,0.0,0.0,0.0,0.0,0.0,0.0,0.0,0.0,0.0,0.0,0.0,0.0,0.0,0.0,0.0,0.0,0.0,0.0,0.0,0.0,0.0,0.0,0.0,0.0,0.0,0.0,0.0,0.0,0.0,0.0,0.0,0.0,0.0,0.0,0.0,0.0,0.0,0.0,0.0,0.0,0.0,0.0,0.0,0.0,0.0,0.0,0.0,0.0,0.0,0.0,0.0,0.0,0.0,0.0,0.0,0.0,0.0,0.0,0.0,0.0,0.0,0.0,0.0,0.0,0.0,0.0,0.0,0.0,0.0,0.0,0.0,0.0,0.0,0.0,0.0,0.0,0.0,0.0,0.0,0.0,0.0,0.0,0.0,0.0,0.0,0.0,0.0,0.0,0.6139,0.6836,0.6068,0.5475,0.4485,0.2878,0.1306,0.0062,-0.0721,-0.0998,0.0,0.0,0.0,0.0,0.0,0.0,0.0,0.0,0.0,0.0,0.0,0.0,0.0,0.0,0.0,0.0,0.0,0.0,0.0,0.0,0.0,0.0,0.0,0.0,0.0,0.0,0.0,0.0,0.0,0.0,0.0,0.0,0.0,0.0,0.0,0.0,0.0,0.0,0.0,0.0,0.0,0.0,0.0,0.0,0.0,0.0,0.0,0.0,0.0,0.0,0.0,0.0,0.0,0.0,0.0,0.0,0.0,0.0,0.0,0.0,0.0,0.0,0.0,0.0,0.0,0.0,0.0,0.0,0.0,0.0,0.0,0.0,0.0,0.0,0.0,0.0,0.0,0.0,0.0,0.0,0.0,0.0,0.0,0.0,0.0,0.0,0.0,0.0,0.0,0.0,0.0,0.0,0.0,0.0,0.0,0.0,0.0,0.0,0.0,0.0,0.0,0.0,0.4796,0.5071,0.0,0.3695,0.2487,0.1111,-0.0257,-0.1331,-0.1971,0.0,0.0,0.0,0.0,0.0,0.0,0.0,0.0,0.0,0.0,0.0,0.0,0.0,0.0,0.0,0.0,0.0,0.0,0.0,0.0,0.0,0.0,0.0,0.0,0.0,0.0,0.0,0.0,0.0,0.0,0.0,0.0,0.0,0.0,0.0,0.0,0.0,0.0,0.0,0.0,0.0,0.0,0.0,0.0,0.0,0.0,0.0,0.0,0.0,0.0,0.0,0.0,0.0,0.0,0.0,0.0,0.0,0.0,0.0,0.0,0.0,0.0,0.0,0.0,0.0,0.0,0.0,0.0,0.0,0.0,0.0,0.0,0.0,0.0,0.0,0.0,0.0,0.0,0.0,0.0,0.0,0.0,0.0,0.0,0.0,0.0,0.0,0.0,0.0,0.0,0.0,0.0,0.0,0.0,0.0,0.0,0.0,0.0,0.0,0.0,0.0,0.0,0.3494,0.3876,0.3812,0.0,0.2252,0.1146,-0.0298,-0.121,-0.1923,-0.2445,0.0,0.0,0.0,0.0,0.0,0.0,0.0,0.0,0.0,0.0,0.0,0.0,0.0,0.0,0.0,0.0,0.0,0.0,0.0,0.0,0.0,0.0,0.0,0.0,0.0,0.0,0.0,0.0,0.0,0.0,0.0,0.0,0.0,0.0,0.0,0.0,0.0,0.0,0.0,0.0,0.0,0.0,0.0,0.0,0.0,0.0,0.0,0.0,0.0,0.0,0.0,0.0,0.0,0.0,0.0,0.0,0.0,0.0,0.0,0.0,0.0,0.0,0.0,0.0,0.0,0.0,0.0,0.0,0.0,0.0,0.0,0.0,0.0,0.0,0.0,0.0,0.0,0.0,0.0,0.0,0.0,0.0,0.0,0.0,0.0,0.0,0.0,0.0,0.0,0.0,0.0,0.0,0.0,0.0,0.0,0.0,0.0,0.0,0.0,0.0,0.0,0.0,0.2887,0.3534,0.3282,0.1486,0.1288,0.0596,-0.1136,-0.1403,-0.1632,0.0,0.0,0.0,0.0,0.0,0.0,0.0,0.0,0.0,0.0,0.0,0.0,0.0,0.0,0.0,0.0,0.0,0.0,0.0,0.0,0.0,0.0,0.0,0.0,0.0,0.0,0.0,0.0,0.0,0.0,0.0,0.0,0.0,0.0,0.0,0.0,0.0,0.0,0.0,0.0,0.0,0.0,0.0,0.0,0.0,0.0,0.0,0.0,0.0,0.0,0.0,0.0,0.0,0.0,0.0,0.0,0.0,0.0,0.0,0.0,0.0,0.0,0.0,0.0,0.0,0.0,0.0,0.0,0.0,0.0,0.0,0.0,0.0,0.0,0.0,0.0,0.0,0.0,0.0,0.0,0.0,0.0,0.0,0.0,0.0,0.0,0.0,0.0,0.0,0.0,0.0,0.0,0.0,0.0,0.0,0.0,0.0,0.0,0.0,0.0,0.0,0.0,0.0,0.2029,0.2332,0.2139,0.1003,0.0566,0.0033,-0.0805,-0.1082,-0.1335,-0.1632,0.0,0.0,0.0,0.0,0.0,0.0,0.0,0.0,0.0,0.0,0.0,0.0,0.0,0.0,0.0,0.0,0.0,0.0,0.0,0.0,0.0,0.0,0.0,0.0,0.0,0.0,0.0,0.0,0.0,0.0,0.0,0.0,0.0,0.0,0.0,0.0,0.0,0.0,0.0,0.0,0.0,0.0,0.0,0.0,0.0,0.0,0.0,0.0,0.0,0.0,0.0,0.0,0.0,0.0,0.0,0.0,0.0,0.0,0.0,0.0,0.0,0.0,0.0,0.0,0.0,0.0,0.0,0.0,0.0,0.0,0.0,0.0,0.0,0.0,0.0,0.0,0.0,0.0,0.0,0.0,0.0,0.0,0.0,0.0,0.0,0.0,0.0,0.0,0.0,0.0,0.0,0.0,0.0,0.0,0.0,0.0,0.0,0.0,0.0,0.0,0.0,0.0,0.1423,0.1592,0.1306,0.0268,0.0234,-0.0067,-0.0873,-0.0771,-0.0775,-0.1056,0.0,0.0,0.0,0.0,0.0,0.0,0.0,0.0,0.0,0.0,0.0,0.0,0.0,0.0,0.0,0.0,0.0,0.0,0.0,0.0,0.0,0.0,0.0,0.0,0.0,0.0,0.0,0.0,0.0,0.0,0.0,0.0,0.0,0.0,0.0,0.0,0.0,0.0,0.0,0.0,0.0,0.0,0.0,0.0,0.0,0.0,0.0,0.0,0.0,0.0,0.0,0.0,0.0,0.0,0.0,0.0,0.0,0.0,0.0,0.0,0.0,0.0,0.0,0.0,0.0,0.0,0.0,0.0,0.0,0.0,0.0,0.0,0.0,0.0,0.0,0.0,0.0,0.0,0.0,0.0,0.0,0.0,0.0,0.0,0.0,0.0,0.0,0.0,0.0,0.0,0.0,0.0,0.0,0.0,0.0,0.0,0.0,0.0,0.0,0.0,0.0,0.0,0.0874,0.1037,0.0606,-0.0639,-0.0034,0.0,-0.1139,-0.0477,-0.009,-0.0283,0.0,0.0,0.0,0.0,0.0,0.0,0.0,0.0,0.0,0.0,0.0,0.0,0.0,0.0,0.0,0.0,0.0,0.0,0.0,0.0,0.0,0.0,0.0,0.0,0.0,0.0,0.0,0.0,0.0,0.0,0.0,0.0,0.0,0.0,0.0,0.0,0.0,0.0,0.0,0.0,0.0,0.0,0.0,0.0,0.0,0.0,0.0,0.0,0.0,0.0,0.0,0.0,0.0,0.0,0.0,0.0,0.0,0.0,0.0,0.0,-0.3761,0.0,0.0,0.0,0.0,0.0,0.0,0.0,0.0,0.0,0.0,0.0,0.0,0.0,0.0,0.0,0.0,0.0,0.0,0.0,0.0,0.0,0.0,0.0,0.0,0.0,0.0,0.0,0.0,0.0,0.0,0.0,0.0,0.0,0.0,0.0,0.0,0.0,0.0,0.0,0.0,0.0,-0.0447,-0.0465,-0.0674,-0.132,-0.1214,-0.1019,-0.0842,-0.0317,0.0122,0.0452,0.0302,0.0,0.0,0.0,0.0,0.0,0.0,0.0,0.0,0.0,0.0,0.0,0.0,0.0,0.0,0.0,0.0,0.0,0.0,0.0,0.0,0.0,0.0,0.0,0.0,0.0,0.0,0.0,0.0,0.0,0.0,0.0,0.0,0.0,0.0,0.0,0.0,0.0,0.0,0.0,0.0,0.0,0.0,0.0,0.0,0.0,0.0,0.0,0.0,0.0,0.0,0.0,0.0,0.0,0.0,0.0,0.0,0.0,0.0,0.0,0.0,-0.4331,0.0,0.0,0.0,0.0,0.0,0.0,0.0,0.0,0.0,0.0,0.0,0.0,0.0,0.0,0.0,0.0,0.0,0.0,0.0,0.0,0.0,0.0,0.0,0.0,0.0,0.0,0.0,0.0,0.0,0.0,0.0,0.0,0.0,0.0,0.0,0.0,0.0,0.0,0.0,0.0,-0.1361,-0.1451,-0.1623,-0.1848,-0.1705,-0.1423,-0.101,-0.0587,-0.0032,0.0648,0.0589,0.0,0.0,0.0,0.0,0.0,0.0,0.0,0.0,0.0,0.0,0.0,0.0,0.0,0.0,0.0,0.0,0.0,0.0,0.0,0.0,0.0,0.0,0.0,0.0,0.0,0.0,0.0,0.0,0.0,0.0,0.0,0.0,0.0,0.0,0.0,0.0,0.0,0.0,0.0,0.0,0.0,0.0,0.0,0.0,0.0,0.0,0.0,0.0,0.0,0.0,0.0,0.0,0.0,-0.37,-0.3761,-0.378,-0.378,-0.4443,-0.5632,-0.5137,-0.5044,-0.5176,-0.466,0.0,0.0,0.0,0.0,0.0,0.0,0.0,0.0,0.0,0.0,0.0,0.0,0.0,0.0,0.0,0.0,0.0,0.0,0.0,0.0,0.0,0.0,0.0,0.0,-0.8675,-0.8737,0.0,0.0,0.0,0.0,0.0,0.0,0.0,0.0,0.0,0.0,0.0,0.0,-0.2483,-0.2556,-0.2658,-0.2563,-0.2159,-0.1782,-0.1467,-0.1019,-0.0365,0.0533,0.0711,0.0688,0.0,0.0,0.0,0.0,0.0,0.0,0.0,0.0,0.0,0.0,0.0,0.0,0.0,0.0,0.0,0.0,0.0,0.0,0.0,0.0,0.0,0.0,0.0,0.0,0.0,0.0,0.0,0.0,0.0,0.0,0.0,0.0,0.1425,0.2041,0.0,0.0,0.0,0.0,0.0,0.0,0.0,0.0,0.0,0.0,0.0,0.0,0.0,-0.2858,-0.3852,-0.377,-0.3947,-0.4317,-0.447,-0.4473,-0.4398,-0.4398,-0.4778,-0.5535,-0.6096,0.0,-0.6493,-0.5809,0.0,0.0,0.0,0.0,0.0,0.0,0.0,0.0,0.0,0.0,0.0,0.0,0.0,0.0,0.0,0.0,0.0,0.0,0.0,0.0,0.0,0.0,-1.0954,-1.1049,-1.1136,-1.1049,0.0,-0.8995,-0.7682,-0.7106,-0.7013,0.0,0.0,0.0,0.0,0.0,0.0,0.0,-0.4672,-0.4612,-0.4461,-0.3967,-0.349,-0.286,-0.2134,-0.1323,-0.0594,0.0066,0.0788,0.1062,0.0683,0.068,0.0,0.0,0.0,0.0,0.0,0.0,0.0,0.0,0.0,0.0,0.0,0.0,0.0,0.0,0.0,0.0,0.0,0.0,0.0,0.0,0.0,0.0,0.0,0.0,0.0,0.0,0.0,0.0,0.0,0.1747,0.1599,0.1766,0.1672,0.1597,0.0,0.0,0.0,0.0,0.0,0.0,0.0,0.0,0.0,-0.4576,-0.4681,-0.4841,-0.5234,-0.5165,-0.5008,-0.4721,-0.4785,-0.4782,-0.4714,-0.4629,-0.4982,-0.5698,-0.5868,-0.6255,-0.6668,-0.6602,-0.5793,-0.4599,0.0,0.0,0.0,0.0,-0.5794,-0.5679,-0.592,-0.5777,0.0,-0.5066,0.0,0.0,0.0,0.0,0.0,0.0,0.0,0.0,0.0,0.0,-1.1391,-1.183,-1.2119,-1.2178,-1.1748,-1.0981,-1.0108,0.0,-0.8978,-0.8604,-0.7888,0.0,0.0,0.0,0.0,-0.721,-0.6586,-0.6133,-0.5664,-0.5201,-0.4685,-0.4085,-0.3391,-0.2591,-0.1815,-0.1076,-0.0033,0.0475,0.0307,0.0569,0.0282,0.0,0.0,0.0,0.0,0.0,0.0,0.0,0.0,0.0,0.0,0.0,0.0,0.0,0.0,0.0,0.0,0.0,0.0,0.0,0.0,0.0,0.0,0.0,0.0,0.0,0.0,0.0,0.0,0.1283,0.1175,0.1205,0.0885,0.0682,0.0,0.0,0.0,0.0,0.0,0.0,-0.4055,-0.4351,-0.5065,-0.6338,-0.662,-0.6665,-0.6592,-0.6646,-0.6227,-0.5276,-0.5276,-0.5135,-0.4914,-0.4802,-0.5151,-0.5893,-0.5971,-0.6271,-0.6747,-0.6744,-0.61,-0.5013,-0.515,-0.4966,-0.4691,-0.565,-0.5914,-0.5853,-0.6437,-0.6416,-0.6081,-0.5964,-0.5741,-0.5531,-0.5539,0.0,0.0,0.0,0.0,-0.8359,-0.9628,-1.0696,-1.1655,-1.2221,-1.2646,-1.2793,-1.2461,-1.2476,-1.2248,0.0,-1.076,-1.0376,-0.9541,0.0,0.0,0.0,0.0,-0.894,-0.8262,-0.7613,-0.6983,-0.6447,-0.5884,-0.5374,-0.4892,-0.415,-0.3361,-0.256,-0.1223,-0.0456,-0.0344,0.022,0.0092,-0.0805,0.0,0.0,0.0,0.0,0.0,0.0,0.0,0.0,0.0,0.0,0.0,0.0,0.0,0.0,0.0,0.0,0.0,0.0,0.0,0.0,0.0,0.0,0.0,0.0,0.0,0.0,0.0,0.0,0.0,0.0,-0.1026,0.0,0.0,0.0,0.0,-0.3749,-0.3868,-0.4582,-0.6149,-0.6267,-0.6629,-0.7403,-0.7537,-0.7649,-0.7598,-0.782,-0.7374,-0.6308,-0.6308,-0.5852,-0.4918,-0.4911,-0.5381,-0.6207,-0.6904,-0.7143,-0.6982,-0.5841,-0.5362,-0.5281,-0.5035,-0.4575,-0.4189,-0.5397,-0.562,-0.5439,-0.6013,-0.6273,-0.6406,-0.6511,-0.6386,-0.6171,-0.6144,-0.6085,0.0,0.0,-0.8798,-0.9763,-1.1256,-1.222,-1.2822,-1.2842,-1.2861,-1.2871,-1.2852,-1.3341,-1.3269,0.0,-1.2003,-1.2214,-1.1736,0.0,-1.1591,-1.1171,-1.1024,-1.0601,-0.9613,-0.9318,-0.8796,-0.7799,-0.7155,-0.674,-0.6584,-0.5764,-0.5055,-0.4488,-0.2775,-0.1633,-0.1257,-0.0431,0.0,-0.0061,-0.0287,0.0,0.0,0.0,0.0,0.0,0.0,0.0,0.0,0.0,0.0,0.0,0.0,0.0,0.0,0.0,0.0,0.0,0.0,0.0,0.0,0.0,0.0,0.0,0.0,0.0,0.0,0.0,0.0,-0.1841,-0.2839,0.0,-0.3437,-0.4655,-0.5631,-0.6065,-0.6564,-0.7144,-0.7805,-0.8329,-0.884,-0.9145,-0.976,-0.9808,-0.9275,-0.9299,-0.8888,-0.7923,-0.7792,-0.7489,-0.7149,-0.6827,-0.6894,-0.7186,-0.7355,-0.7372,-0.7348,-0.6897,-0.6221,-0.5441,-0.5324,-0.4881,-0.4357,-0.4828,-0.5447,-0.6149,-0.6357,-0.7103,-0.8019,-0.8521,-0.8611,-0.8588,-0.9027,-0.9146,-0.9185,-0.9748,-1.0409,-1.1118,-1.167,-1.2344,-1.2881,-1.2881,-1.2881,-1.2881,-1.2881,-1.3372,-1.3627,-1.3119,-1.3532,-1.3849,-1.3483,-1.3653,-1.3592,-1.283,-1.2602,-1.2383,-1.2028,-1.1008,-1.0175,-0.9838,-0.9304,-0.892,-0.8875,-0.7638,-0.6787,-0.6604,-0.4438,-0.3002,-0.2599,-0.1456,-0.0991,-0.127,-0.1283,-0.1559,0.0,0.0,0.0,0.0,0.0,0.0,0.0,0.0,0.0,0.0,0.0,0.0,0.0,0.0,0.0,0.0,0.0,0.0,0.0,0.0,0.0,0.0,0.0,0.0,0.0,0.0,-0.3452,-0.429,-0.5247,-0.5917,-0.5911,-0.7105,-0.7954,-0.822,-0.8705,-0.9125,-0.9491,-1.011,-1.0467,-1.0516,-1.108,-1.1149,-1.0516,-1.0522,-1.0095,-0.9249,-0.9023,-0.8769,-0.841,-0.8107,-0.8059,-0.8231,-0.8142,-0.8094,-0.8012,-0.8012,-0.7305,-0.6178,-0.6178,-0.5862,-0.5369,-0.5369,-0.5881,-0.6691,-0.7165,-0.8131,-0.9263,-0.9917,-1.0167,-1.0218,-1.0669,-1.0813,-1.0864,-1.1065,-1.1466,-1.1864,-1.2129,-1.255,-1.2881,-1.2881,-1.3065,-1.319,-1.319,-1.3826,-1.4411,-1.4411,-1.4786,-1.4981,-1.479,-1.4962,-1.5015,-1.4575,-1.4287,-1.4026,-1.3803,-1.2853,-1.2027,-1.1651,-1.1278,-1.1073,-1.1073,-0.9784,-0.8971,-0.9076,-0.6689,-0.5014,-0.4439,-0.2953,-0.2112,-0.2004,-0.2014,-0.2335,-0.2968,0.0,0.0,0.0,0.0,0.0,0.0,0.0,0.0,0.0,0.0,0.0,0.0,0.0,0.0,0.0,0.0,0.0,0.0,0.0,0.0,0.0,0.0,0.0,-0.3701,-0.4935,-0.6252,-0.721,-0.821,-0.8826,-0.8701,-0.8805,-0.9287,-1.0148,-1.0224,-1.0571,-1.1401,-1.1463,-1.1463,-1.1456,-1.145,-1.145,-1.145,-1.145,-1.0968,-1.0194,-1.0188,-0.9565,-0.8508,-0.8503,-0.8788,-0.9361,-0.9356,-0.9265,-0.9082,-0.907,-0.8491,-0.7617,-0.7547,-0.7348,-0.71,-0.71,-0.6961,-0.6869,-0.829,-0.9249,-0.9999,-1.0635,-1.083,-1.083,-1.0872,-1.0864,-1.1015,-1.1665,-1.1864,-1.207,-1.2764,-1.2978,-1.2978,-1.2978,-1.342,-1.3815,-1.3815,-1.4767,-1.5588,-1.5632,-1.5632,-1.5632,-1.5632,-1.5708,-1.5949,-1.6467,-1.6093,0.0,-1.4852,-1.4746,-1.4288,-1.3196,-1.3053,-1.304,-1.304,-1.2071,-1.1565,-1.178,-0.9446,-0.7655,-0.674,-0.4909,-0.3338,-0.2153,-0.2389,-0.2868,-0.3548,0.0,0.0,0.0,0.0,0.0,0.0,0.0,0.0,0.0,0.0,0.0,0.0,0.0,0.0,0.0,0.0,0.0,0.0,0.0,0.0,0.0,-0.5843,-0.6641,-0.6444,-0.7223,-0.8048,-0.8559,-0.9499,-1.0208,-1.0439,-1.1204,-1.1859,-1.2317,-1.233,-1.2391,-1.2398,-1.2385,-1.2285,-1.2071,-1.2058,-1.2058,-1.2058,-1.2058,-1.1913,-1.1689,-1.1488,-1.1275,-1.0905,-1.0704,-1.064,-1.0834,-1.0633,-1.0497,-1.0471,-1.0262,-1.0361,-1.0404,-0.8323,-0.7441,-0.739,-0.739,-0.8022,-0.9028,-0.9994,-1.0785,-1.1526,-1.1896,-1.2016,-1.2066,-1.2249,-1.2628,-1.3024,-1.3188,-1.3558,-1.3935,-1.4154,-1.4212,-1.4212,-1.4212,-1.434,-1.4468,-1.4468,-1.505,-1.572,-1.6089,-1.6532,-1.6828,-1.6828,-1.7167,-1.7503,-1.7622,-1.718,0.0,-1.661,-1.5827,-1.5154,-1.4843,-1.437,-1.4082,-1.4082,-1.3183,-1.2476,-1.204,-1.0465,-0.926,-0.8717,-0.7326,-0.6027,-0.4868,-0.4895,-0.4902,0.0,0.0,0.0,0.0,0.0,0.0,0.0,0.0,0.0,0.0,0.0,0.0,0.0,0.0,0.0,0.0,0.0,0.0,0.0,0.0,0.0,0.0,-0.826,-0.9147,-0.9825,-0.9648,-0.9698,-1.0379,-1.1046,-1.1614,-1.1864,-1.255,-1.3013,-1.32,-1.3213,-1.3133,-1.2953,-1.2939,-1.2859,-1.2685,-1.2685,-1.2619,-1.2492,-1.2485,-1.2425,-1.2298,-1.2131,-1.1991,-1.1864,-1.169,-1.1543,-1.1416,-1.1249,-1.1176,-1.1149,-1.0862,-1.1234,0.0,0.0,0.0,0.0,0.0,-1.0015,-1.0869,-1.1567,-1.2133,-1.2604,-1.3037,-1.3375,-1.3682,-1.3801,-1.4171,-1.4493,-1.4493,-1.4576,-1.4744,-1.4982,-1.5016,-1.5016,-1.5016,-1.5407,-1.5672,-1.5475,-1.6077,-1.6718,-1.7053,-1.7558,0.0,-1.7987,-1.8027,-1.8185,-1.8419,-1.8186,-1.7936,-1.7913,-1.7274,-1.6728,-1.6455,-1.6063,-1.5811,-1.5677,-1.48,0.0,0.0,0.0,-1.1047,-1.0168,-0.9104,0.0,0.0,0.0,0.0,0.0,0.0,0.0,0.0,-0.4376,-0.398,0.0,0.0,0.0,0.0,0.0,0.0,0.0,0.0,0.0,0.0,0.0,0.0,0.0,0.0,0.0,0.0,-1.0867,-1.1539,-1.3021,-1.1834,-1.1303,-1.2297,-1.2639,-1.2889,-1.2923,-1.31,-1.3273,-1.3307,-1.3307,-1.3293,-1.326,0.0,0.0,0.0,0.0,-1.308,-1.2876,-1.2842,-1.2612,-1.2351,-1.2318,-1.2171,-1.1917,-1.1917,-1.1777,-1.1523,-1.149,-1.1476,-1.145,-1.1296,-1.1724,-1.2477,-1.2079,-1.2208,-1.2614,-1.228,-1.2276,-1.2444,-1.3001,0.0,0.0,-1.4101,-1.4755,-1.5299,-1.5298,-1.5504,-1.5697,-1.5677,-1.5394,-1.521,-1.566,-1.5799,-1.5799,-1.5799,-1.6583,-1.7179,-1.6676,-1.7395,-1.8145,-1.8185,-1.8574,-1.893,-1.8968,-1.8612,-1.8458,-1.893,-1.9006,-1.8965,-1.8812,-1.8747,-1.8478,-1.7861,0.0,0.0,-1.7361,-1.6515,-1.6222,-1.676,-1.4879,-1.3162,-1.1777,-1.1057,-1.0071,-0.8718,-0.8158,-0.7795,-0.7634,-0.737,-0.688,-0.6186,-0.4873,-0.4365,0.0,0.0,0.0,0.0,0.0,0.0,0.0,0.0,0.0,0.0,0.0,0.0,0.0,0.0,0.0,-1.0791,-1.1974,-1.285,-1.3186,-1.2903,-1.281,-1.3026,-1.3086,-1.3213,-1.3447,-1.3527,-1.3661,-1.3901,-1.3921,-1.3814,-1.3574,-1.3561,-1.3454,-1.322,-1.3213,-1.318,-1.312,-1.2872,-1.2795,-1.2735,0.0,0.0,-1.2218,-1.2218,-1.2184,-1.2118,-1.1884,-1.1784,-1.1827,-1.2344,-1.329,-1.4257,-1.3202,-1.2838,-1.2893,-1.2827,-1.3212,-1.3803,-1.392,-1.4396,-1.5041,-1.5444,-1.5645,-1.5839,-1.6096,-1.652,0.0,-1.6895,-1.7174,-1.7506,-1.7584,-1.7585,-1.7585,-1.7585,-1.776,-1.788,-1.78,-1.7933,-1.8224,-1.865,-1.8817,-1.9043,-1.9479,-1.9442,-1.9442,-1.953,-1.9566,-1.9522,-1.951,-1.9031,-1.8657,-1.8523,-1.8011,-1.767,-1.7631,-1.7447,-1.7148,-1.6758,-1.6644,-1.6471,-1.6176,-1.6159,-1.5381,-1.3736,-1.301,-1.191,-1.0406,-0.921,-0.8306,-0.7667,-0.7288,-0.6026,0.0,0.0,0.0,0.0,0.0,0.0,0.0,0.0,0.0,0.0,0.0,-0.3701,-0.7197,0.0,-1.016,-1.2104,-1.2982,-1.348,-1.3627,-1.3647,-1.354,-1.3247,-1.334,-1.3487,-1.3627,-1.3774,-1.3928,-1.4075,-1.4088,-1.4021,-1.3874,-1.3868,-1.3801,-1.3654,-1.3647,-1.3581,-1.3427,-1.3273,-1.3046,-1.2822,-1.2592,-1.2445,-1.2305,-1.2305,-1.2305,-1.2291,-1.2646,-1.2511,-1.2202,-1.3278,-1.4163,-1.4852,-1.4644,-1.4385,-1.4213,-1.4213,-1.4451,-1.4805,-1.4805,-1.505,-1.5487,-1.6042,-1.6458,-1.6841,-1.7404,-1.8065,-1.8659,-1.8588,-1.8874,-1.915,-1.9025,-1.8976,-1.8945,-1.8567,-1.8688,-1.8817,-1.8574,-1.8688,-1.8968,-1.9244,-1.9281,-1.9406,-1.9639,-1.969,-1.969,-1.969,-1.969,-1.969,-1.969,-1.9405,-1.9196,-1.9196,-1.8897,-1.8736,-1.881,-1.8655,-1.816,-1.7251,-1.7966,-1.8238,-1.7905,-1.8167,-1.7593,-1.607,-1.5251,-1.4022,-1.2505,-1.1173,-1.0141,-0.9425,-0.9347,-0.7877,0.0,0.0,0.0,0.0,0.0,0.0,0.0,0.0,0.3151,0.0271,-0.2328,-0.516,-0.8653,-0.963,-1.0621,-1.3035,-1.3642,-1.3895,-1.4135,-1.4168,-1.3975,-1.3447,-1.3587,-1.3728,-1.3728,-1.3948,-1.4088,-1.4088,-1.4088,-1.4088,-1.4088,-1.4088,-1.4088,-1.4088,-1.4088,-1.3975,-1.3734,-1.3592,-1.34,-1.2919,-1.2882,-1.2694,-1.2385,-1.2325,-1.2305,-1.2378,-1.331,-1.3382,-1.2997,-1.4353,-1.5071,-1.542,-1.5975,-1.5928,-1.5527,-1.5439,-1.541,-1.541,-1.541,-1.541,-1.5526,-1.6425,-1.7146,-1.7731,-1.8661,-1.9497,-2.0178,-2.0154,-2.027,-2.0358,-2.0128,-2.0045,-1.9885,-1.9203,-1.9406,-1.9566,-1.9169,-1.9406,-1.969,-1.969,-1.969,-1.969,-1.969,-1.969,-1.969,-1.969,-1.969,-1.969,-1.969,-1.969,-1.969,-1.969,-1.9782,-1.989,-2.0098,-1.9884,-1.9354,-1.8513,-1.9324,-1.963,-1.9194,-1.9422,-1.9031,-1.7917,-1.6958,-1.5928,-1.4738,-1.3499,-1.2437,-1.1616,-1.1492,-0.9811,2.0789,2.0467,1.939,1.6973,1.433,1.2046,0.0,0.0,0.1362,0.0,-0.277,-0.5735,-0.8305,-0.9609,-1.0852,-1.2632,-1.3703,-1.4429,-1.4469,-1.4476,-1.4349,-1.4028,-1.4015,-1.4041,-1.4041,-1.4068,-1.4088,-1.4088,-1.4088,-1.4088,-1.4088,-1.4088,-1.4088,-1.4088,-1.4088,-1.4075,-1.4041,-1.3774,-1.3614,-1.3534,-1.2999,-1.2802,-1.2761,-1.2425,-1.2305,-1.2378,-1.331,-1.4171,-1.4942,-1.5957,-1.6668,-1.7067,-1.6743,-1.6387,-1.5947,-1.5557,-1.541,-1.541,-1.541,-1.541,-1.5633,-1.7024,-1.7523,-1.7841,-1.9254,-2.0143,-2.0682,-2.0729,-2.1114,-2.1384,-2.0789,-2.0593,-2.0452,-1.9766,-1.9639,-1.969,-1.9603,-1.9639,-1.969,-1.969,-1.969,-1.969,-1.969,-1.969,-1.969,-1.969,-1.969,-1.969,-1.969,-1.969,-1.969,-1.969,-2.0035,-2.0418,-2.0847,-2.083,-2.0908,-2.1154,-2.1275,-2.1516,-2.1843,-2.1883,-2.1678,-2.1122,-2.0174,-1.9161,-1.8064,-1.6486,-1.5422,-1.4773,-1.4194,-1.1959,2.1919,2.059,1.8306,0.0,1.2611,0.94,0.6381,0.2389,-0.1218,-0.2941,-0.4889,-0.6791,-0.8496,-0.9198,-0.9976,0.0,-1.2721,-1.3436,-1.3442,-1.4067,-1.4349,-1.3881,-1.3981,-1.4088,-1.4088,-1.4088,-1.4088,-1.4088,-1.465,-1.5054,-1.5054,-1.5636,-1.5711,-1.5061,-1.5636,-1.5628,-1.5054,-1.5494,-1.5648,-1.5522,-1.5311,-1.4772,-1.3971,-1.4238,-1.4486,-1.4791,-1.4665,-1.5446,-1.6802,-1.6636,-1.7216,-1.8104,-1.791,-1.7698,-1.7403,-1.6372,-1.5758,-1.5468,-1.5864,-1.6036,-1.6197,-1.7246,-1.7907,-1.8447,-1.9475,-2.0521,-2.1335,-2.1327,-2.2038,-2.2669,-2.2043,-2.1575,-2.1111,-2.0438,-1.9974,-1.969,-1.969,-1.969,-1.969,-1.969,-1.969,-1.969,-1.969,-1.969,-1.969,-1.969,-1.969,-1.969,-1.969,-1.969,-1.969,-1.969,-2.0296,-2.0698,-2.0583,-2.1039,-2.1306,-2.1244,-2.146,-2.1688,-2.1882,-2.2135,-2.2077,-2.1628,-2.1227,-2.0539,-1.9527,-1.8481,-1.773,-1.7156,-1.6515,-1.5398,2.1554,1.9551,1.6728,1.3717,0.9969,0.609,0.2351,-0.0833,-0.3502,-0.5043,-0.6271,-0.7404,-0.8281,-0.8715,-0.9226,-1.0272,-1.1568,-1.2466,-1.2655,-1.3194,-1.3623,-1.3751,-1.369,-1.3808,-1.4489,-1.4573,-1.4573,-1.4573,-1.5545,-1.6108,-1.6108,-1.6846,-1.6927,-1.6191,-1.6927,-1.6927,-1.6191,-1.6927,-1.7202,-1.7009,-1.6979,-1.6398,-1.5374,-1.5682,-1.5978,-1.636,-1.6097,-1.6688,-1.7969,-1.7794,-1.8268,-1.9158,-1.903,-1.8927,-1.8778,-1.7742,-1.6757,-1.6026,-1.6379,-1.6492,-1.6595,-1.7357,-1.7961,-1.8555,-1.9527,-2.0706,-2.1697,-2.1697,-2.2606,-2.346,-2.2847,-2.2323,-2.1754,-2.0917,-2.0414,-2.0101,-1.9919,-1.9874,-1.9874,-1.9874,-1.9782,-1.969,-1.969,-1.969,-1.969,-1.969,-1.969,-1.969,-1.969,-1.969,-1.9747,-1.9839,-2.0532,-2.0926,-2.0667,-2.1368,-2.1675,-2.1401,-2.1628,-2.1794,-2.1794,-2.2106,-2.2135,-2.1794,-2.1658,-2.1274,-2.0588,-2.003,-1.9561,-1.9179,-1.8731,-1.8557,1.8861,1.7091,1.4772,1.058,0.5877,0.1903,0.0438,-0.2752,-0.5349,-0.5354,-0.6334,-0.7139,-0.7139,-0.8105,-0.9008,-0.9451,-1.0527,-1.1726,-1.2819,-1.2091,-1.2103,-1.3881,-1.3021,-1.3256,-1.5448,-1.5613,-1.5613,-1.5613,-1.6683,-1.7253,-1.7253,-1.7261,-1.7261,-1.7253,-1.7261,-1.7261,-1.7253,-1.7261,-1.7334,-1.7317,-1.7025,-1.6843,-1.681,-1.6088,-1.583,-1.5869,-1.7222,-1.7852,-1.8063,-1.9771,-2.0515,-2.0512,-2.003,-1.989,-1.9806,-1.9584,-1.8672,-1.7413,-1.6765,-1.6492,-1.6595,-1.7357,-1.7633,-1.7895,-1.9371,-2.0706,-2.1697,-2.1697,-2.2606,-2.346,-2.2847,-2.2667,-2.2323,-2.1021,-2.0968,-2.1084,-2.0419,-2.028,-2.028,-2.028,-1.9965,-1.969,-1.969,-1.969,-1.969,-1.969,-1.969,-1.969,-1.969,-1.969,-1.9839,-2.0246,-2.0715,-2.115,-2.1521,-2.2003,-2.2282,-2.2254,-2.2282,-2.2282,-2.2282,-2.2282,-2.2282,-2.2282,-2.1823,-2.1582,-2.1552,-2.1134,-2.0943,-2.091,-2.091,-2.091,1.8261,1.5717,1.2061,0.7178,0.3351,-0.0089,-0.3079,-0.4595,-0.5604,-0.6231,-0.6662,-0.6848,-0.6848,-0.7186,-0.7576,-0.8007,-0.9263,-1.0584,-1.1838,-1.2423,-1.3278,-1.4979,-1.4958,0.0,-1.6365,-1.597,0.0,-1.6683,-1.7819,-1.839,-1.839,-1.9107,-1.9195,-1.847,-1.9116,-1.9116,-1.839,-1.9116,-1.9511,-1.9511,-1.8655,-1.8527,-1.888,-1.8555,-1.8493,-1.8605,-1.976,-2.0271,-2.0434,-2.0546,-2.1255,-2.214,-2.1466,-2.1329,-2.1461,-2.1412,-2.0362,-1.8762,-1.7634,-1.6922,-1.6539,-1.6821,-1.7523,-1.8436,-1.8927,-2.0319,-2.1697,-2.1697,-2.2606,-2.355,-2.334,-2.2981,-2.2671,-2.2531,-2.1675,-2.0938,-2.1054,-2.0461,-1.9909,-1.9909,-1.9782,-1.969,-1.969,-1.969,-1.969,-1.969,-1.969,-1.969,-1.969,-1.969,-1.9839,-2.0246,-2.0449,-2.0813,-2.1521,-2.1748,-2.1974,-2.2282,-2.231,-2.231,-2.231,-2.231,-2.231,-2.231,-2.2135,-2.2061,-2.2061,-2.2119,-2.2034,-2.1869,-2.2279,-2.2354,1.7245,1.3604,0.8986,0.4401,0.0633,-0.2664,-0.5064,-0.5771,-0.6147,-0.6705,-0.6725,-0.6603,-0.6552,-0.6542,-0.6705,-0.7207,-0.8442,-0.9889,-1.1259,-1.2261,-1.3622,-1.5789,-1.587,-1.6329,0.0,0.0,0.0,-1.7844,-1.9227,-1.9981,-1.9841,-2.063,-2.0639,-1.9832,-2.0476,-2.0399,-1.9599,-2.0245,-2.0789,-2.1078,-2.043,-2.0438,-2.1151,-2.102,-2.0822,-2.0683,-2.153,-2.1859,-2.177,-2.1868,-2.2372,-2.305,-2.2834,-2.2708,-2.2585,-2.2385,-2.1387,-1.9954,-1.8623,-1.7429,-1.6513,-1.6691,-1.7445,-1.834,-1.8608,-1.9978,-2.1424,-2.1663,-2.2469,-2.3334,-2.3551,-2.3295,-2.302,-2.3117,-2.2376,-2.1668,-2.1781,-2.1197,-2.0561,-2.0318,-2.0143,-1.9974,-1.9735,-1.969,-1.969,-1.969,-1.969,-1.969,-1.969,-1.969,-1.9839,-2.0246,-2.0449,-2.0781,-2.1337,-2.1658,-2.1899,-2.2032,-2.2209,-2.231,-2.231,-2.231,-2.231,-2.231,-2.231,-2.231,-2.231,-2.2563,-2.2625,-2.248,-2.2965,-2.3093,1.5788,1.1094,0.5975,0.2122,-0.2227,-0.5629,-0.5807,-0.6334,-0.6868,-0.6702,-0.6539,-0.6383,-0.624,-0.6234,-0.6437,-0.7101,-0.8269,-0.9714,-1.1318,-1.18,-1.3107,0.0,0.0,0.0,0.0,0.0,0.0,-1.9234,0.0,-2.1709,-2.1289,-2.166,-2.1689,-2.136,-2.124,-2.1025,-2.0751,-2.0654,-2.1078,-2.2027,-2.2027,-2.2553,-2.3503,-2.3187,-2.2691,-2.2082,-2.2573,-2.2516,-2.2125,-2.3636,-2.3826,-2.3245,-2.3943,-2.3767,-2.3015,-2.2548,-2.1842,-2.1021,-1.9647,-1.8028,-1.6628,-1.7019,-1.7352,-1.7722,-1.8429,-1.9619,-2.0881,-2.1424,-2.2146,-2.283,-2.3421,-2.3551,-2.3445,-2.2903,-2.3021,-2.311,-2.2501,-2.2308,-2.2077,-2.1435,-2.1007,-2.0543,-1.9854,-1.9735,-1.9735,-1.9726,-1.969,-1.969,-1.969,-1.969,-1.9874,-2.028,-2.0715,-2.0991,-2.1071,-2.1781,-2.2077,-2.1658,-2.2032,-2.231,-2.231,-2.231,-2.231,-2.231,-2.231,-2.231,-2.2321,-2.2573,-2.2721,-2.2746,-2.3093,-2.3236,1.5048,1.0863,0.544,-0.1136,-0.4169,-0.6089,-0.7916,-0.7563,-0.6651,-0.6278,-0.5996,-0.5769,-0.5689,-0.5864,0.0,-0.7708,-0.8752,0.0,-1.2587,-1.3902,0.0,-1.8039,0.0,-1.9817,-2.1294,-2.1719,0.0,0.0,-2.1593,-2.1836,-2.1728,-2.1826,-2.2217,-2.2866,-2.178,-2.1561,-2.2351,-2.1181,-2.1078,-2.2027,-2.2027,-2.2553,-2.3514,-2.4137,-2.3944,-2.2998,-2.3908,-2.4017,-2.3695,-2.3471,-2.3662,-2.3943,-2.3543,-2.3305,-2.3053,-2.2975,-2.2174,-2.1128,-2.0444,-1.908,-1.7538,-1.701,-1.7031,-1.7344,-1.7517,-1.8717,-2.0029,-2.0168,-2.1397,-2.274,-2.2875,-2.3275,-2.3679,-2.3917,-2.3396,-2.292,-2.3087,-2.2454,-2.1816,-2.1635,-2.1519,-2.1231,-2.0572,-2.0453,-2.0288,-1.9765,-1.969,-1.969,-1.969,-1.969,-1.998,-2.0731,-2.0616,-2.0878,-2.1886,-2.184,-2.1899,-2.2106,-2.2237,-2.231,-2.231,-2.231,-2.231,-2.231,-2.231,-2.2415,-2.2599,-2.2923,-2.3069,-2.3093,-2.3671,-2.3816,1.516,0.9986,0.3966,-0.307,-0.6484,-0.8199,-0.8798,-0.8097,-0.6976,-0.5913,-0.5552,-0.5342,-0.5196,-0.5812,-0.6809,0.0,0.0,0.0,-1.3933,-1.5565,-1.7365,0.0,-2.0519,0.0,-2.2366,-2.2646,-2.2685,0.0,-2.2441,-2.2353,-2.2168,-2.2818,-2.3381,-2.3808,-2.3217,-2.2778,-2.2513,-2.1208,-2.1078,-2.2027,-2.2027,-2.2776,-2.4192,-2.4707,-2.4761,-2.4293,0.0,-2.457,-2.4141,-2.3765,-2.3708,-2.3767,-2.3649,-2.3424,-2.3078,-2.3078,-2.2625,-2.197,-2.1385,-2.0295,-1.8932,-1.7446,-1.7201,-1.7444,-1.7245,-1.8103,-1.9179,-1.9567,-2.0505,-2.1602,-2.2452,-2.2965,-2.3363,-2.3906,-2.3564,-2.3155,-2.3442,-2.3005,-2.2458,-2.2173,-2.1889,-2.1575,-2.1201,-2.1141,-2.0917,-2.0243,-2.0139,-2.0092,-1.9975,-1.9818,-1.9945,-2.0632,-2.0449,-2.0682,-2.1661,-2.1628,-2.1718,-2.1974,-2.218,-2.231,-2.231,-2.231,-2.231,-2.231,-2.2426,-2.2563,-2.2695,-2.3189,-2.3414,-2.3414,-2.3955,-2.4094,1.5749,0.9121,0.2272,-0.4138,-0.8464,-1.0641,-0.9027,-0.8134,-0.727,-0.5691,-0.5179,-0.503,-0.4884,-0.5864,-0.6996,-0.8026,0.0,-1.2843,-1.5167,-1.6912,-1.8724,-2.1016,-2.148,-2.1943,-2.296,-2.3135,-2.3135,-2.3135,-2.3135,-2.2978,-2.2617,-2.3846,-2.4388,-2.4124,-2.4664,-2.4062,-2.2038,-2.1078,-2.1078,-2.2027,-2.2027,-2.2999,-2.4791,-2.4933,-2.5139,-2.5373,-2.5056,-2.4569,-2.4016,-2.4222,-2.3785,-2.3198,-2.3884,-2.3767,-2.3245,-2.3245,-2.3305,-2.3292,-2.2359,-2.1542,-2.0565,-1.8338,-1.7728,-1.7688,-1.7243,-1.7637,-1.8317,-1.9182,-1.9556,-2.0105,-2.196,-2.2558,-2.283,-2.3377,-2.3551,-2.3595,-2.3595,-2.3595,-2.3445,-2.2906,-2.2338,-2.1919,-2.1844,-2.1829,-2.1575,-2.0827,-2.0722,-2.0587,-2.0339,-2.0,-1.998,-2.04,-2.0467,-2.0649,-2.1118,-2.1507,-2.1688,-2.1688,-2.2061,-2.231,-2.231,-2.231,-2.231,-2.231,-2.2527,-2.2686,-2.2772,-2.3346,-2.3671,-2.3774,-2.4074,-2.419,1.5775,0.9396,0.2079,-0.5363,-0.8377,-0.9721,-0.9867,-0.7983,0.0,-0.5181,-0.4874,-0.4721,-0.4568,-0.5005,-0.6233,-0.8689,-0.9991,-1.2052,-1.6031,-1.7838,-1.9427,0.0,-2.2217,-2.2862,-2.3047,-2.3135,0.0,0.0,0.0,-2.3105,-2.3037,-2.326,-2.3428,-2.3479,-2.4568,-2.4139,-2.2038,-2.1078,-2.1078,-2.2027,-2.2027,-2.2627,-2.3818,-2.4636,-2.4789,-2.4494,-2.5153,0.0,-2.3991,-2.4015,-2.3687,-2.3138,-2.3245,-2.3649,-2.4118,-2.4118,-2.4509,-2.4768,-2.331,-2.2699,-2.2189,-1.976,-1.8314,-1.7372,-1.6928,-1.7073,-1.7477,-1.7867,-1.8773,-1.9927,-2.0868,-2.1894,-2.274,-2.283,-2.3246,-2.3595,-2.3595,-2.3595,-2.3565,-2.346,-2.3355,-2.3101,-2.2592,-2.2544,-2.2099,-2.0902,-2.0722,-2.0587,-2.0339,-2.0246,-2.0516,-2.129,-2.1383,-2.1568,-2.2032,-2.2152,-2.218,-2.218,-2.2237,-2.231,-2.231,-2.231,-2.231,-2.231,-2.2349,-2.2607,-2.3117,-2.3212,-2.3566,-2.4113,-2.417,-2.419,1.5211,0.8857,0.1952,-0.5371,-0.9292,-1.0966,-0.9992,0.0,0.0,-0.4876,-0.433,-0.4091,-0.4418,-0.5174,0.0,-0.8522,-0.9691,-1.2049,-1.6589,-1.7918,-1.9059,-2.1087,-2.2403,-2.2862,0.0,-2.2765,-2.3135,-2.3135,0.0,-2.3135,-2.3135,-2.3418,-2.3928,-2.4601,-2.4227,-2.358,-2.2787,-2.1298,-2.0867,-2.1298,-2.1298,-2.1821,-2.2776,-2.322,-2.3609,-2.3883,-2.4546,0.0,-2.364,-2.3916,-2.3653,-2.3078,-2.3078,-2.3603,-2.4292,-2.4292,-2.4794,-2.5273,-2.45,-2.3722,-2.2807,-2.1584,-1.9942,-1.8203,-1.7327,-1.7169,-1.7349,-1.7387,-1.8159,-1.9186,-2.0016,-2.1183,-2.2253,-2.2603,-2.3143,-2.3595,-2.3595,-2.3595,-2.3595,-2.3595,-2.3595,-2.3505,-2.3206,-2.3161,-2.2832,-2.1874,-2.1739,-2.1545,-2.091,-2.1014,-2.1226,-2.1276,-2.1275,-2.146,-2.1899,-2.1928,-2.2032,-2.2282,-2.231,-2.231,-2.231,-2.231,-2.231,-2.231,-2.2453,-2.2652,-2.2947,-2.33,-2.3628,-2.3937,-2.4113,-2.419,1.3416,0.7095,0.0912,-0.6124,-1.038,-1.2206,-0.9818,-0.7537,-0.5654,-0.4713,-0.4012,-0.3735,-0.4405,-0.5339,-0.6487,0.0,-0.923,-1.1675,-1.6474,-1.7227,-1.8245,0.0,-2.2073,0.0,-2.1756,-2.258,0.0,-2.3135,0.0,0.0,-2.3135,-2.3801,-2.4603,-2.5562,-2.3995,-2.3427,-2.3818,-2.1897,-2.0934,-2.0934,-2.0712,-2.1011,-2.1735,-2.1886,-2.2403,-2.3198,-2.3778,0.0,0.0,-2.3781,-2.3629,-2.3314,-2.3128,-2.3603,-2.435,-2.4452,-2.5007,-2.5618,-2.5618,-2.4727,-2.3475,-2.3119,-2.1335,-1.9083,-1.8016,-1.757,-1.7392,-1.7214,-1.7748,-1.8476,-1.9287,-2.0604,-2.1899,-2.268,-2.3231,-2.3595,-2.3595,-2.3595,-2.3595,-2.3595,-2.3595,-2.3595,-2.3595,-2.3595,-2.3385,-2.2813,-2.2724,-2.242,-2.1615,-2.1783,-2.1839,-2.1376,-2.131,-2.1415,-2.1718,-2.1764,-2.1899,-2.2282,-2.231,-2.231,-2.231,-2.231,-2.231,-2.231,-2.25,-2.2634,-2.2695,-2.3212,-2.3566,-2.3714,-2.3976,-2.4113,0.9181,0.3417,-0.2439,-0.8972,-1.1348,-1.1564,-0.9691,-0.7203,-0.5095,-0.4615,-0.446,-0.4405,-0.4463,-0.4595,-0.5441,-0.768,0.0,-1.0121,-1.4591,-1.5717,-1.7322,-2.053,0.0,0.0,-2.2862,-2.3047,0.0,-2.3135,0.0,0.0,-2.3135,-2.3801,-2.4444,-2.4848,-2.4401,-2.4391,-2.4874,-2.285,-2.1886,-2.1886,-2.1011,-2.0644,-2.0789,-2.1593,-2.2027,-2.2178,-2.3176,0.0,0.0,-2.3566,-2.3587,-2.3866,-2.3339,-2.3603,-2.4408,-2.5063,-2.5783,-2.6404,-2.6404,-2.5837,-2.4924,-2.3475,-2.1335,-1.9215,-1.8614,-1.7995,-1.7392,-1.7214,-1.7748,-1.8374,-1.8738,-2.0256,-2.2025,-2.3216,-2.3551,-2.3595,-2.3595,-2.3595,-2.3595,-2.3595,-2.3595,-2.3595,-2.3595,-2.3595,-2.3385,-2.2813,-2.2724,-2.2601,-2.224,-2.2098,-2.2115,-2.241,-2.2298,-2.2209,-2.2237,-2.2237,-2.2237,-2.231,-2.231,-2.231,-2.231,-2.231,-2.231,-2.231,-2.2321,-2.2463,-2.2695,-2.2772,-2.3093,-2.3692,-2.3735,-2.3917,0.6496,0.113,-0.4164,-1.0973,-1.2748,-1.2318,-1.0624,-0.7668,-0.5112,-0.4608,-0.4125,-0.3959,-0.4405,-0.4519,-0.5162,-0.711,-0.7374,-0.8798,-1.3051,-1.407,-1.5495,-1.8599,-2.0032,0.0,0.0,0.0,-2.3135,-2.3135,0.0,0.0,-2.3135,-2.2904,-2.3032,-2.3552,-2.2552,-2.2454,-2.322,-2.1821,-2.1155,-2.1155,-2.0789,-2.0566,-2.0644,-2.1011,-2.1155,-2.1221,-2.2188,0.0,0.0,-2.3084,-2.3245,-2.3125,-2.3095,-2.3603,-2.435,-2.4624,-2.5508,-2.651,-2.651,-2.6283,-2.5892,-2.4784,-2.3094,-2.1237,-1.9512,-1.9156,-1.9029,-1.7714,-1.8348,-1.9287,-1.8655,-2.0079,-2.1946,-2.286,-2.3334,-2.3595,-2.3595,-2.3595,-2.3595,-2.3595,-2.3595,-2.3595,-2.3595,-2.3595,-2.352,-2.3266,-2.3236,-2.308,-2.2622,-2.2952,-2.3151,-2.2941,-2.2554,-2.231,-2.231,-2.231,-2.231,-2.231,-2.231,-2.231,-2.231,-2.231,-2.231,-2.231,-2.231,-2.2349,-2.2463,-2.2625,-2.2947,-2.3392,-2.3628,-2.3876,0.4164,-0.0587,-0.5256,-1.1691,-1.2946,-1.2208,-1.0597,-0.7637,-0.506,-0.4601,-0.407,-0.3904,-0.4405,-0.4519,-0.5049,0.0,-0.6854,-0.8012,-1.1731,-1.2838,-1.4206,0.0,0.0,-2.0075,0.0,-2.1706,-2.2677,0.0,0.0,0.0,-2.2959,-2.2275,-2.2199,-2.2862,-2.168,-2.1441,-2.2403,-2.1527,-2.1001,-2.1011,-2.0712,-2.0566,-2.0566,-2.0566,-2.0566,-2.0644,-2.1298,0.0,0.0,-2.2456,-2.2772,-2.2591,-2.2973,-2.3424,-2.3943,-2.4234,-2.5119,-2.6176,-2.6176,-2.6176,-2.6068,-2.5287,-2.4168,-2.2664,-2.0696,-2.0333,-2.0233,-1.8624,-1.9028,-1.9883,-1.9227,-2.0335,-2.1852,-2.2543,-2.3143,-2.3595,-2.3595,-2.3595,-2.3595,-2.3595,-2.3595,-2.3595,-2.3595,-2.3595,-2.3595,-2.3595,-2.3595,-2.3445,-2.3011,-2.3498,-2.3745,-2.3435,-2.2996,-2.279,-2.2953,-2.275,-2.2632,-2.2632,-2.2429,-2.231,-2.231,-2.231,-2.231,-2.231,-2.231,-2.231,-2.231,-2.2563,-2.2873,-2.3212,-2.3544,-2.3876,0.2144,-0.1947,-0.5882,-1.0859,-1.1538,-1.0572,-0.9135,-0.6766,-0.4833,-0.458,-0.4519,-0.4519,-0.4519,-0.4519,-0.4956,-0.6376,-0.6885,-0.7993,-1.0627,-1.2305,-1.3818,0.0,0.0,-1.8687,-1.8615,-2.0219,-2.1845,0.0,0.0,0.0,-2.2539,-2.2119,-2.2339,-2.3231,-2.2433,-2.2478,-2.3441,-2.2478,-2.1952,-2.1952,-2.1001,-2.0566,-2.0566,-2.0566,-2.0566,-2.0566,0.0,0.0,0.0,-2.1772,-2.2239,-2.2731,-2.2973,-2.3138,-2.3185,-2.4002,-2.4794,-2.5398,-2.5398,-2.5398,-2.5287,-2.4567,-2.3767,-2.2944,-2.2125,-2.1302,-2.049,-1.9986,-1.9737,-1.98,-2.0552,-2.1245,-2.1852,-2.2543,-2.3143,-2.3595,-2.3595,-2.3595,-2.3595,-2.3595,-2.3595,-2.3595,-2.3595,-2.3595,-2.3595,-2.3595,-2.3595,-2.3595,-2.3595,-2.3427,-2.3515,-2.4031,-2.384,-2.39,-2.4411,-2.3799,-2.3376,-2.3376,-2.2699,-2.231,-2.231,-2.231,-2.231,-2.231,-2.231,-2.231,-2.231,-2.2563,-2.2873,-2.3212,-2.3544,-2.3876,0.147,-0.225,-0.5962,-1.0466,-1.0979,-0.9972,-0.8862,-0.7048,-0.5443,-0.4668,-0.4519,-0.4519,-0.4519,-0.4519,-0.4896,-0.6113,-0.7135,0.0,0.0,0.0,0.0,-1.511,-1.832,-2.047,0.0,0.0,0.0,0.0,0.0,0.0,-2.2519,-2.1826,-2.1587,-2.189,-2.131,-2.1231,-2.1527,-2.1231,-2.1001,-2.1011,-2.0712,-2.0566,-2.0566,-2.0566,-2.0566,0.0,0.0,0.0,0.0,-2.148,-2.1823,-2.1789,-2.2714,-2.3424,-2.3943,-2.4234,-2.5063,-2.6068,-2.5563,-2.5728,-2.6014,-2.5287,-2.4894,-2.4597,-2.4355,-2.3361,-2.2116,-2.1219,-2.0538,-2.0013,-2.0076,-2.0904,-2.1744,-2.1946,-2.2846,-2.3595,-2.3595,-2.3595,-2.3595,-2.3595,-2.3595,-2.3595,-2.3595,-2.3595,-2.3595,-2.3595,-2.3595,-2.3595,-2.3595,-2.3849,-2.428,-2.477,-2.5098,-2.5045,-2.4529,-2.3816,-2.3393,-2.3393,-2.2716,-2.231,-2.231,-2.231,-2.231,-2.231,-2.231,-2.231,-2.231,-2.2388,-2.2695,-2.3212,-2.3774,-2.4094,0.2626,-0.0668,-0.4035,-0.7573,-0.8146,-0.7809,-0.736,-0.6125,-0.5026,-0.4927,-0.468,-0.457,-0.4842,-0.4897,-0.5106,-0.583,-0.7141,0.0,0.0,0.0,0.0,-1.6927,0.0,0.0,0.0,-2.1678,0.0,0.0,0.0,0.0,-2.2051,-2.1523,-2.1152,-2.0986,-2.0713,-2.0566,-2.0566,-2.0566,-2.0566,-2.0566,-2.0566,-2.0566,-2.0566,-2.0566,-2.0566,0.0,0.0,0.0,0.0,-2.1081,-2.1341,-2.1136,-2.2555,-2.3424,-2.3826,-2.3826,-2.4781,-2.596,-2.4881,-2.5384,-2.6336,-2.5342,-2.5175,-2.5398,-2.5398,-2.4724,-2.3735,-2.2531,-2.1706,-2.0983,-2.0298,-2.074,-2.1424,-2.1663,-2.2515,-2.3334,-2.3551,-2.3595,-2.3595,-2.3595,-2.3595,-2.3595,-2.3595,-2.3595,-2.3595,-2.3595,-2.3595,-2.3595,-2.3595,-2.3879,-2.4307,-2.4816,-2.5221,-2.533,-2.5079,-2.4551,-2.4239,-2.4239,-2.3291,-2.2835,-2.3122,-2.2598,-2.2446,-2.2716,-2.2446,-2.231,-2.231,-2.2535,-2.29,-2.3392,-2.3955,-2.419,0.0,0.2283,-0.0651,-0.2736,-0.3717,-0.4314,-0.4998,-0.434,0.0,-0.5191,-0.4948,-0.4684,-0.536,-0.5504,-0.5513,-0.5536,-0.71,0.0,0.0,-1.2938,0.0,0.0,-1.8322,0.0,-2.1444,0.0,0.0,0.0,0.0,0.0,-2.1028,-2.1041,-2.0837,-2.0498,-2.0566,-2.0566,-2.0566,-2.0566,-2.0566,-2.0566,-2.0566,-2.0566,-2.0566,-2.0566,-2.0547,0.0,0.0,0.0,0.0,-2.0687,-2.0962,-2.0782,-2.2433,-2.3138,-2.3198,-2.3198,-2.4163,-2.5175,-2.3708,-2.4597,-2.6176,-2.4908,-2.4951,-2.5563,-2.5563,-2.5508,-2.5094,-2.3763,-2.3054,-2.2351,-2.1069,-2.0849,-2.1095,-2.1636,-2.2282,-2.292,-2.3465,-2.3595,-2.3595,-2.3595,-2.3595,-2.3595,-2.3595,-2.3551,-2.3551,-2.3595,-2.3551,-2.3551,-2.3595,-2.3595,-2.3794,-2.4348,-2.4389,-2.4816,-2.5852,-2.5698,-2.5576,-2.5609,-2.4272,-2.3782,-2.4472,-2.3173,-2.2784,-2.346,-2.2818,-2.2462,-2.2462,-2.2987,-2.3412,-2.3721,-2.4014,-2.4207,0.636,0.0,0.2013,-0.0233,-0.1325,-0.2232,0.0,-0.3629,-0.3713,-0.4574,-0.4625,-0.4587,-0.5001,-0.5292,-0.5538,-0.5701,0.0,0.0,-1.0426,0.0,0.0,-1.9417,-1.843,-1.817,-1.9877,0.0,0.0,0.0,0.0,-1.9824,-1.8811,-1.9264,-1.9463,-1.9362,-2.0157,-2.0566,-2.0566,-2.0566,-2.0566,-2.0566,-2.0566,-2.0566,-2.0566,-2.0566,-2.0381,0.0,0.0,0.0,-1.8911,-2.0557,-2.0962,-2.0782,-2.2433,-2.3484,-2.4002,-2.4002,-2.461,-2.5287,-2.4337,-2.4724,-2.5673,-2.5906,-2.6481,-2.7071,-2.7071,-2.6322,-2.5094,-2.3763,-2.3289,-2.2942,-2.1652,-2.1747,-2.2196,-2.233,-2.2873,-2.3421,-2.3551,-2.3595,-2.3595,-2.3595,-2.3595,-2.3595,-2.3595,-2.3201,-2.3054,-2.3508,-2.3201,-2.3054,-2.3551,-2.3595,-2.3794,-2.4348,-2.4389,-2.4672,-2.5335,-2.5127,-2.5146,-2.5576,-2.4746,-2.4337,-2.4506,-2.4154,-2.4052,-2.4222,-2.4052,-2.3968,-2.3968,-2.3815,-2.3763,-2.385,-2.3827,-2.4161,0.6691,0.4967,0.3,0.1428,0.0228,-0.0969,-0.2508,-0.2873,-0.3231,-0.467,0.0,-0.4622,-0.5074,-0.5883,-0.6352,0.0,-0.8882,0.0,0.0,0.0,-1.7728,-2.0078,-1.8621,-1.7987,0.0,0.0,0.0,0.0,0.0,-1.8551,-1.7722,-1.8504,-1.9036,-1.9036,-2.0001,-2.0566,-2.0566,-2.0566,-2.0566,-2.0566,-2.0566,-2.0566,-2.0557,-2.0361,-2.0137,0.0,0.0,0.0,-1.9292,-2.0477,-2.102,-2.129,-2.2628,-2.3365,-2.3767,-2.3767,-2.4221,-2.4794,-2.4002,-2.4439,-2.5563,-2.6654,-2.724,-2.7625,-2.7625,-2.7019,-2.6197,-2.5146,-2.4409,-2.3688,-2.2626,-2.2228,-2.2258,-2.294,-2.3322,-2.3673,-2.4,-2.4313,-2.4417,-2.4043,-2.4008,-2.4056,-2.3967,-2.326,-2.2785,-2.3143,-2.2665,-2.2483,-2.3098,-2.3201,-2.3406,-2.3991,-2.4032,-2.4225,-2.4792,-2.47,-2.494,-2.5747,-2.5046,-2.4894,-2.549,-2.4879,-2.4506,-2.4506,-2.4506,-2.4506,-2.4506,-2.4437,-2.44,-2.4427,-2.4646,-2.4987,0.6422,0.459,0.29,0.2087,0.0817,-0.0586,-0.2151,0.0,0.0,0.0,0.0,0.0,-0.5489,-0.6884,0.0,0.0,0.0,0.0,-1.7746,-1.8331,-1.8946,-2.0394,-1.8498,0.0,0.0,0.0,0.0,0.0,0.0,-1.7416,-1.687,-1.8069,-1.8718,-1.8718,-1.9923,-2.0566,-2.0566,-2.0566,-2.0566,-2.0566,-2.0566,-2.0566,-2.0547,-2.0117,-1.9883,-1.9775,0.0,0.0,-1.9844,-2.0369,-2.1101,-2.2002,-2.2763,-2.3078,-2.3078,-2.3078,-2.3531,-2.406,-2.3484,-2.4163,-2.5453,-2.6811,-2.7357,-2.7408,-2.7408,-2.7524,-2.7458,-2.6826,-2.5777,-2.4597,-2.3737,-2.2828,-2.2398,-2.3466,-2.3812,-2.4056,-2.4606,-2.5211,-2.5379,-2.4599,-2.45,-2.4536,-2.4322,-2.342,-2.274,-2.283,-2.23,-2.21,-2.274,-2.2844,-2.3009,-2.3551,-2.3595,-2.3794,-2.4225,-2.4266,-2.4712,-2.5689,-2.5173,-2.5372,-2.6556,-2.5458,-2.4845,-2.4845,-2.4845,-2.4845,-2.4845,-2.5013,-2.5092,-2.5092,-2.5622,-2.5942,0.5646,0.3702,0.1778,0.0613,-0.0283,-0.1497,-0.3591,-0.4058,0.0,0.0,0.0,0.0,0.0,-0.8119,-0.9405,0.0,0.0,-1.4643,0.0,0.0,-1.8334,-1.7445,0.0,0.0,0.0,0.0,0.0,0.0,0.0,-1.5597,-1.4664,-1.6445,-1.7585,-1.7585,-1.952,-2.0566,-2.0566,-2.0566,-2.0566,-2.0566,-2.0566,-2.0566,-2.0547,-2.0117,-1.9717,-1.9355,0.0,-1.8893,-1.9459,-2.0302,-2.1101,-2.2002,-2.2763,-2.3078,-2.3078,-2.3078,-2.3198,-2.3365,-2.3943,-2.4292,-2.4624,-2.5453,-2.6162,-2.6669,-2.6669,-2.7086,-2.7575,-2.7458,-2.6857,-2.5859,-2.4533,-2.4518,-2.4793,-2.4374,-2.4819,-2.5334,-2.5433,-2.554,-2.539,-2.4702,-2.4597,-2.4403,-2.3829,-2.3143,-2.2875,-2.3377,-2.292,-2.2785,-2.3377,-2.3465,-2.3508,-2.3595,-2.3595,-2.3638,-2.3724,-2.3709,-2.3991,-2.4592,-2.4955,-2.541,-2.6068,-2.6252,-2.6353,-2.6353,-2.6353,-2.6353,-2.6353,-2.5792,-2.5518,-2.5501,-2.527,-2.57,0.5086,0.3407,0.1292,-0.1345,-0.2429,-0.3534,-0.5959,-0.6602,0.0,0.0,0.0,0.0,0.0,0.0,-1.1877,-1.3256,0.0,-1.7039,-1.8188,-1.8798,-1.8724,0.0,0.0,0.0,0.0,0.0,0.0,0.0,0.0,0.0,-1.4173,-1.6124,-1.7342,-1.7342,-1.9432,-2.0566,-2.0566,-2.0332,-2.0332,-2.0566,-2.0322,-2.05,-2.0913,-1.9742,-1.9318,-1.9596,0.0,-1.8904,-2.0009,-2.0462,-2.1353,-2.258,-2.2944,-2.3078,-2.3078,-2.3078,-2.3078,-2.3185,-2.4002,-2.4292,-2.4408,-2.5175,-2.5618,-2.596,-2.6404,-2.6721,-2.71,-2.7509,-2.7086,-2.6336,-2.5673,-2.5464,-2.5455,-2.5508,-2.5833,-2.6115,-2.6117,-2.6422,-2.6459,-2.5743,-2.5319,-2.5032,-2.4633,-2.3541,-2.2785,-2.3054,-2.2575,-2.2392,-2.3054,-2.3098,-2.3246,-2.3551,-2.3595,-2.3595,-2.3595,-2.3595,-2.3837,-2.4348,-2.5182,-2.5726,-2.5997,-2.6436,-2.6691,-2.6691,-2.6691,-2.6691,-2.6691,-2.6353,-2.6184,-2.6184,-2.6224,-2.6662,0.4262,0.2607,0.0274,-0.3293,0.0,-0.535,-0.7953,-0.8891,0.0,0.0,0.0,0.0,0.0,-1.1981,0.0,-1.7171,-1.7983,-1.8683,-2.0041,-1.994,-1.9434,-1.8634,0.0,0.0,0.0,0.0,0.0,0.0,0.0,0.0,-1.4496,-1.6281,-1.7415,-1.7666,-1.9506,-2.041,-2.041,-1.998,-1.998,-2.041,-1.9971,-2.0128,-2.073,-1.9464,-1.9173,-1.9548,-1.8652,-1.9177,-2.059,-2.059,-2.1604,-2.3078,-2.3078,-2.3078,-2.3078,-2.3078,-2.3078,-2.3198,-2.3826,-2.4002,-2.4105,-2.4667,-2.5007,-2.5287,-2.6014,-2.6336,-2.6669,-2.7408,-2.7188,-2.6721,-2.6563,-2.6229,-2.6,-2.6404,-2.6616,-2.6747,-2.6817,-2.7215,-2.7364,-2.6596,-2.5969,-2.5529,-2.5236,-2.3925,-2.292,-2.292,-2.2469,-2.2331,-2.283,-2.292,-2.3098,-2.3551,-2.3595,-2.3595,-2.3595,-2.3595,-2.3752,-2.4199,-2.5105,-2.5615,-2.5615,-2.621,-2.6556,-2.6556,-2.6657,-2.6691,-2.6691,-2.6691,-2.6691,-2.6691,-2.7036,-2.7396,0.2666,0.0365,-0.2176,-0.4885,-0.5461,-0.6145,-0.8817,-1.0027,0.0,-1.0843,0.0,0.0,0.0,-1.3668,-1.5184,-1.8623,-1.8157,-1.7794,-1.8957,0.0,-2.0136,0.0,0.0,0.0,0.0,0.0,0.0,0.0,0.0,0.0,-1.5538,-1.6683,-1.7738,-1.8877,-1.9544,-1.9961,-1.9961,-1.9541,-1.9541,-1.9961,-1.9531,-1.9409,-1.9462,-1.9655,-1.9371,-1.8674,-1.9039,-1.9759,-2.059,-2.059,-2.1604,-2.3078,-2.3078,-2.3078,-2.3078,-2.3078,-2.3078,-2.3138,-2.3198,-2.3198,-2.3198,-2.3245,-2.3767,-2.4509,-2.5231,-2.596,-2.6669,-2.7408,-2.756,-2.7357,-2.6669,-2.6982,-2.7306,-2.6669,-2.7034,-2.7509,-2.7515,-2.7595,-2.7415,-2.6711,-2.6066,-2.5405,-2.4777,-2.4044,-2.3551,-2.3551,-2.3508,-2.3508,-2.3508,-2.3551,-2.3551,-2.361,-2.3595,-2.3595,-2.3595,-2.3595,-2.3595,-2.3681,-2.4199,-2.4511,-2.4511,-2.5486,-2.6049,-2.6049,-2.647,-2.6691,-2.6691,-2.6691,-2.6691,-2.6691,-2.6725,-2.6971,0.2173,-0.0358,-0.3194,-0.5179,-0.7125,0.0,0.0,-1.2653,-1.3811,-1.455,-1.4792,0.0,0.0,0.0,-1.7169,-1.9025,-1.908,-1.9145,-1.9885,-2.0323,-2.0167,0.0,0.0,0.0,0.0,0.0,0.0,0.0,0.0,0.0,-1.5874,-1.6968,-1.7758,-1.815,-1.9069,-1.9531,-1.9531,-1.9092,-1.8965,-1.9121,-1.8955,-1.9152,-1.9675,-1.9567,-1.9617,-1.9873,-2.002,-2.059,-2.1428,-2.1428,-2.2063,-2.3078,-2.3078,-2.3078,-2.3078,-2.3078,-2.3078,-2.3078,-2.3078,-2.3078,-2.3185,-2.3649,-2.406,-2.4509,-2.5728,-2.6283,-2.6669,-2.7408,-2.7625,-2.7524,-2.7255,-2.7408,-2.7524,-2.7255,-2.7408,-2.7625,-2.7625,-2.7625,-2.755,-2.7245,-2.6333,-2.554,-2.5285,-2.4328,-2.3595,-2.3595,-2.3595,-2.3595,-2.3595,-2.3595,-2.3595,-2.3595,-2.3595,-2.3595,-2.3595,-2.3595,-2.3595,-2.3595,-2.4116,-2.4552,-2.4894,-2.5615,-2.6156,-2.6436,-2.6624,-2.6691,-2.6691,-2.6691,-2.6691,-2.6691,-2.6691,-2.6906,0.147,-0.1163,-0.417,-0.614,0.0,0.0,-1.2803,-1.4441,-1.5895,-1.672,-1.7084,-1.7134,-1.6929,0.0,0.0,0.0,-1.9533,-1.9832,-2.0518,-2.0566,-2.0323,0.0,0.0,0.0,0.0,0.0,0.0,0.0,0.0,0.0,0.0,-1.7318,-1.7859,-1.8156,-1.8778,-1.9082,-1.9082,-1.8652,-1.8437,-1.8437,-1.8437,-1.8706,-1.9284,-1.9312,-1.9628,-2.0204,-2.0462,-2.1101,-2.1877,-2.1877,-2.2384,-2.3078,-2.3078,-2.3258,-2.3484,-2.3484,-2.3649,-2.3813,-2.3813,-2.3813,-2.393,-2.4452,-2.4624,-2.4908,-2.6122,-2.651,-2.6669,-2.7408,-2.7625,-2.7625,-2.7625,-2.7625,-2.7625,-2.7625,-2.7625,-2.7625,-2.7625,-2.7625,-2.7625,-2.7625,-2.6677,-2.5854,-2.5644,-2.4672,-2.3849,-2.3625,-2.3595,-2.3595,-2.3595,-2.3595,-2.3595,-2.3595,-2.3595,-2.3681,-2.3837,-2.3837,-2.3837,-2.3837,-2.4199,-2.4536,-2.4934,-2.5449,-2.5997,-2.647,-2.6624,-2.6691,-2.6691,-2.6691,-2.6691,-2.6691,-2.6691,-2.6841,0.0298,-0.2278,-0.5276,0.0,0.0,0.0,-1.3357,-1.5083,-1.6354,-1.6629,-1.7277,-1.7784,-1.7859,0.0,0.0,-1.9684,-1.9397,-1.9344,-2.0469,-2.0547,-2.0547,0.0,0.0,0.0,0.0,0.0,0.0,0.0,0.0,0.0,0.0,-1.7692,-1.8221,-1.9277,-1.8857,-1.8562,-1.8562,-1.8213,-1.8008,-1.8008,-1.8008,-1.8008,-1.8008,-1.8911,-1.9299,-1.9365,-2.0268,-2.1101,-2.1877,-2.1877,-2.2384,-2.3078,-2.3138,-2.359,-2.4292,-2.4292,-2.4794,-2.5398,-2.5398,-2.5398,-2.5398,-2.5398,-2.5398,-2.5563,-2.6283,-2.651,-2.6669,-2.7408,-2.7625,-2.7625,-2.7625,-2.7625,-2.7625,-2.7625,-2.7625,-2.7625,-2.7625,-2.7625,-2.7625,-2.7625,-2.7036,-2.6378,-2.5734,-2.5076,-2.4403,-2.3729,-2.361,-2.361,-2.361,-2.361,-2.361,-2.361,-2.361,-2.3794,-2.4348,-2.4389,-2.4389,-2.4389,-2.4389,-2.4389,-2.4389,-2.491,-2.5449,-2.5961,-2.6436,-2.6691,-2.6691,-2.6691,-2.6691,-2.6691,-2.6691,-2.6691,-0.1054,-0.4002,0.0,-0.8969,0.0,0.0,0.0,-1.5679,0.0,0.0,-1.8847,-1.9033,-1.8343,0.0,0.0,-1.9331,-1.9024,-1.8941,-1.9619,-1.9126,-1.8976,-1.9594,0.0,0.0,0.0,0.0,0.0,0.0,0.0,0.0,0.0,-1.7891,-1.8031,-1.8389,-1.8262,-1.8193,-1.8193,-1.8076,-1.8008,-1.8008,-1.8008,-1.8008,-1.8076,-1.9562,-2.0204,-2.0268,-2.1729,-2.2506,-2.2763,-2.2763,-2.2884,-2.3138,-2.3708,-2.4118,-2.435,-2.4908,-2.5231,-2.5398,-2.5398,-2.5398,-2.5508,-2.6014,-2.6176,-2.6336,-2.7034,-2.7255,-2.7306,-2.7524,-2.7625,-2.7625,-2.7625,-2.7625,-2.7625,-2.7625,-2.7625,-2.7625,-2.7625,-2.7625,-2.7625,-2.7625,-2.7036,-2.6527,-2.6333,-2.5749,-2.5255,-2.5046,-2.4627,-2.4313,-2.4313,-2.4313,-2.4313,-2.4313,-2.4313,-2.4323,-2.4395,-2.4389,-2.4552,-2.495,-2.495,-2.4776,-2.443,-2.4552,-2.491,-2.5411,-2.5944,-2.6227,-2.6227,-2.6556,-2.6691,-2.6691,-2.6691,-2.6691,-0.2872,-0.574,0.0,-1.0917,-1.3212,-1.5034,-1.5833,0.0,0.0,0.0,-1.8939,-1.8778,-1.8714,-1.8648,0.0,-1.9219,-1.8764,-1.8398,-1.8727,-1.7915,-1.7534,-1.8054,-1.7234,0.0,0.0,0.0,0.0,0.0,0.0,0.0,0.0,-1.8008,-1.8008,-1.8008,-1.8008,-1.8008,-1.8008,-1.8008,-1.8008,-1.8008,-1.8008,-1.8008,-1.8076,-1.9431,-2.0268,-2.0719,-2.2372,-2.3078,-2.3078,-2.3078,-2.3078,-2.3198,-2.4002,-2.4452,-2.4851,-2.5563,-2.6,-2.6269,-2.6269,-2.6269,-2.6375,-2.6774,-2.693,-2.7034,-2.7473,-2.776,-2.7944,-2.7944,-2.8125,-2.8271,-2.8042,-2.7944,-2.791,-2.766,-2.7625,-2.7625,-2.7625,-2.7625,-2.7625,-2.7625,-2.7245,-2.6901,-2.6632,-2.6258,-2.5914,-2.5644,-2.527,-2.5016,-2.5016,-2.5016,-2.5107,-2.5348,-2.5105,-2.5075,-2.5433,-2.5226,-2.5182,-2.5503,-2.554,-2.5297,-2.4736,-2.4712,-2.4855,-2.5182,-2.5742,-2.6013,-2.6013,-2.647,-2.6691,-2.6691,-2.6691,-2.6691,-0.4819,-0.7359,0.0,-1.3344,-1.4658,0.0,-1.8006,-1.7036,-1.6345,-1.8807,0.0,-1.7642,-1.9064,-1.8854,-1.8618,-1.9015,-1.8294,-1.7667,-1.7667,-1.6822,-1.6204,-1.6271,-1.6741,0.0,0.0,0.0,0.0,0.0,0.0,0.0,-1.8008,-1.8008,-1.8008,-1.8008,-1.8008,-1.8008,-1.8008,-1.8008,-1.8008,-1.8008,-1.8008,-1.8008,-1.8144,-1.9044,-1.9944,-2.091,-2.2433,-2.3078,-2.3078,-2.3078,-2.3078,-2.3198,-2.406,-2.4794,-2.5508,-2.6283,-2.7034,-2.7625,-2.7625,-2.7625,-2.7625,-2.7625,-2.7625,-2.7625,-2.7625,-2.7993,-2.8511,-2.8511,-2.8904,-2.9271,-2.8654,-2.8511,-2.8319,-2.776,-2.7625,-2.7625,-2.7625,-2.7625,-2.7625,-2.7625,-2.7625,-2.738,-2.6782,-2.6677,-2.6452,-2.5794,-2.5689,-2.5689,-2.5689,-2.5689,-2.5908,-2.6543,-2.6001,-2.5989,-2.6989,-2.6491,-2.6079,-2.6049,-2.6068,-2.5852,-2.5297,-2.5182,-2.5144,-2.5144,-2.5615,-2.5888,-2.5924,-2.6401,-2.6657,-2.6691,-2.6691,-2.6691,-0.5815,-0.8365,0.0,0.0,-1.5559,-1.6628,-1.7842,-1.72,-1.6971,-1.8904,-1.9064,-1.8879,-1.9268,-1.8341,-1.7504,-1.7668,-1.6606,-1.5753,-1.5753,-1.4888,-1.4598,-1.5394,-1.5543,-1.5919,0.0,0.0,0.0,0.0,0.0,0.0,-1.8008,-1.8008,-1.8008,-1.8008,-1.8008,-1.8008,-1.8008,-1.8008,-1.8008,0.0,-1.8008,-1.8327,-1.9044,-1.9944,-2.1164,-2.2555,-2.2944,-2.3078,-2.3078,-2.3078,-2.3078,-2.3245,-2.461,-2.5231,-2.5563,-2.6864,-2.7458,-2.7625,-2.7625,-2.7625,-2.7625,-2.7625,-2.7625,-2.7625,-2.7625,-2.7993,-2.8511,-2.8511,-2.8904,-2.9271,-2.8654,-2.8511,-2.8319,-2.776,-2.7625,-2.7625,-2.7625,-2.7625,-2.7625,-2.7625,-2.7625,-2.7565,-2.738,-2.7365,-2.7141,-2.6482,-2.6378,-2.6378,-2.6378,-2.6378,-2.6635,-2.724,-2.7146,-2.7056,-2.7087,-2.6953,-2.677,-2.6555,-2.6556,-2.6332,-2.5852,-2.5028,-2.4576,-2.4576,-2.4712,-2.4934,-2.5373,-2.5888,-2.6332,-2.6691,-2.6691,-2.6691,-0.7011,0.0,0.0,-1.5222,0.0,-1.7197,-1.8075,-1.7599,-1.7262,-1.8212,-1.8535,-1.8682,-1.8682,-1.7685,-1.6892,-1.6892,-1.5572,-1.4458,-1.4458,-1.3665,-1.3382,-1.4386,-1.4879,-1.5587,-1.6498,0.0,0.0,0.0,0.0,-1.8008,-1.8008,-1.8008,-1.8008,-1.8008,-1.8008,-1.8008,-1.8008,-1.8008,-1.8008,-1.8008,-1.8008,-1.8462,-1.9365,-2.0655,-2.1678,-2.2567,-2.2944,-2.3078,-2.3078,-2.3078,-2.3078,-2.3245,-2.4781,-2.5398,-2.5563,-2.7086,-2.7625,-2.7625,-2.7625,-2.7625,-2.7625,-2.7625,-2.7625,-2.7625,-2.7625,-2.8222,-2.8873,-2.8606,-2.9134,-2.9629,-2.8732,-2.8511,-2.8319,-2.776,-2.7625,-2.7625,-2.7625,-2.7625,-2.7625,-2.7625,-2.7625,-2.7625,-2.7625,-2.7625,-2.7455,-2.7111,-2.7066,-2.7066,-2.7066,-2.7066,-2.7413,-2.8308,-2.8099,-2.8046,-2.851,-2.7868,-2.7446,-2.7503,-2.7192,-2.6889,-2.664,-2.5845,-2.5102,-2.443,-2.4389,-2.4552,-2.4816,-2.5335,-2.5872,-2.6367,-2.6087,-2.6229,-0.7782,0.0,-1.286,-1.611,-1.7111,0.0,-1.8066,-1.77,-1.7275,-1.7275,-1.7607,-1.7833,-1.7678,-1.6954,-1.628,-1.614,-1.4728,-1.3673,-1.3455,-1.3091,-1.2997,-1.3526,-1.4704,-1.5677,-1.63,-1.7347,0.0,0.0,0.0,-1.8076,-1.8202,-1.8076,-1.8076,-1.8202,-1.8076,-1.8008,-1.8008,-1.8008,-1.8008,-1.8008,-1.8134,-1.8529,-1.911,-2.0946,-2.1794,-2.1939,-2.2763,-2.3078,-2.3065,-2.2977,-2.299,-2.3233,-2.466,-2.5301,-2.5563,-2.7086,-2.7625,-2.7625,-2.7625,-2.7625,-2.7625,-2.7625,-2.7625,-2.7625,-2.7625,-2.8352,-2.9134,-2.8654,-2.9271,-2.9892,-2.8779,-2.8511,-2.8319,-2.776,-2.7625,-2.7625,-2.7625,-2.7625,-2.7625,-2.7625,-2.7625,-2.7625,-2.7625,-2.7625,-2.7625,-2.7625,-2.7625,-2.7625,-2.7625,-2.7625,-2.8076,-2.9271,-2.8834,-2.8923,-2.9993,-2.8822,-2.8117,-2.8399,-2.7719,-2.7317,-2.7378,-2.6802,-2.5938,-2.4784,-2.4536,-2.443,-2.4552,-2.491,-2.5373,-2.5977,-2.5449,-2.5709,0.0,0.0,-1.4051,0.0,-1.6223,-1.6816,0.0,0.0,-1.6816,0.0,-1.7168,-1.7177,-1.6331,-1.5782,-1.5092,-1.4243,-1.3882,-1.3455,-1.2592,-1.381,-1.4419,-1.3294,-1.5105,-1.616,-1.5546,-1.7016,0.0,0.0,-1.7803,-1.8337,-1.911,-1.8395,-1.8337,-1.911,-1.8395,-1.8008,-1.8008,-1.8008,-1.8008,-1.8008,-1.8787,-1.8787,-1.8259,-2.0194,-2.1437,-2.1939,-2.2763,-2.3078,-2.3027,-2.2623,-2.2711,-2.3195,-2.4243,-2.4914,-2.5563,-2.7086,-2.7625,-2.7625,-2.7625,-2.7625,-2.7625,-2.7625,-2.7625,-2.7625,-2.7625,-2.8091,-2.8606,-2.8511,-2.9012,-2.9361,-2.8701,-2.8511,-2.8319,-2.776,-2.7625,-2.7625,-2.7625,-2.7625,-2.7625,-2.7625,-2.7625,-2.7625,-2.7625,-2.7625,-2.7625,-2.7625,-2.7625,-2.7625,-2.7625,-2.7625,-2.8076,-2.9271,-2.931,-2.9459,-3.0044,-2.933,-2.8696,-2.8434,-2.7719,-2.7457,-2.7811,-2.6963,-2.6421,-2.6217,-2.5026,-2.4632,-2.5105,-2.4712,-2.5028,-2.5977,-2.5449,-2.5524,-0.8089,-1.0946,-1.348,0.0,-1.58,-1.6176,-1.684,0.0,-1.6234,-1.5779,-1.5867,-1.5927,-1.5733,-1.505,-1.4287,-1.3408,-1.3207,-1.2998,-1.2586,-1.3677,-1.4435,-1.4338,-1.526,-1.5905,-1.6092,-1.6802,-1.7402,0.0,-1.809,-1.8726,-1.9553,-1.9479,-1.9431,-1.9299,-1.8921,-1.8462,-1.8008,-1.8008,-1.8008,-1.8008,-1.8395,-1.8275,-1.7713,-1.9514,-2.0458,-2.0715,-2.1783,-2.2209,-2.2196,-2.1945,-2.1995,-2.2382,-2.3892,-2.4678,-2.5131,-2.6938,-2.7625,-2.7625,-2.7625,-2.7625,-2.7625,-2.7625,-2.7625,-2.7625,-2.7625,-2.7993,-2.8415,-2.8091,-2.8415,-2.8779,-2.814,-2.7993,-2.7944,-2.766,-2.7625,-2.7625,-2.7625,-2.7625,-2.7625,-2.7625,-2.7625,-2.7625,-2.7625,-2.7625,-2.7625,-2.7625,-2.7625,-2.7625,-2.7625,-2.7625,-2.7944,-2.8779,-2.918,-2.9632,-3.0168,-2.9871,-2.9535,-2.9365,-2.8658,-2.8235,-2.8174,-2.7791,-2.7347,-2.6965,-2.557,-2.4831,-2.4752,-2.4831,-2.5105,-2.554,-2.5297,-2.5486,0.0,0.0,-1.2256,-1.4419,-1.4948,-1.5239,0.0,0.0,-1.5583,0.0,-1.4716,-1.4683,-1.4582,-1.4154,-1.3568,-1.2975,-1.2983,-1.3042,-1.2983,-1.3958,-1.4711,-1.5122,-1.546,-1.5843,-1.6354,-1.6602,-1.6984,-1.7573,-1.8103,-1.8856,-1.9844,-2.007,-1.9957,-1.9511,-1.9136,-1.8689,-1.8101,-1.8017,-1.7959,-1.7852,-1.7852,-1.776,-1.7521,-1.8811,-1.947,-1.9678,-2.0945,-2.1493,-2.1481,-2.1343,-2.1368,-2.1686,-2.3366,-2.4107,-2.4474,-2.6564,-2.7306,-2.7357,-2.7509,-2.7625,-2.7625,-2.7625,-2.7625,-2.7625,-2.7625,-2.7993,-2.8431,-2.7959,-2.814,-2.8383,-2.7959,-2.771,-2.7625,-2.7625,-2.7625,-2.7625,-2.7625,-2.7625,-2.7625,-2.7625,-2.7625,-2.7625,-2.7625,-2.7625,-2.7625,-2.7625,-2.7625,-2.7625,-2.7625,-2.7625,-2.781,-2.8431,-2.8919,-2.9496,-3.0251,-3.0049,-2.9972,-3.0199,-2.9634,-2.9123,-2.8737,-2.8709,-2.8362,-2.7572,-2.6353,-2.5416,-2.4831,-2.5067,-2.5259,-2.5411,-2.5259,-2.5486,0.0,-0.9441,0.0,-1.2077,-1.2988,0.0,0.0,0.0,0.0,-1.4346,-1.424,-1.3761,-1.2243,-1.2535,-1.2916,-1.2714,-1.3435,-1.3958,-1.3892,-1.5413,-1.6122,-1.489,-1.5829,-1.6334,-1.5557,-1.624,-1.6864,-1.7197,-1.7643,-1.8544,-2.0088,-1.9395,-1.9358,-2.0123,-1.8637,-1.8082,-1.8456,-1.8195,-1.7812,-1.7422,-1.7422,-1.7546,-1.7822,-1.8196,-1.8737,-1.9495,-2.0909,-2.1493,-2.1443,-2.097,-2.1016,-2.1605,-2.2402,-2.3002,-2.3725,-2.5774,-2.6563,-2.6669,-2.7357,-2.7625,-2.7625,-2.7625,-2.7625,-2.7625,-2.7625,-2.7993,-2.8511,-2.8463,-2.8463,-2.8511,-2.8463,-2.8042,-2.7625,-2.7625,-2.7625,-2.7625,-2.7625,-2.7625,-2.7625,-2.7625,-2.7625,-2.7625,-2.7625,-2.7625,-2.7625,-2.7625,-2.7625,-2.7625,-2.7625,-2.7625,-2.781,-2.8431,-2.8511,-2.8996,-3.0208,-2.9659,-2.9632,-3.0507,-3.0299,-2.9959,-2.9557,-2.9539,-2.916,-2.8342,-2.7584,-2.6757,-2.5924,-2.5411,-2.5449,-2.5961,-2.5449,-2.5486,0.0,0.0,0.0,-1.1475,-1.2246,-1.291,-1.3769,-1.417,-1.4263,-1.3877,-1.3427,-1.2966,-1.2655,-1.2789,-1.2775,-1.2195,-1.3263,-1.4135,-1.4073,-1.5135,-1.5701,-1.5238,-1.5542,-1.593,-1.6066,-1.6389,-1.7027,-1.8069,-1.8646,-1.9389,-2.049,-2.0572,-2.0469,-2.0226,-1.9632,-1.895,-1.8041,-1.7476,-1.7119,-1.6963,-1.7453,-1.7564,-1.7423,-1.8508,-1.899,-1.9012,-1.9982,-2.0413,-2.0388,-2.0188,-2.0225,-2.0545,-2.1668,-2.2419,-2.3165,-2.5232,-2.6217,-2.6616,-2.7357,-2.7625,-2.766,-2.8042,-2.8189,-2.8238,-2.8638,-2.8638,-2.8606,-2.8966,-2.8496,-2.7993,-2.8415,-2.8042,-2.7625,-2.7625,-2.7625,-2.7625,-2.7625,-2.7625,-2.7625,-2.7625,-2.7625,-2.7625,-2.7625,-2.7625,-2.7625,-2.7625,-2.7625,-2.7625,-2.7625,-2.7625,-2.766,-2.791,-2.8286,-2.8701,-2.9088,-2.9605,-2.9935,-3.0037,-3.03,-3.0302,-2.9947,-2.9472,-2.8947,-2.8416,-2.7701,-2.6967,-2.6319,-2.6195,-2.6104,-2.5997,-2.6104,-2.6104,-0.8105,0.0,0.0,0.0,0.0,-1.1694,-1.3174,0.0,-1.3432,-1.3405,-1.2919,-1.2596,-1.2537,-1.2755,-1.2898,-1.2647,-1.3476,-1.4264,-1.4569,-1.505,-1.541,-1.541,-1.5642,-1.5979,-1.6436,-1.6708,-1.7357,-1.8608,-1.9048,0.0,-2.0376,-2.0727,-2.0563,-1.9705,-1.9871,-1.9205,-1.7632,-1.7255,-1.7016,-1.6877,-1.7338,-1.762,-1.7739,-1.8742,-1.9102,-1.9097,-1.9579,-1.9798,-1.9798,-1.9798,-1.9798,-1.9913,-2.0978,-2.1642,-2.222,-2.4497,-2.5545,-2.5983,-2.7166,-2.7625,-2.7675,-2.8042,-2.8319,-2.8559,-2.8966,-2.9088,-2.915,-2.9361,-2.8996,-2.8496,-2.8511,-2.8042,-2.7625,-2.7625,-2.7625,-2.7625,-2.7625,-2.7625,-2.7625,-2.7625,-2.7625,-2.7625,-2.7625,-2.7625,-2.7625,-2.7625,-2.7625,-2.7625,-2.7625,-2.7357,-2.7255,-2.7255,-2.758,-2.7898,-2.8128,-2.9102,-2.9734,-2.9888,-3.0394,-3.0559,-3.0287,-2.9704,-2.9145,-2.8621,-2.7747,-2.7126,-2.677,-2.6707,-2.6556,-2.6227,-2.6539,-2.6367,0.0,0.0,0.0,0.0,0.0,0.0,-1.2832,0.0,-1.2311,-1.2806,-1.2887,-1.2668,-1.1894,-1.241,-1.3164,-1.4051,-1.4186,-1.4492,-1.5294,-1.541,-1.541,-1.541,-1.6036,-1.6549,-1.6549,-1.7191,-1.795,-1.8661,-1.8715,-1.9044,-1.9747,-1.9798,-1.9475,-1.8768,-1.9159,-1.8691,-1.728,-1.7601,-1.7591,-1.7221,-1.7221,-1.7763,-1.8715,-1.8715,-1.915,-1.9798,-1.9798,-1.9798,-1.9798,-1.9798,-1.9798,-1.9861,-2.0426,-2.0706,-2.0993,-2.35,-2.447,-2.4794,-2.6872,-2.761,-2.7625,-2.7625,-2.8042,-2.8511,-2.8511,-2.9361,-3.0166,-2.9585,-2.9805,-2.9935,-2.8779,-2.8042,-2.7625,-2.7625,-2.7625,-2.7625,-2.7625,-2.7625,-2.7625,-2.7625,-2.7625,-2.7625,-2.7625,-2.7575,-2.7575,-2.7625,-2.7575,-2.7575,-2.7625,-2.6982,-2.651,-2.651,-2.651,-2.6782,-2.736,-2.8079,-2.9012,-3.0208,-3.067,-3.0785,-3.0628,-3.0337,-2.9783,-2.9024,-2.7871,-2.7272,-2.7272,-2.6906,-2.6691,-2.6691,-2.6691,-2.6158,-0.9494,0.0,0.0,0.0,0.0,0.0,0.0,0.0,0.0,-1.2654,-1.2379,-1.2277,-1.3238,-1.3141,-1.3159,-1.3995,-1.4401,-1.483,-1.5313,-1.541,-1.5584,-1.6151,-1.6379,-1.6922,-1.8015,-1.8286,-1.8715,0.0,-1.9475,-1.9579,-1.9798,-1.9798,-1.9695,-1.9475,-1.9083,-1.8713,-1.8276,-1.7857,-1.7586,-1.7511,-1.8056,-1.8414,-1.8715,-1.9254,-1.9592,-1.9798,-1.9798,-1.9798,-1.9798,-1.9798,-1.9798,-1.9823,-1.9974,-2.03,-2.0904,-2.2566,-2.3751,-2.4738,-2.6306,-2.7171,-2.766,-2.8091,-2.8638,-2.9134,-2.9134,-2.9361,-2.9629,-2.9451,-2.8904,-2.8255,-2.7944,-2.771,-2.7625,-2.7625,-2.7625,-2.7625,-2.7625,-2.7625,-2.7625,-2.7625,-2.7625,-2.7625,-2.7625,-2.7152,-2.6982,-2.7524,-2.7152,-2.6982,-2.7509,-2.7408,-2.7306,-2.7306,-2.7306,-2.7342,-2.753,-2.8125,-2.8826,-2.9585,-3.0159,-3.063,-3.1006,-2.9947,-2.923,-2.9008,-2.7605,-2.6873,-2.6873,-2.6758,-2.6691,-2.6691,-2.6367,-2.5835,0.0,0.0,0.0,0.0,0.0,0.0,-1.1214,-1.1052,0.0,0.0,-1.2549,-1.2454,-1.3426,-1.3242,-1.3081,-1.3743,-1.4082,-1.4394,-1.4824,-1.4883,-1.5041,-1.5431,-1.5742,-1.6321,-1.7164,-1.7675,-1.8184,-1.8614,-1.8806,-1.9044,-1.9307,-1.9359,-1.9475,-1.9798,-1.9359,-1.898,-1.8715,-1.8274,-1.807,-1.8058,-1.8501,-1.8874,-1.915,-1.9579,-1.9798,-1.9798,-1.9798,-1.9798,-1.9798,-1.9798,-1.9798,-1.9798,-1.9798,-2.0012,-2.0536,-2.2106,-2.3156,-2.4026,-2.5923,-2.6841,-2.73,-2.7902,-2.8543,-2.9088,-2.9316,-2.9585,-2.9761,-2.9761,-2.8904,-2.8008,-2.8008,-2.781,-2.7625,-2.7625,-2.7357,-2.7137,-2.7137,-2.6916,-2.6864,-2.7458,-2.7357,-2.7137,-2.7137,-2.6549,-2.6283,-2.7034,-2.6774,-2.6774,-2.7524,-2.7357,-2.7137,-2.7137,-2.7137,-2.7137,-2.7137,-2.7745,-2.8511,-2.9361,-2.9717,-3.0293,-3.1151,-3.0074,-2.9296,-2.9028,-2.7791,-2.7012,-2.6691,-2.6691,-2.659,-2.6401,-2.612,-2.5577,-1.4006,-1.3818,0.0,0.0,-1.2153,0.0,-1.2574,-1.161,-1.0909,0.0,-1.2694,-1.2683,-1.2758,-1.2704,-1.2851,-1.3263,-1.3431,-1.3586,-1.4062,-1.4077,-1.4131,-1.4237,-1.4778,-1.5236,-1.5339,-1.631,-1.6942,-1.6942,-1.7283,-1.7759,-1.846,-1.8578,-1.8931,-1.9643,-1.9747,-1.9475,-1.8821,-1.8821,-1.8821,-1.8821,-1.8821,-1.915,-1.9798,-1.9798,-1.9798,-1.9798,-1.9798,-1.9798,-1.9798,-1.9798,-1.9798,-1.9798,-1.9798,-1.9798,-2.0003,-2.1803,-2.2545,-2.295,-2.5336,-2.6262,-2.6475,-2.7106,-2.7762,-2.8482,-2.8932,-2.9609,-3.0208,-3.0123,-2.9316,-2.8463,-2.8415,-2.7993,-2.7625,-2.7625,-2.71,-2.6616,-2.651,-2.596,-2.5892,-2.7137,-2.6826,-2.6404,-2.6404,-2.5783,-2.5563,-2.6404,-2.6457,-2.6654,-2.7509,-2.7034,-2.6616,-2.6616,-2.6616,-2.6616,-2.6616,-2.7203,-2.8076,-2.9225,-2.9316,-2.9848,-3.1055,-3.0403,-2.9711,-2.911,-2.8264,-2.7452,-2.6691,-2.6691,-2.647,-2.6013,-2.5924,-2.5373,-1.7356,-1.7282,-1.7052,-1.5352,0.0,0.0,-1.2033,-1.13,-1.0996,0.0,-1.0925,-1.0971,-1.1634,-1.1502,-1.1555,-1.2423,-1.2882,-1.3399,-1.4027,-1.4077,-1.4334,-1.4935,-1.5133,-1.5442,-1.6087,-1.6379,-1.6548,-1.6548,-1.6588,-1.6854,-1.7292,-1.789,-1.8454,-1.8915,-1.9475,-1.9747,-1.9592,-1.9592,-1.9592,-1.9592,-1.9592,-1.9643,-1.9798,-1.9798,-1.9798,-1.9798,-1.9798,-1.9798,-1.9798,-1.9798,-1.9798,-1.9798,-1.9798,-1.9798,-1.9914,-2.0814,-2.1496,-2.214,-2.3125,-2.4189,-2.5092,-2.5209,-2.6369,-2.7612,-2.7267,-2.8279,-2.9496,-2.9012,-2.8701,-2.8367,-2.791,-2.766,-2.7625,-2.7625,-2.7509,-2.7203,-2.6616,-2.6404,-2.6176,-2.5892,-2.5728,-2.5618,-2.5618,-2.5007,-2.4951,-2.6283,-2.6014,-2.6108,-2.7408,-2.7458,-2.7408,-2.7408,-2.7408,-2.7408,-2.7408,-2.7524,-2.7894,-2.8654,-2.8701,-2.9225,-3.0435,-2.9781,-2.9549,-2.9888,-2.8535,-2.7452,-2.6691,-2.6691,-2.647,-2.5997,-2.5577,-2.5012,-1.9825,-1.9821,-1.9734,-1.8017,0.0,0.0,0.0,-1.2897,-1.1973,-1.262,-1.1934,-1.1531,-1.2505,-1.2278,-1.2194,-1.2958,-1.3564,-1.3903,-1.4014,-1.399,-1.3983,-1.4033,-1.4322,-1.456,-1.4641,-1.5131,-1.5358,-1.5247,-1.5268,-1.5519,-1.6057,-1.6472,-1.7048,-1.7993,-1.8359,-1.8685,-1.9007,-1.9007,-1.9145,-1.9409,-1.9409,-1.9547,-1.9798,-1.9798,-1.9798,-1.9798,-1.9798,-1.9798,-1.9798,-1.9798,-1.9798,-1.9798,-1.9798,-1.9798,-1.9901,-2.0547,-2.103,-2.1422,-2.2341,-2.3154,-2.3759,-2.412,-2.5048,-2.6159,-2.6441,-2.7891,-2.9271,-2.8685,-2.8511,-2.8383,-2.776,-2.7625,-2.7625,-2.7625,-2.7306,-2.693,-2.6563,-2.6229,-2.5728,-2.5007,-2.4851,-2.4851,-2.4851,-2.4221,-2.4221,-2.5728,-2.5618,-2.5932,-2.7408,-2.7625,-2.7625,-2.7625,-2.7625,-2.7625,-2.7625,-2.7625,-2.786,-2.8463,-2.8511,-2.8919,-2.9805,-2.9507,-2.9114,-2.8695,-2.7569,-2.6648,-2.5928,-2.5928,-2.5835,-2.5577,-2.5067,-2.4496,0.0,0.0,0.0,0.0,0.0,-1.7636,0.0,0.0,0.0,-1.4277,-1.3331,0.0,0.0,0.0,0.0,0.0,0.0,0.0,0.0,-1.3795,0.0,-1.2987,-1.3543,-1.3747,-1.3175,-1.3714,-1.4086,-1.4046,-1.3834,-1.4092,-1.4986,-1.5047,-1.5701,-1.7034,-1.723,-1.7593,-1.8204,-1.8204,-1.843,-1.8869,-1.8933,-1.9246,-1.966,-1.9761,-1.9798,-1.9798,-1.9643,-1.9579,-1.9579,-1.9579,-1.9527,-1.9423,-1.9695,-1.9798,-1.985,-2.0396,-2.0597,-2.0762,-2.1763,-2.2223,-2.2405,-2.3,-2.3737,-2.4752,-2.5938,-2.752,-2.8754,-2.8404,-2.831,-2.8198,-2.773,-2.7625,-2.7625,-2.7625,-2.7152,-2.6669,-2.651,-2.6014,-2.5398,-2.4681,-2.4509,-2.4408,-2.4118,-2.3662,-2.3813,-2.5175,-2.5508,-2.6108,-2.7408,-2.7625,-2.7625,-2.7625,-2.7625,-2.7625,-2.7625,-2.7625,-2.781,-2.8286,-2.8334,-2.8606,-2.918,-2.9316,-2.875,-2.7326,-2.6709,-2.6007,-2.5221,-2.5105,-2.5067,-2.5028,-2.4576,-2.4116,0.0,0.0,0.0,0.0,-2.1026,0.0,0.0,0.0,-1.4579,-1.3434,0.0,0.0,0.0,0.0,0.0,0.0,0.0,0.0,-1.3275,-1.3621,-1.3742,-1.3094,-1.3939,-1.4394,-1.3828,-1.3389,-1.3368,-1.3815,-1.2919,-1.2935,-1.4411,-1.4574,-1.5174,-1.6266,-1.6985,-1.7593,-1.8204,-1.8204,-1.8242,-1.8304,-1.8745,-1.9008,-1.9133,-1.9597,-1.9798,-1.9747,-1.9097,-1.8821,-1.8821,-1.8821,-1.8447,-1.795,-1.9307,-1.9798,-1.9798,-1.9901,-1.9901,-1.9914,-2.0067,-2.055,-2.105,-2.1116,-2.2367,-2.4036,-2.5329,-2.6244,-2.6925,-2.7457,-2.7612,-2.7628,-2.7595,-2.7625,-2.7625,-2.7625,-2.7524,-2.7306,-2.6616,-2.6457,-2.6176,-2.5398,-2.5287,-2.4838,-2.3471,-2.3767,-2.4452,-2.5287,-2.596,-2.6654,-2.7509,-2.7625,-2.7625,-2.7625,-2.7625,-2.7625,-2.7625,-2.7625,-2.7625,-2.771,-2.771,-2.7944,-2.8559,-2.9134,-2.875,-2.7326,-2.7214,-2.651,-2.5221,-2.4712,-2.4511,-2.4511,-2.443,-2.4116,0.0,0.0,0.0,0.0,0.0,0.0,-1.8361,0.0,-1.5148,0.0,0.0,0.0,0.0,0.0,0.0,0.0,-1.4222,0.0,0.0,0.0,-1.3787,0.0,0.0,0.0,-1.4378,-1.3552,-1.3367,-1.4264,-1.327,-1.3052,-1.3989,-1.411,-1.4484,-1.5314,-1.5658,-1.6265,-1.718,-1.7225,-1.7388,-1.7727,-1.7965,-1.8242,-1.8568,-1.9108,-1.9359,-1.9321,-1.8871,-1.8715,-1.8661,-1.8232,-1.7907,-1.7688,-1.8274,-1.8768,-1.9202,-1.9631,-1.9798,-1.9798,-1.9798,-2.0003,-2.0295,-2.0646,-2.186,-2.3291,-2.4203,-2.5179,-2.6123,-2.6792,-2.6974,-2.7094,-2.7495,-2.7625,-2.7625,-2.7625,-2.7625,-2.7524,-2.7203,-2.7137,-2.693,-2.6176,-2.6068,-2.5728,-2.461,-2.4724,-2.5175,-2.596,-2.6283,-2.6774,-2.7524,-2.7625,-2.7625,-2.7625,-2.7625,-2.7625,-2.7625,-2.7203,-2.693,-2.693,-2.6549,-2.664,-2.7312,-2.7585,-2.7476,-2.6888,-2.6533,-2.5854,-2.4841,-2.4231,-2.3964,-2.3964,-2.3964,-2.3837,-2.4828,0.0,0.0,0.0,0.0,0.0,0.0,0.0,0.0,0.0,0.0,0.0,0.0,0.0,0.0,0.0,0.0,0.0,0.0,0.0,0.0,0.0,0.0,0.0,0.0,-1.3518,-1.3385,-1.463,0.0,-1.3228,-1.4253,-1.4143,-1.4329,-1.4926,-1.4971,-1.5466,-1.6479,-1.6522,-1.6722,-1.7149,-1.73,-1.7589,-1.8003,-1.8555,-1.8807,-1.8783,-1.8339,-1.8183,-1.813,-1.7522,-1.7191,-1.7024,-1.7468,-1.7961,-1.8501,-1.9202,-1.9643,-1.9798,-1.9798,-1.9798,-1.9901,-2.0346,-2.1272,-2.2254,-2.274,-2.3655,-2.4728,-2.5516,-2.5751,-2.5991,-2.6762,-2.7019,-2.7019,-2.7019,-2.7137,-2.7306,-2.7306,-2.7473,-2.7458,-2.693,-2.6826,-2.6602,-2.6108,-2.5837,-2.5892,-2.6404,-2.6669,-2.6982,-2.7524,-2.7625,-2.7625,-2.7625,-2.7625,-2.7625,-2.7625,-2.71,-2.6721,-2.651,-2.5783,-2.5618,-2.6176,-2.6404,-2.6416,-2.6278,-2.5848,-2.5285,-2.4582,-2.3939,-2.3595,-2.3595,-2.3595,-2.3595,0.0,0.0,0.0,-2.3026,0.0,0.0,0.0,0.0,-1.7247,0.0,0.0,0.0,0.0,0.0,0.0,0.0,0.0,0.0,0.0,0.0,0.0,0.0,0.0,0.0,0.0,-1.3033,-1.3067,0.0,-1.327,-1.327,-1.5425,-1.5005,-1.4971,-1.5543,-1.5588,-1.5864,-1.6466,-1.6522,-1.6522,-1.6559,-1.7112,-1.7388,-1.7426,-1.7978,-1.8229,-1.8159,-1.7231,-1.6874,-1.6855,-1.6629,-1.6083,-1.5633,-1.7024,-1.7633,-1.7743,-1.8436,-1.9202,-1.9798,-1.9798,-1.9798,-1.9798,-1.985,-2.0308,-2.0871,-2.0871,-2.1348,-2.2062,-2.3322,-2.3682,-2.3958,-2.5149,-2.5453,-2.5453,-2.5453,-2.6014,-2.6563,-2.6563,-2.71,-2.7575,-2.7575,-2.756,-2.7575,-2.7509,-2.693,-2.6457,-2.651,-2.71,-2.7575,-2.7625,-2.7625,-2.7625,-2.7625,-2.7625,-2.7625,-2.7625,-2.7575,-2.7255,-2.6563,-2.5783,-2.5398,-2.5453,-2.6122,-2.6208,-2.5531,-2.5579,-2.5285,-2.4582,-2.3939,-2.3595,-2.3595,-2.3595,-2.3595,0.0,0.0,-2.4945,-2.3851,0.0,0.0,0.0,0.0,0.0,0.0,0.0,0.0,0.0,0.0,0.0,0.0,0.0,0.0,0.0,0.0,0.0,0.0,0.0,0.0,0.0,0.0,0.0,0.0,-1.4125,0.0,-1.5536,-1.541,-1.541,-1.5588,-1.5588,-1.5908,-1.6466,-1.6522,-1.6522,-1.6522,-1.6722,-1.681,-1.6823,-1.74,-1.7664,-1.7643,-1.6761,-1.6551,-1.6758,-1.5749,-1.5385,-1.5468,-1.5968,-1.6415,-1.7034,-1.8232,-1.915,-1.9798,-1.9798,-1.9798,-1.9798,-1.9798,-2.0245,-2.0795,-2.0795,-2.1493,-2.2462,-2.3354,-2.3879,-2.4348,-2.5191,-2.5398,-2.5398,-2.5398,-2.596,-2.651,-2.651,-2.7086,-2.7625,-2.7625,-2.7625,-2.7625,-2.7625,-2.7408,-2.7255,-2.7255,-2.7458,-2.7408,-2.693,-2.7306,-2.7408,-2.693,-2.7306,-2.7625,-2.7625,-2.7152,-2.6336,-2.5119,-2.4794,-2.4681,-2.4681,-2.4894,-2.5411,-2.6127,-2.5749,-2.5452,-2.527,-2.4612,-2.4044,-2.3595,-2.3595,-2.3595,-2.5383,-2.5301,0.0,-2.4284,-2.3374,0.0,-2.0119,0.0,0.0,0.0,0.0,0.0,0.0,0.0,0.0,0.0,0.0,0.0,0.0,-1.2729,0.0,0.0,0.0,0.0,0.0,0.0,-1.3596,-1.5032,-1.4423,0.0,0.0,-1.5811,-1.5908,-1.5908,-1.5908,-1.6095,-1.6522,-1.6522,-1.6522,-1.6522,-1.6522,-1.6522,-1.6522,-1.6911,-1.7074,-1.7055,-1.6491,-1.635,-1.6439,-1.5522,-1.5256,-1.541,-1.57,-1.6255,-1.7034,-1.7961,-1.8927,-1.9798,-1.9798,-1.9798,-1.9798,-1.9798,-2.0105,-2.0446,-2.0446,-2.0996,-2.18,-2.263,-2.3111,-2.358,-2.4396,-2.461,-2.461,-2.461,-2.5175,-2.5783,-2.6068,-2.6707,-2.7306,-2.7575,-2.7625,-2.7625,-2.7625,-2.7625,-2.7625,-2.7625,-2.7357,-2.7034,-2.6563,-2.6707,-2.6654,-2.6176,-2.6549,-2.6916,-2.7203,-2.6549,-2.5837,-2.5119,-2.4851,-2.4567,-2.4292,-2.4567,-2.5007,-2.5673,-2.5311,-2.5149,-2.5191,-2.4543,-2.3985,-2.3595,-2.3595,-2.3595]},{"header":{"parameterUnit":"m.s-1","parameterCategory":1,"la1":30.6,"la2":29.2853,"lo1":-89.7004,"lo2":-87.6739,"dy":0.0162,"dx":0.0183,"nx":112,"ny":82,"refTime":"2024-07-26T12:00:00:Z","depth":0,"parameterNumber":3,"parameterNumberName":"V-component_of_WINDS"},"data":[0.0,0.0,0.0,0.0,0.0,0.0,0.0,0.0,0.0,0.0,0.0,0.0,0.0,0.0,0.0,0.0,0.0,0.0,0.0,0.0,0.0,0.0,0.0,0.0,0.0,0.0,0.0,0.0,0.0,0.0,0.0,0.0,0.0,0.0,0.0,0.0,0.0,0.0,0.0,0.0,0.0,0.0,0.0,0.0,0.0,0.0,0.0,0.0,0.0,0.0,0.0,0.0,0.0,0.0,0.0,0.0,0.0,0.0,0.0,0.0,0.0,0.0,0.0,0.0,0.0,0.0,0.0,0.0,0.0,0.0,0.0,0.0,0.0,0.0,0.0,0.0,0.0,0.0,0.0,0.0,0.0,0.0,0.0,0.0,0.0,0.0,0.0,0.0,0.0,0.0,1.3155,1.5228,1.7487,1.8225,1.6658,1.6666,1.5477,1.2424,0.0,0.0,0.0,0.0,0.0,0.0,0.0,0.0,0.0,0.0,0.0,0.0,0.0,0.0,0.0,0.0,0.0,0.0,0.0,0.0,0.0,0.0,0.0,0.0,0.0,0.0,0.0,0.0,0.0,0.0,0.0,0.0,0.0,0.0,0.0,0.0,0.0,0.0,0.0,0.0,0.0,0.0,0.0,0.0,0.0,0.0,0.0,0.0,0.0,0.0,0.0,0.0,0.0,0.0,0.0,0.0,0.0,0.0,0.0,0.0,0.0,0.0,0.0,0.0,0.0,0.0,0.0,0.0,0.0,0.0,0.0,0.0,0.0,0.0,0.0,0.0,0.0,0.0,0.0,0.0,0.0,0.0,0.0,0.0,0.0,0.0,0.0,0.0,0.0,0.0,0.0,0.0,0.0,0.0,0.0,0.0,0.0,0.0,0.0,0.0,0.0,0.0,0.0,0.0,1.2873,1.5837,1.7839,1.8364,1.6798,1.6947,1.5762,1.2558,0.0,0.0,0.0,0.0,0.0,0.0,0.0,0.0,0.0,0.0,0.0,0.0,0.0,0.0,0.0,0.0,0.0,0.0,0.0,0.0,0.0,0.0,0.0,0.0,0.0,0.0,0.0,0.0,0.0,0.0,0.0,0.0,0.0,0.0,0.0,0.0,0.0,0.0,0.0,0.0,0.0,0.0,0.0,0.0,0.0,0.0,0.0,0.0,0.0,0.0,0.0,0.0,0.0,0.0,0.0,0.0,0.0,0.0,0.0,0.0,0.0,0.0,0.0,0.0,0.0,0.0,0.0,0.0,0.0,0.0,0.0,0.0,0.0,0.0,0.0,0.0,0.0,0.0,0.0,0.0,0.0,0.0,0.0,0.0,0.0,0.0,0.0,0.0,0.0,0.0,0.0,0.0,0.0,0.0,0.0,0.0,0.0,0.0,0.0,0.0,0.0,0.0,0.0,1.2498,1.3569,1.5854,1.6884,1.7041,1.6139,1.6252,1.5262,1.2573,1.2373,0.0,0.0,0.0,0.0,0.0,0.0,0.0,0.0,0.0,0.0,0.0,0.0,0.0,0.0,0.0,0.0,0.0,0.0,0.0,0.0,0.0,0.0,0.0,0.0,0.0,0.0,0.0,0.0,0.0,0.0,0.0,0.0,0.0,0.0,0.0,0.0,0.0,0.0,0.0,0.0,0.0,0.0,0.0,0.0,0.0,0.0,0.0,0.0,0.0,0.0,0.0,0.0,0.0,0.0,0.0,0.0,0.0,0.0,0.0,0.0,0.0,0.0,0.0,0.0,0.0,0.0,0.0,0.0,0.0,0.0,0.0,0.0,0.0,0.0,0.0,0.0,0.0,0.0,0.0,0.0,0.0,0.0,0.0,0.0,0.0,0.0,0.0,0.0,0.0,0.0,0.0,0.0,0.0,0.0,0.0,0.0,0.0,0.0,0.0,0.0,0.0,0.0,1.3686,1.4411,1.5626,1.6054,1.607,1.564,1.5535,1.4635,1.2577,1.2076,0.0,0.0,0.0,0.0,0.0,0.0,0.0,0.0,0.0,0.0,0.0,0.0,0.0,0.0,0.0,0.0,0.0,0.0,0.0,0.0,0.0,0.0,0.0,0.0,0.0,0.0,0.0,0.0,0.0,0.0,0.0,0.0,0.0,0.0,0.0,0.0,0.0,0.0,0.0,0.0,0.0,0.0,0.0,0.0,0.0,0.0,0.0,0.0,0.0,0.0,0.0,0.0,0.0,0.0,0.0,0.0,0.0,0.0,0.0,0.0,0.0,0.0,0.0,0.0,0.0,0.0,0.0,0.0,0.0,0.0,0.0,0.0,0.0,0.0,0.0,0.0,0.0,0.0,0.0,0.0,0.0,0.0,0.0,0.0,0.0,0.0,0.0,0.0,0.0,0.0,0.0,0.0,0.0,0.0,0.0,0.0,0.0,0.0,0.0,0.0,0.0,0.0,1.3708,1.5,1.5306,1.6127,1.645,1.5914,1.5315,1.4277,1.2694,1.1127,0.0,0.0,0.0,0.0,0.0,0.0,0.0,0.0,0.0,0.0,0.0,0.0,0.0,0.0,0.0,0.0,0.0,0.0,0.0,0.0,0.0,0.0,0.0,0.0,0.0,0.0,0.0,0.0,0.0,0.0,0.0,0.0,0.0,0.0,0.0,0.0,0.0,0.0,0.0,0.0,0.0,0.0,0.0,0.0,0.0,0.0,0.0,0.0,0.0,0.0,0.0,0.0,0.0,0.0,0.0,0.0,0.0,0.0,0.0,0.0,0.0,0.0,0.0,0.0,0.0,0.0,0.0,0.0,0.0,0.0,0.0,0.0,0.0,0.0,0.0,0.0,0.0,0.0,0.0,0.0,0.0,0.0,0.0,0.0,0.0,0.0,0.0,0.0,0.0,0.0,0.0,0.0,0.0,0.0,0.0,0.0,0.0,0.0,0.0,0.0,0.0,0.0,1.3178,1.4221,0.0,1.5242,1.5485,1.5409,1.4744,1.3823,1.262,0.0,0.0,0.0,0.0,0.0,0.0,0.0,0.0,0.0,0.0,0.0,0.0,0.0,0.0,0.0,0.0,0.0,0.0,0.0,0.0,0.0,0.0,0.0,0.0,0.0,0.0,0.0,0.0,0.0,0.0,0.0,0.0,0.0,0.0,0.0,0.0,0.0,0.0,0.0,0.0,0.0,0.0,0.0,0.0,0.0,0.0,0.0,0.0,0.0,0.0,0.0,0.0,0.0,0.0,0.0,0.0,0.0,0.0,0.0,0.0,0.0,0.0,0.0,0.0,0.0,0.0,0.0,0.0,0.0,0.0,0.0,0.0,0.0,0.0,0.0,0.0,0.0,0.0,0.0,0.0,0.0,0.0,0.0,0.0,0.0,0.0,0.0,0.0,0.0,0.0,0.0,0.0,0.0,0.0,0.0,0.0,0.0,0.0,0.0,0.0,0.0,0.0,1.2185,1.3192,1.4103,0.0,1.485,1.4976,1.5153,1.4187,1.326,1.2577,0.0,0.0,0.0,0.0,0.0,0.0,0.0,0.0,0.0,0.0,0.0,0.0,0.0,0.0,0.0,0.0,0.0,0.0,0.0,0.0,0.0,0.0,0.0,0.0,0.0,0.0,0.0,0.0,0.0,0.0,0.0,0.0,0.0,0.0,0.0,0.0,0.0,0.0,0.0,0.0,0.0,0.0,0.0,0.0,0.0,0.0,0.0,0.0,0.0,0.0,0.0,0.0,0.0,0.0,0.0,0.0,0.0,0.0,0.0,0.0,0.0,0.0,0.0,0.0,0.0,0.0,0.0,0.0,0.0,0.0,0.0,0.0,0.0,0.0,0.0,0.0,0.0,0.0,0.0,0.0,0.0,0.0,0.0,0.0,0.0,0.0,0.0,0.0,0.0,0.0,0.0,0.0,0.0,0.0,0.0,0.0,0.0,0.0,0.0,0.0,0.0,0.0,1.2503,1.3914,1.4957,1.5083,1.5101,1.5164,1.529,1.3639,1.261,0.0,0.0,0.0,0.0,0.0,0.0,0.0,0.0,0.0,0.0,0.0,0.0,0.0,0.0,0.0,0.0,0.0,0.0,0.0,0.0,0.0,0.0,0.0,0.0,0.0,0.0,0.0,0.0,0.0,0.0,0.0,0.0,0.0,0.0,0.0,0.0,0.0,0.0,0.0,0.0,0.0,0.0,0.0,0.0,0.0,0.0,0.0,0.0,0.0,0.0,0.0,0.0,0.0,0.0,0.0,0.0,0.0,0.0,0.0,0.0,0.0,0.0,0.0,0.0,0.0,0.0,0.0,0.0,0.0,0.0,0.0,0.0,0.0,0.0,0.0,0.0,0.0,0.0,0.0,0.0,0.0,0.0,0.0,0.0,0.0,0.0,0.0,0.0,0.0,0.0,0.0,0.0,0.0,0.0,0.0,0.0,0.0,0.0,0.0,0.0,0.0,0.0,0.0,1.2631,1.4125,1.5221,1.5299,1.5263,1.5273,1.5369,1.3747,1.2703,1.261,0.0,0.0,0.0,0.0,0.0,0.0,0.0,0.0,0.0,0.0,0.0,0.0,0.0,0.0,0.0,0.0,0.0,0.0,0.0,0.0,0.0,0.0,0.0,0.0,0.0,0.0,0.0,0.0,0.0,0.0,0.0,0.0,0.0,0.0,0.0,0.0,0.0,0.0,0.0,0.0,0.0,0.0,0.0,0.0,0.0,0.0,0.0,0.0,0.0,0.0,0.0,0.0,0.0,0.0,0.0,0.0,0.0,0.0,0.0,0.0,0.0,0.0,0.0,0.0,0.0,0.0,0.0,0.0,0.0,0.0,0.0,0.0,0.0,0.0,0.0,0.0,0.0,0.0,0.0,0.0,0.0,0.0,0.0,0.0,0.0,0.0,0.0,0.0,0.0,0.0,0.0,0.0,0.0,0.0,0.0,0.0,0.0,0.0,0.0,0.0,0.0,0.0,1.2733,1.4247,1.5315,1.5369,1.535,1.5351,1.5366,1.412,1.3141,1.271,0.0,0.0,0.0,0.0,0.0,0.0,0.0,0.0,0.0,0.0,0.0,0.0,0.0,0.0,0.0,0.0,0.0,0.0,0.0,0.0,0.0,0.0,0.0,0.0,0.0,0.0,0.0,0.0,0.0,0.0,0.0,0.0,0.0,0.0,0.0,0.0,0.0,0.0,0.0,0.0,0.0,0.0,0.0,0.0,0.0,0.0,0.0,0.0,0.0,0.0,0.0,0.0,0.0,0.0,0.0,0.0,0.0,0.0,0.0,0.0,0.0,0.0,0.0,0.0,0.0,0.0,0.0,0.0,0.0,0.0,0.0,0.0,0.0,0.0,0.0,0.0,0.0,0.0,0.0,0.0,0.0,0.0,0.0,0.0,0.0,0.0,0.0,0.0,0.0,0.0,0.0,0.0,0.0,0.0,0.0,0.0,0.0,0.0,0.0,0.0,0.0,0.0,1.29,1.4377,1.5418,1.5416,1.5488,1.5469,1.5329,1.4562,1.3769,1.2966,0.0,0.0,0.0,0.0,0.0,0.0,0.0,0.0,0.0,0.0,0.0,0.0,0.0,0.0,0.0,0.0,0.0,0.0,0.0,0.0,0.0,0.0,0.0,0.0,0.0,0.0,0.0,0.0,0.0,0.0,0.0,0.0,0.0,0.0,0.0,0.0,0.0,0.0,0.0,0.0,0.0,0.0,0.0,0.0,0.0,0.0,0.0,0.0,0.0,0.0,0.0,0.0,0.0,0.0,0.0,0.0,0.0,0.0,0.0,0.0,1.4036,0.0,0.0,0.0,0.0,0.0,0.0,0.0,0.0,0.0,0.0,0.0,0.0,0.0,0.0,0.0,0.0,0.0,0.0,0.0,0.0,0.0,0.0,0.0,0.0,0.0,0.0,0.0,0.0,0.0,0.0,0.0,0.0,0.0,0.0,0.0,0.0,0.0,0.0,0.0,0.0,0.0,1.3645,1.5208,1.6256,1.6314,1.6342,1.6081,1.5426,1.4547,1.3964,1.3821,1.1539,0.0,0.0,0.0,0.0,0.0,0.0,0.0,0.0,0.0,0.0,0.0,0.0,0.0,0.0,0.0,0.0,0.0,0.0,0.0,0.0,0.0,0.0,0.0,0.0,0.0,0.0,0.0,0.0,0.0,0.0,0.0,0.0,0.0,0.0,0.0,0.0,0.0,0.0,0.0,0.0,0.0,0.0,0.0,0.0,0.0,0.0,0.0,0.0,0.0,0.0,0.0,0.0,0.0,0.0,0.0,0.0,0.0,0.0,0.0,0.0,1.5358,0.0,0.0,0.0,0.0,0.0,0.0,0.0,0.0,0.0,0.0,0.0,0.0,0.0,0.0,0.0,0.0,0.0,0.0,0.0,0.0,0.0,0.0,0.0,0.0,0.0,0.0,0.0,0.0,0.0,0.0,0.0,0.0,0.0,0.0,0.0,0.0,0.0,0.0,0.0,0.0,1.382,1.542,1.6483,1.6538,1.6573,1.6266,1.5416,1.493,1.4512,1.4126,1.2838,0.0,0.0,0.0,0.0,0.0,0.0,0.0,0.0,0.0,0.0,0.0,0.0,0.0,0.0,0.0,0.0,0.0,0.0,0.0,0.0,0.0,0.0,0.0,0.0,0.0,0.0,0.0,0.0,0.0,0.0,0.0,0.0,0.0,0.0,0.0,0.0,0.0,0.0,0.0,0.0,0.0,0.0,0.0,0.0,0.0,0.0,0.0,0.0,0.0,0.0,0.0,0.0,0.0,2.0985,2.1331,2.1169,2.1169,2.1359,2.1582,1.9511,1.8343,1.7757,1.6117,0.0,0.0,0.0,0.0,0.0,0.0,0.0,0.0,0.0,0.0,0.0,0.0,0.0,0.0,0.0,0.0,0.0,0.0,0.0,0.0,0.0,0.0,0.0,0.0,1.6754,1.6964,0.0,0.0,0.0,0.0,0.0,0.0,0.0,0.0,0.0,0.0,0.0,0.0,1.408,1.5692,1.6783,1.6897,1.6973,1.6604,1.5595,1.5553,1.521,1.4365,1.4162,1.3126,0.0,0.0,0.0,0.0,0.0,0.0,0.0,0.0,0.0,0.0,0.0,0.0,0.0,0.0,0.0,0.0,0.0,0.0,0.0,0.0,0.0,0.0,0.0,0.0,0.0,0.0,0.0,0.0,0.0,0.0,0.0,0.0,1.5148,1.6043,0.0,0.0,0.0,0.0,0.0,0.0,0.0,0.0,0.0,0.0,0.0,0.0,0.0,2.2081,2.2128,2.4497,2.528,2.4485,2.5351,2.537,2.463,2.463,2.4579,2.446,2.4004,0.0,2.0131,1.8565,0.0,0.0,0.0,0.0,0.0,0.0,0.0,0.0,0.0,0.0,0.0,0.0,0.0,0.0,0.0,0.0,0.0,0.0,0.0,0.0,0.0,0.0,1.9362,1.9331,1.9484,1.9331,0.0,1.6228,1.4297,1.3365,1.326,0.0,0.0,0.0,0.0,0.0,0.0,0.0,1.5401,1.7063,1.8232,1.8465,1.8601,1.8056,1.6484,1.6353,1.6005,1.5195,1.4432,1.3885,1.3596,1.297,0.0,0.0,0.0,0.0,0.0,0.0,0.0,0.0,0.0,0.0,0.0,0.0,0.0,0.0,0.0,0.0,0.0,0.0,0.0,0.0,0.0,0.0,0.0,0.0,0.0,0.0,0.0,0.0,0.0,1.533,1.7407,1.9216,1.9107,1.8721,0.0,0.0,0.0,0.0,0.0,0.0,0.0,0.0,0.0,2.3006,2.408,2.4905,2.5444,2.6573,2.702,2.6774,2.714,2.7121,2.6736,2.6255,2.5932,2.5704,2.5165,2.4185,2.2876,2.11,2.0039,1.9343,0.0,0.0,0.0,0.0,1.7442,1.8013,1.892,1.9045,0.0,1.8741,0.0,0.0,0.0,0.0,0.0,0.0,0.0,0.0,0.0,0.0,2.0237,2.0594,2.0991,2.1092,2.0348,1.9212,1.7686,0.0,1.509,1.4607,1.2873,0.0,0.0,0.0,0.0,1.4541,1.5706,1.7201,1.8242,1.8441,1.8619,1.8239,1.7049,1.6596,1.6247,1.5882,1.5156,1.4523,1.4059,1.3719,1.2946,0.0,0.0,0.0,0.0,0.0,0.0,0.0,0.0,0.0,0.0,0.0,0.0,0.0,0.0,0.0,0.0,0.0,0.0,0.0,0.0,0.0,0.0,0.0,0.0,0.0,0.0,0.0,0.0,1.7786,1.9926,2.2076,2.2522,2.2314,0.0,0.0,0.0,0.0,0.0,0.0,2.3599,2.3765,2.4621,2.6398,2.655,2.6982,2.7723,2.7951,2.8088,2.8123,2.8123,2.8049,2.7871,2.7236,2.6814,2.6581,2.5863,2.5389,2.4964,2.3139,2.2184,2.1714,2.0093,1.9918,2.0525,2.0201,2.0289,2.0753,2.1906,2.2014,2.1561,2.1148,2.0703,2.0113,1.8851,0.0,0.0,0.0,0.0,1.9111,2.0185,2.0657,2.0918,2.1383,2.1904,2.2158,2.1583,2.1393,2.0485,0.0,1.7136,1.6524,1.4484,0.0,0.0,0.0,0.0,1.4953,1.5957,1.7199,1.8073,1.8333,1.8521,1.8289,1.7493,1.68,1.6338,1.6166,1.5538,1.4915,1.4332,1.4373,1.4004,1.3159,0.0,0.0,0.0,0.0,0.0,0.0,0.0,0.0,0.0,0.0,0.0,0.0,0.0,0.0,0.0,0.0,0.0,0.0,0.0,0.0,0.0,0.0,0.0,0.0,0.0,0.0,0.0,0.0,0.0,2.3965,2.4744,0.0,0.0,0.0,0.0,2.367,2.5134,2.5986,2.5861,2.6616,2.7091,2.7153,2.7886,2.8301,2.8355,2.9185,2.9301,2.875,2.875,2.8447,2.789,2.7852,2.7685,2.7431,2.7184,2.6657,2.5831,2.4328,2.3698,2.3576,2.271,2.2488,2.2603,2.2265,2.2754,2.356,2.346,2.3412,2.3498,2.4299,2.3422,2.2063,2.1969,2.1398,0.0,0.0,2.1639,2.2057,2.2454,2.239,2.2209,2.2243,2.2276,2.2293,2.226,2.1878,2.1234,0.0,1.9491,1.8989,1.8159,0.0,1.625,1.5518,1.5527,1.5866,1.6484,1.7342,1.8136,1.8713,1.8885,1.8643,1.7848,1.7102,1.6407,1.578,1.5158,1.4911,1.5124,1.5209,1.4863,1.4043,1.3141,0.0,0.0,0.0,0.0,0.0,0.0,0.0,0.0,0.0,0.0,0.0,0.0,0.0,0.0,0.0,0.0,0.0,0.0,0.0,0.0,0.0,0.0,0.0,0.0,0.0,0.0,0.0,0.0,2.7184,2.7589,0.0,2.7993,2.7816,2.7675,2.7643,2.8151,2.8654,2.9129,2.9288,2.9607,3.0147,3.0262,3.0411,3.0577,3.0897,3.0997,3.0915,3.0404,3.0037,2.9779,2.8711,2.8173,2.8039,2.745,2.704,2.6723,2.6197,2.5422,2.4541,2.4266,2.426,2.4399,2.4271,2.4319,2.4433,2.436,2.4173,2.3967,2.4063,2.3657,2.3125,2.2915,2.2636,2.2452,2.2554,2.2579,2.2544,2.2659,2.25,2.231,2.231,2.231,2.231,2.231,2.1928,2.1493,2.1097,2.0156,1.915,1.8305,1.7712,1.7164,1.6645,1.6647,1.6811,1.7019,1.728,1.7535,1.7749,1.7968,1.7988,1.7705,1.676,1.6088,1.5847,1.5104,1.4756,1.4932,1.5125,1.5124,1.4887,1.3965,1.2934,0.0,0.0,0.0,0.0,0.0,0.0,0.0,0.0,0.0,0.0,0.0,0.0,0.0,0.0,0.0,0.0,0.0,0.0,0.0,0.0,0.0,0.0,0.0,0.0,0.0,0.0,2.6672,2.9139,2.9756,3.0088,3.0407,3.0472,3.0483,3.0413,3.0359,3.0561,3.1042,3.0887,3.1057,3.1658,3.1507,3.1483,3.1658,3.1677,3.1775,3.1991,3.1466,3.1092,3.0847,2.9735,2.9059,2.8706,2.8163,2.777,2.7489,2.7489,2.6795,2.5734,2.5734,2.5647,2.5535,2.5535,2.5222,2.4756,2.4582,2.4301,2.3976,2.3649,2.3522,2.35,2.3277,2.3189,2.3165,2.3069,2.2873,2.2669,2.2573,2.2409,2.231,2.231,2.218,2.2061,2.2061,2.1598,2.1165,2.1165,2.0352,1.9524,1.8931,1.8394,1.7894,1.7447,1.7255,1.7091,1.6819,1.675,1.6707,1.6639,1.68,1.6889,1.6889,1.5811,1.523,1.5485,1.4509,1.4158,1.4634,1.4846,1.5028,1.522,1.4332,1.3412,1.2484,0.0,0.0,0.0,0.0,0.0,0.0,0.0,0.0,0.0,0.0,0.0,0.0,0.0,0.0,0.0,0.0,0.0,0.0,0.0,0.0,0.0,0.0,0.0,2.5139,2.7292,2.9102,2.9744,3.1183,3.1826,3.1111,3.1751,3.2122,3.1942,3.1939,3.1825,3.1538,3.1494,3.1494,3.1476,3.1458,3.1458,3.1458,3.1458,3.1629,3.1846,3.1827,3.153,3.0941,3.0922,3.0396,2.9467,2.9448,2.8944,2.8161,2.8124,2.7774,2.7236,2.7215,2.6723,2.6042,2.6042,2.5533,2.4768,2.4247,2.3939,2.37,2.3335,2.3224,2.3224,2.3183,2.3165,2.3093,2.2772,2.2669,2.2582,2.2332,2.2254,2.2254,2.2254,2.1899,2.1582,2.1582,2.0894,2.0314,2.028,2.028,2.028,2.028,1.9398,1.851,1.7971,1.7333,0.0,1.5927,1.5813,1.573,1.5519,1.5487,1.5472,1.5472,1.4322,1.3905,1.4612,1.3366,1.3126,1.4291,1.436,1.4604,1.5081,1.4274,1.3348,1.2372,0.0,0.0,0.0,0.0,0.0,0.0,0.0,0.0,0.0,0.0,0.0,0.0,0.0,0.0,0.0,0.0,0.0,0.0,0.0,0.0,0.0,2.6912,2.9055,2.8479,2.952,3.0842,3.2222,3.2589,3.3131,3.4143,3.4228,3.4441,3.5026,3.5063,3.4751,3.4064,3.4027,3.3752,3.3164,3.3128,3.3128,3.3128,3.3128,3.318,3.3239,3.2668,3.2287,3.2125,3.1533,3.1122,3.0807,3.0236,2.9849,2.9568,2.8979,2.8466,2.8013,2.7437,2.7062,2.6874,2.6874,2.6447,2.5852,2.5536,2.5254,2.486,2.399,2.3711,2.3554,2.2796,2.232,2.2,2.1948,2.1698,2.1458,2.1385,2.137,2.137,2.137,2.126,2.115,2.115,2.0715,2.0212,1.9869,1.9528,1.9273,1.9273,1.8734,1.8204,1.8089,1.7483,0.0,1.6756,1.5965,1.5421,1.537,1.5012,1.4774,1.4774,1.4199,1.3734,1.3549,1.3039,1.2923,1.3296,1.3779,1.4373,1.5094,1.5065,1.4651,0.0,0.0,0.0,0.0,0.0,0.0,0.0,0.0,0.0,0.0,0.0,0.0,0.0,0.0,0.0,0.0,0.0,0.0,0.0,0.0,0.0,0.0,3.0037,3.1898,3.239,3.2056,3.2224,3.3426,3.3746,3.4215,3.5203,3.5441,3.5752,3.6266,3.6303,3.6083,3.5587,3.555,3.533,3.4853,3.4853,3.4669,3.4321,3.4302,3.4137,3.3788,3.333,3.2944,3.2596,3.2118,3.1715,3.1366,3.0907,3.0705,3.0632,2.9843,2.9265,0.0,0.0,0.0,0.0,0.0,2.6261,2.5919,2.5679,2.5438,2.5143,2.4391,2.4006,2.3697,2.3083,2.2351,2.1793,2.1793,2.1407,2.0959,2.0716,2.0668,2.0668,2.0668,2.0353,2.015,2.0351,1.9854,1.9317,1.9022,1.8584,0.0,1.8224,1.8185,1.8027,1.7787,1.7409,1.7021,1.6559,1.5898,1.5396,1.5144,1.4849,1.4488,1.4054,1.3741,0.0,0.0,0.0,1.2653,1.3074,1.3625,0.0,0.0,0.0,0.0,0.0,0.0,0.0,0.0,1.5913,1.5815,0.0,0.0,0.0,0.0,0.0,0.0,0.0,0.0,0.0,0.0,0.0,0.0,0.0,0.0,0.0,0.0,3.2715,3.3993,3.6019,3.4615,3.3537,3.4017,3.4724,3.5174,3.5265,3.5991,3.6468,3.656,3.656,3.6523,3.6431,0.0,0.0,0.0,0.0,3.5936,3.5137,3.5045,3.4651,3.3935,3.3844,3.344,3.2742,3.2742,3.2357,3.1659,3.1568,3.1531,3.1458,3.0619,2.9955,2.9395,2.863,2.7745,2.6745,2.6038,2.5738,2.5657,2.5379,0.0,0.0,2.4672,2.4196,2.3786,2.367,2.2878,2.2007,2.1877,2.1383,2.0744,2.0135,1.9951,1.9951,1.9951,1.933,1.8829,1.9353,1.8736,1.8066,1.8027,1.7626,1.7271,1.7229,1.7585,1.7747,1.7271,1.7188,1.6853,1.5926,1.5731,1.5505,1.5054,0.0,0.0,1.3564,1.3434,1.302,1.2121,1.2103,1.249,1.3311,1.3715,1.4383,1.5331,1.601,1.7203,1.9013,1.9326,2.0415,2.212,1.851,1.7672,0.0,0.0,0.0,0.0,0.0,0.0,0.0,0.0,0.0,0.0,0.0,0.0,0.0,0.0,0.0,3.3459,3.4774,3.579,3.6229,3.5937,3.568,3.5789,3.5954,3.6303,3.6945,3.7165,3.7533,3.8193,3.8248,3.7955,3.7294,3.7257,3.6964,3.6321,3.6303,3.6211,3.6046,3.5367,3.4917,3.4752,0.0,0.0,3.3568,3.3568,3.3476,3.3293,3.2651,3.2375,3.2276,3.1138,2.9851,2.8596,2.8152,2.7847,2.7649,2.7508,2.7238,2.6944,2.6883,2.6653,2.6183,2.5079,2.4677,2.439,2.342,2.2738,0.0,2.1051,2.0468,1.9874,1.8774,1.8531,1.8531,1.8531,1.8391,1.8274,1.8352,1.8249,1.7987,1.7544,1.7394,1.7146,1.671,1.6752,1.6752,1.668,1.6637,1.66,1.6371,1.5969,1.5655,1.5542,1.518,1.4827,1.4599,1.4575,1.4325,1.3692,1.318,1.2926,1.2983,1.374,1.4406,1.499,1.643,1.7575,1.8393,1.9863,2.0953,2.1651,2.1018,2.1191,0.0,0.0,0.0,0.0,0.0,0.0,0.0,0.0,0.0,0.0,0.0,3.1266,3.2133,0.0,3.4858,3.5658,3.6407,3.7037,3.7441,3.7496,3.7202,3.6395,3.6652,3.7055,3.7441,3.7845,3.8267,3.867,3.8707,3.8524,3.812,3.8102,3.7918,3.7514,3.7496,3.7312,3.689,3.6468,3.5844,3.499,3.4596,3.4192,3.3807,3.3807,3.3807,3.377,3.3159,3.3022,3.3075,3.1665,3.0031,2.838,2.7982,2.7632,2.7303,2.7303,2.7178,2.6987,2.6987,2.6873,2.6556,2.5673,2.5222,2.4851,2.3954,2.2915,2.1847,2.1289,2.0508,1.9573,1.8453,1.8166,1.8057,1.7774,1.7504,1.7394,1.7626,1.7504,1.7229,1.6951,1.6909,1.6795,1.6552,1.6522,1.6522,1.6522,1.6522,1.6522,1.6522,1.6283,1.6107,1.6107,1.5856,1.5377,1.4564,1.3994,1.3935,1.4475,1.3416,1.3009,1.3431,1.3504,1.3994,1.4985,1.6142,1.7471,1.8893,2.0157,2.126,2.2204,2.2427,2.2716,0.0,0.0,0.0,0.0,0.0,0.0,0.0,0.0,2.9363,3.1053,3.3298,3.5052,3.5363,3.5939,3.6738,3.7858,3.7996,3.8175,3.8836,3.8927,3.8395,3.6945,3.7331,3.7716,3.7716,3.8322,3.8707,3.8707,3.8707,3.8707,3.8707,3.8707,3.8707,3.8707,3.8707,3.8395,3.7734,3.7599,3.6817,3.5495,3.5155,3.4642,3.4027,3.3862,3.3807,3.378,3.3361,3.3332,3.3421,3.205,3.0394,2.8698,2.8235,2.7588,2.6894,2.6742,2.6691,2.6691,2.6691,2.6691,2.6624,2.6033,2.554,2.5089,2.443,2.3133,2.1829,2.1612,2.0717,1.9574,1.8363,1.8048,1.7904,1.729,1.6795,1.6637,1.7034,1.6795,1.6522,1.6522,1.6522,1.6522,1.6522,1.6522,1.6522,1.6522,1.6522,1.6522,1.6522,1.6522,1.6522,1.6522,1.638,1.575,1.4336,1.3412,1.3426,1.4595,1.3468,1.3054,1.3754,1.3224,1.3512,1.4835,1.5607,1.7006,1.912,1.9919,2.1009,2.2314,2.2554,2.2973,1.5737,1.7327,1.939,2.2938,2.4946,2.7539,0.0,0.0,3.4661,3.6465,3.728,3.781,3.8249,3.8184,3.8479,3.976,3.9797,3.9643,3.9753,3.9772,3.9423,3.8542,3.8505,3.8579,3.8579,3.8652,3.8707,3.8707,3.8707,3.8707,3.8707,3.8707,3.8707,3.8707,3.8707,3.867,3.8579,3.7845,3.7404,3.7184,3.5716,3.4935,3.4825,3.4137,3.3807,3.378,3.3361,3.2983,3.2598,3.2004,3.102,2.9861,2.9146,2.8383,2.7621,2.6945,2.6691,2.6691,2.6691,2.6691,2.6539,2.5598,2.5259,2.5012,2.3991,2.3172,2.2374,2.1279,2.0479,1.9595,1.7913,1.751,1.7314,1.6734,1.6552,1.6522,1.6595,1.6552,1.6522,1.6522,1.6522,1.6522,1.6522,1.6522,1.6522,1.6522,1.6522,1.6522,1.6522,1.6522,1.6522,1.6522,1.6008,1.5386,1.4665,1.4518,1.4303,1.3936,1.375,1.3445,1.306,1.2954,1.3219,1.3914,1.4996,1.6149,1.7368,1.8716,1.9651,2.0241,2.0556,2.1798,1.9054,2.1414,2.3965,0.0,2.9529,3.2252,3.5287,3.6445,3.7207,3.8442,3.911,3.9518,3.9547,3.945,3.9643,0.0,4.0347,4.0155,4.0174,4.0001,3.9423,3.8138,3.8414,3.8707,3.8707,3.8707,3.8707,3.8707,3.8415,3.8216,3.8216,3.7982,3.7929,3.8234,3.7982,3.7964,3.8216,3.7639,3.7088,3.6568,3.5852,3.5443,3.5242,3.4163,3.3315,3.2645,3.2745,3.2384,3.1768,3.1789,3.0899,2.9543,2.9226,2.8185,2.6798,2.6457,2.6487,2.6657,2.6401,2.6297,2.6175,2.5449,2.4989,2.4592,2.3837,2.2891,2.1997,2.1514,2.0641,1.962,1.8578,1.8103,1.7714,1.7149,1.676,1.6522,1.6522,1.6522,1.6522,1.6522,1.6522,1.6522,1.6522,1.6522,1.6522,1.6522,1.6522,1.6522,1.6522,1.6522,1.6522,1.6522,1.5644,1.5107,1.5231,1.4595,1.4236,1.4329,1.4003,1.3684,1.3409,1.3104,1.32,1.3779,1.425,1.506,1.6168,1.7009,1.7653,1.8158,1.8585,1.9272,2.1838,2.4579,2.7568,3.0451,3.3387,3.5913,3.7113,3.8174,3.9042,3.9641,4.0158,4.0441,4.0251,4.0139,4.0365,4.12,4.1017,4.0774,4.0756,4.0606,3.9845,3.804,3.8394,3.8725,3.8496,3.8465,3.8465,3.8465,3.7998,3.772,3.772,3.7396,3.736,3.7685,3.736,3.736,3.7685,3.736,3.6889,3.6268,3.6001,3.5776,3.557,3.4214,3.3125,3.2282,3.2109,3.1718,3.1123,3.1133,3.0403,2.9221,2.9025,2.8061,2.6693,2.6057,2.6052,2.628,2.6085,2.6013,2.5924,2.5373,2.495,2.4511,2.3794,2.2696,2.1697,2.1697,2.0805,1.9685,1.9171,1.8731,1.8254,1.7551,1.6903,1.6423,1.6275,1.6238,1.6238,1.6238,1.638,1.6522,1.6522,1.6522,1.6522,1.6522,1.6522,1.6522,1.6522,1.6522,1.6423,1.6281,1.5332,1.4789,1.5084,1.4143,1.3742,1.4165,1.3779,1.3552,1.3552,1.3152,1.3104,1.3552,1.3732,1.4215,1.5027,1.5509,1.5911,1.6309,1.6645,1.6782,2.3605,2.6069,2.9627,3.3813,3.6087,3.7901,4.0154,4.0629,4.0626,4.0665,4.0563,4.0489,4.0489,4.0286,4.0634,4.2197,4.2223,4.1926,4.1605,4.1822,4.1188,3.8927,3.8915,3.8773,3.7995,3.7928,3.7928,3.7928,3.747,3.721,3.721,3.7228,3.7228,3.721,3.7228,3.7228,3.721,3.7228,3.7173,3.7137,3.6304,3.5915,3.5844,3.4305,3.3564,3.3458,3.172,3.092,3.0819,2.987,2.9435,2.9294,2.8606,2.8275,2.8024,2.6108,2.535,2.5335,2.5815,2.6013,2.5924,2.5373,2.5182,2.4973,2.3921,2.2696,2.1697,2.1697,2.0805,1.9685,1.9171,1.902,1.8731,1.7639,1.6904,1.6252,1.5739,1.5632,1.5632,1.5632,1.6095,1.6522,1.6522,1.6522,1.6522,1.6522,1.6522,1.6522,1.6522,1.6522,1.6281,1.5676,1.505,1.4468,1.3909,1.3286,1.2929,1.2978,1.2929,1.2929,1.2929,1.2929,1.2929,1.2929,1.3505,1.3815,1.3862,1.4457,1.4732,1.4778,1.4778,1.4778,2.7073,3.0681,3.4537,3.7364,3.9291,4.0703,4.1429,4.1131,4.0513,3.9907,3.9283,3.8834,3.8834,3.8773,3.9435,4.1679,4.2218,4.245,4.2686,4.2621,4.1481,3.8518,3.8715,0.0,3.6756,3.7397,0.0,3.747,3.6943,3.6684,3.6684,3.6316,3.6291,3.6643,3.6333,3.6333,3.6684,3.6333,3.6122,3.6122,3.622,3.5781,3.4954,3.4352,3.3362,3.2063,3.1018,3.0053,2.9182,2.9342,2.8856,2.8084,2.8358,2.7922,2.7102,2.6441,2.583,2.5356,2.542,2.5689,2.5961,2.5779,2.5259,2.4576,2.4225,2.2966,2.1697,2.1697,2.0805,1.9761,1.9585,1.9284,1.8772,1.7922,1.7396,1.688,1.6228,1.613,1.6194,1.6194,1.638,1.6522,1.6522,1.6522,1.6522,1.6522,1.6522,1.6522,1.6522,1.6522,1.6281,1.5676,1.541,1.4915,1.3909,1.3589,1.3334,1.2929,1.2881,1.2881,1.2881,1.2881,1.2881,1.2881,1.3104,1.319,1.319,1.2899,1.3044,1.3467,1.2541,1.2327,3.0793,3.4316,3.7794,4.0189,4.1421,4.2045,4.2,4.1061,3.994,3.9018,3.8142,3.745,3.7161,3.7103,3.8027,4.0873,4.1494,4.1996,4.3145,4.3115,4.1924,3.9079,3.9278,3.8941,0.0,0.0,0.0,3.6995,3.6936,3.68,3.6543,3.6463,3.648,3.6526,3.6191,3.6055,3.6097,3.5783,3.547,3.5253,3.5565,3.5222,3.418,3.3802,3.2842,3.1397,3.0464,2.9406,2.8372,2.837,2.8,2.747,2.77,2.7425,2.6916,2.6677,2.6411,2.6122,2.5989,2.5962,2.6046,2.6327,2.5621,2.4672,2.4471,2.3288,2.1993,2.1758,2.0953,2.0105,1.985,1.9547,1.9146,1.8471,1.7959,1.7468,1.6788,1.6711,1.6724,1.6527,1.6679,1.676,1.6559,1.6522,1.6522,1.6522,1.6522,1.6522,1.6522,1.6522,1.6281,1.5676,1.541,1.496,1.419,1.3732,1.342,1.3238,1.3017,1.2881,1.2881,1.2881,1.2881,1.2881,1.2881,1.2881,1.2881,1.2187,1.203,1.2461,1.1325,1.1015,3.4445,3.6863,3.9393,4.2251,4.25,4.2047,4.1983,4.0563,3.895,3.8007,3.7084,3.6199,3.5391,3.5353,3.6507,3.9762,4.0193,4.0853,4.2988,4.3283,4.2538,0.0,0.0,0.0,0.0,0.0,0.0,3.6558,0.0,3.7601,3.6874,3.7516,3.7567,3.681,3.6789,3.6417,3.5583,3.5594,3.5253,3.4576,3.4576,3.4235,3.3566,3.2809,3.2107,3.139,3.0092,2.9079,2.8319,2.7071,2.693,2.7458,2.6826,2.6982,2.755,2.6871,2.6972,2.7395,2.7418,2.6854,2.6228,2.6974,2.6341,2.5192,2.4679,2.3694,2.2589,2.1993,2.1293,2.0646,2.0003,1.985,1.9673,1.9133,1.8559,1.7975,1.7422,1.7351,1.7171,1.6597,1.7011,1.7237,1.666,1.6559,1.6559,1.6479,1.6522,1.6522,1.6522,1.6522,1.6238,1.5632,1.505,1.4698,1.4617,1.361,1.32,1.3732,1.3238,1.2881,1.2881,1.2881,1.2881,1.2881,1.2881,1.2881,1.2822,1.2129,1.1765,1.1715,1.1015,1.0712,3.5666,3.8841,4.2032,4.3383,4.3296,4.2653,4.1696,3.9835,3.7719,3.5603,3.4007,3.2718,3.1859,3.3256,0.0,3.7058,3.9891,0.0,4.2837,4.3107,0.0,4.0756,0.0,3.953,3.8218,3.8584,0.0,0.0,3.778,3.7821,3.7635,3.7804,3.753,3.6771,3.6791,3.6421,3.5596,3.5602,3.5253,3.4576,3.4576,3.4235,3.3582,3.2919,3.192,3.0798,2.9922,2.8622,2.7019,2.724,2.71,2.6826,2.7203,2.7408,2.7595,2.738,2.7382,2.7535,2.8529,2.8288,2.7663,2.831,2.7657,2.658,2.6466,2.4951,2.3245,2.3098,2.1965,2.0746,2.0597,2.0144,1.9606,1.8939,1.8778,1.856,1.7876,1.7861,1.7904,1.7756,1.7897,1.7815,1.7262,1.7162,1.7024,1.6584,1.6522,1.6522,1.6522,1.6522,1.6107,1.5062,1.5186,1.4824,1.3478,1.3515,1.342,1.3152,1.2968,1.2881,1.2881,1.2881,1.2881,1.2881,1.2881,1.2618,1.208,1.1366,1.1065,1.1015,0.9865,0.9562,3.7522,4.0426,4.3158,4.3897,4.3385,4.2179,4.0101,3.8094,3.5891,3.3109,3.1487,3.0294,2.9467,3.0983,3.3096,0.0,0.0,0.0,4.2254,4.2763,4.2445,0.0,4.0488,0.0,3.8935,3.9225,3.9292,0.0,3.887,3.8717,3.8396,3.8354,3.7968,3.7192,3.662,3.5927,3.5169,3.5471,3.5253,3.4576,3.4576,3.4087,3.3145,3.2788,3.1836,3.054,0.0,2.8768,2.7407,2.7218,2.7034,2.6982,2.7086,2.7306,2.7625,2.7625,2.7569,2.762,2.8638,2.885,2.8739,2.9324,2.8628,2.7514,2.7201,2.5974,2.4548,2.3736,2.2773,2.1791,2.1028,2.0497,2.0042,1.9359,1.9253,1.9258,1.8814,1.8796,1.8844,1.8606,1.8367,1.8103,1.779,1.7739,1.7551,1.6986,1.6898,1.671,1.6175,1.6337,1.6151,1.5197,1.541,1.5096,1.38,1.3779,1.3637,1.3334,1.3065,1.2881,1.2881,1.2881,1.2881,1.2881,1.2559,1.2187,1.1814,1.0813,1.0364,1.0364,0.9316,0.9008,3.9474,4.157,4.3358,4.3985,4.3043,4.1146,3.7965,3.5947,3.3837,3.0707,2.9371,2.8525,2.7698,2.8823,3.0918,3.4087,0.0,3.8665,4.139,4.2122,4.2055,4.1024,4.0827,4.0625,4.0171,4.007,4.007,4.007,4.007,3.98,3.9174,3.9104,3.8652,3.7686,3.6395,3.534,3.4592,3.5253,3.5253,3.4576,3.4576,3.3937,3.2749,3.2641,3.1888,3.0644,2.9993,2.928,2.8495,2.7258,2.7122,2.7524,2.6878,2.6982,2.7458,2.7458,2.7408,2.7393,2.811,2.8717,2.9233,2.9926,2.9359,2.8307,2.7595,2.6902,2.6039,2.4223,2.3618,2.3128,2.1486,2.0944,2.0646,2.0055,1.985,1.9798,1.9798,1.9798,1.9673,1.9221,1.8744,1.8392,1.8329,1.8317,1.8103,1.7476,1.7388,1.697,1.5748,1.6051,1.6107,1.5443,1.5353,1.5141,1.4514,1.3967,1.3684,1.3684,1.319,1.2881,1.2881,1.2881,1.2881,1.2881,1.2295,1.1873,1.1665,1.0517,0.9865,0.9666,0.9061,0.8804,4.0304,4.1949,4.329,4.3676,4.2602,4.049,3.6826,3.4579,0.0,2.9014,2.764,2.6774,2.5909,2.7676,2.9964,3.2147,3.513,3.7936,4.0182,4.0781,4.0958,0.0,4.0497,4.0204,4.0121,4.007,0.0,0.0,0.0,4.002,3.9901,3.9885,3.8991,3.7032,3.6082,3.5287,3.4592,3.5253,3.5253,3.4576,3.4576,3.4186,3.3391,3.2841,3.216,3.1351,3.0649,0.0,2.8592,2.8368,2.798,2.7575,2.7458,2.7086,2.6669,2.6669,2.6283,2.5986,2.7172,2.7659,2.8021,2.9713,3.0032,2.964,2.8881,2.7861,2.6657,2.5281,2.4246,2.3332,2.2575,2.1609,2.0746,2.0646,2.0207,1.9798,1.9798,1.9798,1.9773,1.9685,1.9597,1.9384,1.8957,1.8833,1.8543,1.7539,1.7388,1.697,1.5748,1.5676,1.532,1.4226,1.4086,1.3873,1.3238,1.3113,1.3065,1.3065,1.2968,1.2881,1.2881,1.2881,1.2881,1.2881,1.2774,1.2147,1.0965,1.0762,1.0064,0.8956,0.8857,0.8804,4.0416,4.1667,4.2572,4.2966,4.1912,3.9543,3.4846,0.0,0.0,2.7302,2.6227,2.583,2.538,2.6929,0.0,3.0471,3.2716,3.5243,3.8151,3.8646,3.9294,4.0724,4.0417,4.0204,0.0,4.0237,4.007,4.007,0.0,4.007,4.007,3.9361,3.7741,3.5134,3.5416,3.5124,3.4103,3.5098,3.5424,3.5098,3.5098,3.4752,3.4087,3.3786,3.3252,3.2573,3.1559,0.0,2.9587,2.8884,2.8188,2.7625,2.7625,2.7152,2.651,2.651,2.6014,2.5494,2.6158,2.6813,2.7545,2.8513,2.9426,3.0145,2.9711,2.9147,2.831,2.6646,2.5576,2.4667,2.3436,2.2225,2.121,2.0894,2.0295,1.9798,1.9798,1.9798,1.9798,1.9798,1.9798,1.9723,1.9472,1.9434,1.9158,1.8355,1.8242,1.7681,1.619,1.5764,1.521,1.4351,1.4283,1.4003,1.342,1.3372,1.3238,1.2929,1.2881,1.2881,1.2881,1.2881,1.2881,1.2881,1.251,1.1981,1.1316,1.0618,0.9969,0.9309,0.8956,0.8804,4.0389,4.1289,4.1787,4.2234,4.087,3.8133,3.3147,3.1393,2.978,2.6062,2.5329,2.5371,2.5303,2.624,2.7547,0.0,3.0428,3.2518,3.615,3.6943,3.8038,0.0,4.0443,0.0,4.0703,4.0319,0.0,4.007,0.0,0.0,4.007,3.865,3.6648,3.4076,3.4913,3.4732,3.3391,3.4704,3.5362,3.5362,3.5515,3.5316,3.4783,3.4688,3.4333,3.3754,3.2577,0.0,0.0,2.9498,2.8538,2.7784,2.7685,2.7152,2.6457,2.6336,2.5783,2.5175,2.5175,2.5943,2.7004,2.7309,2.8701,3.0245,2.9984,2.9977,2.9673,2.7682,2.6688,2.5902,2.4139,2.2684,2.152,2.0782,2.0194,1.9798,1.9798,1.9798,1.9798,1.9798,1.9798,1.9798,1.9798,1.9798,1.9623,1.9058,1.8983,1.84,1.6811,1.5972,1.5292,1.476,1.4441,1.4107,1.3637,1.36,1.342,1.2929,1.2881,1.2881,1.2881,1.2881,1.2881,1.2881,1.2344,1.1972,1.1814,1.0762,1.0064,0.9762,0.9263,0.8956,4.0576,4.1128,4.1354,4.1762,3.9252,3.5857,3.2716,3.0589,2.8533,2.5841,2.5293,2.5303,2.5313,2.5408,2.6159,2.8171,0.0,3.1151,3.5011,3.6804,3.8231,3.9648,0.0,0.0,4.0204,4.0121,0.0,4.007,0.0,0.0,4.007,3.865,3.7106,3.5652,3.5011,3.4038,3.2711,3.4037,3.4688,3.4688,3.5316,3.5577,3.547,3.4894,3.4576,3.4479,3.3721,0.0,0.0,3.0711,2.9653,2.8442,2.7814,2.7152,2.6404,2.5728,2.5007,2.4408,2.4408,2.4951,2.5809,2.7004,2.8701,3.0161,2.9501,2.9655,2.9673,2.7682,2.6688,2.5998,2.4642,2.2996,2.1363,2.0181,1.985,1.9798,1.9798,1.9798,1.9798,1.9798,1.9798,1.9798,1.9798,1.9798,1.9623,1.9058,1.8983,1.8549,1.7376,1.6203,1.527,1.4693,1.3665,1.3017,1.2968,1.2968,1.2968,1.2881,1.2881,1.2881,1.2881,1.2881,1.2881,1.2881,1.2822,1.2452,1.1814,1.1665,1.1015,0.9814,0.971,0.9361,3.8816,3.9828,4.047,4.025,3.81,3.5274,3.2219,3.0194,2.8272,2.5803,2.533,2.5357,2.5303,2.5303,2.5658,2.6767,2.6817,2.7904,3.1315,3.275,3.4599,3.7714,3.8894,0.0,0.0,0.0,4.007,4.007,0.0,0.0,4.007,3.869,3.7219,3.5752,3.5399,3.4742,3.3786,3.4752,3.5207,3.5207,3.547,3.5622,3.5577,3.5316,3.5207,3.5144,3.4496,0.0,0.0,3.1196,3.0021,2.9073,2.8017,2.7152,2.6457,2.6176,2.5287,2.4292,2.4292,2.4509,2.4894,2.5889,2.728,2.87,2.9619,2.9781,2.9584,2.9048,2.772,2.6304,2.5677,2.3613,2.1472,2.0584,2.0105,1.9798,1.9798,1.9798,1.9798,1.9798,1.9798,1.9798,1.9798,1.9798,1.9736,1.9522,1.9497,1.9196,1.84,1.7217,1.621,1.562,1.3957,1.2881,1.2881,1.2881,1.2881,1.2881,1.2881,1.2881,1.2881,1.2881,1.2881,1.2881,1.2881,1.2774,1.2452,1.203,1.1316,1.0415,0.9969,0.9465,3.7268,3.8433,3.9259,3.8845,3.6813,3.4236,3.1672,2.9799,2.7984,2.5764,2.5339,2.5365,2.5303,2.5303,2.5382,0.0,2.5359,2.6205,2.9217,3.043,3.2478,0.0,0.0,3.8564,0.0,4.0397,4.0286,0.0,0.0,0.0,3.9766,3.8582,3.7314,3.6059,3.5552,3.4988,3.4333,3.4958,3.5299,3.5316,3.5515,3.5622,3.5622,3.5622,3.5622,3.5577,3.5098,0.0,0.0,3.1628,3.0357,2.9441,2.8117,2.7306,2.6826,2.6563,2.5673,2.4624,2.4624,2.4624,2.4738,2.5508,2.6491,2.7739,2.9284,2.9585,2.944,2.9518,2.7946,2.6029,2.5399,2.3496,2.1568,2.093,2.0295,1.9798,1.9798,1.9798,1.9798,1.9798,1.9798,1.9798,1.9798,1.9798,1.9798,1.9798,1.9798,1.9673,1.9309,1.8112,1.7094,1.6485,1.4721,1.3492,1.3252,1.3135,1.3066,1.3066,1.2949,1.2881,1.2881,1.2881,1.2881,1.2881,1.2881,1.2881,1.2881,1.2187,1.1466,1.0762,1.0115,0.9465,3.6363,3.7156,3.7668,3.7868,3.5249,3.2298,3.1088,2.9307,2.7409,2.5649,2.5303,2.5303,2.5303,2.5303,2.5201,2.4879,2.5473,2.6985,2.9803,3.1238,3.3154,0.0,0.0,3.7277,3.9247,4.0333,4.0655,0.0,0.0,0.0,3.9039,3.8311,3.7549,3.6819,3.5382,3.4284,3.3633,3.4284,3.4624,3.4624,3.5299,3.5622,3.5622,3.5622,3.5622,3.5622,0.0,0.0,0.0,3.2126,3.075,2.9357,2.8117,2.7575,2.7509,2.6774,2.6014,2.5398,2.5398,2.5398,2.5508,2.6229,2.6982,2.771,2.8319,2.8919,2.9262,2.8542,2.6918,2.5004,2.3229,2.2193,2.1568,2.093,2.0295,1.9798,1.9798,1.9798,1.9798,1.9798,1.9798,1.9798,1.9798,1.9798,1.9798,1.9798,1.9798,1.9798,1.9798,1.8802,1.78,1.7062,1.5929,1.4862,1.4165,1.374,1.3496,1.3496,1.3105,1.2881,1.2881,1.2881,1.2881,1.2881,1.2881,1.2881,1.2881,1.2187,1.1466,1.0762,1.0115,0.9465,3.2056,3.3225,3.425,3.3194,3.1439,2.9802,2.8988,2.7752,2.6458,2.5494,2.5303,2.5303,2.5303,2.5303,2.5789,2.7292,2.7588,0.0,0.0,0.0,0.0,3.5598,3.7981,3.9745,0.0,0.0,0.0,0.0,0.0,0.0,3.9005,3.7804,3.7017,3.6793,3.582,3.5161,3.4958,3.5161,3.5299,3.5316,3.5515,3.5622,3.5622,3.5622,3.5622,0.0,0.0,0.0,0.0,3.2299,3.1023,2.999,2.8301,2.7306,2.6826,2.6563,2.5728,2.4738,2.5231,2.5063,2.4794,2.5508,2.5892,2.6147,2.6347,2.7232,2.7929,2.6796,2.6287,2.5731,2.382,2.2515,2.1649,2.1472,2.057,1.9798,1.9798,1.9798,1.9798,1.9798,1.9798,1.9798,1.9798,1.9798,1.9798,1.9798,1.9798,1.9798,1.9798,1.9056,1.8213,1.7506,1.6612,1.5574,1.4233,1.375,1.3506,1.3506,1.3115,1.2881,1.2881,1.2881,1.2881,1.2881,1.2881,1.2881,1.2881,1.2666,1.194,1.0762,0.9666,0.9008,2.9277,3.0618,3.1717,3.066,2.9623,2.8642,2.7954,2.7069,2.6162,2.5346,2.5253,2.5274,2.5203,2.5192,2.5669,2.7135,2.7365,0.0,0.0,0.0,0.0,3.5291,0.0,0.0,0.0,4.0345,0.0,0.0,0.0,0.0,3.8193,3.728,3.6637,3.6349,3.5876,3.5622,3.5622,3.5622,3.5622,3.5622,3.5622,3.5622,3.5622,3.5622,3.5622,0.0,0.0,0.0,0.0,3.2001,3.0764,2.9906,2.8229,2.7306,2.693,2.693,2.6,2.4851,2.5877,2.5384,2.4452,2.5453,2.5618,2.5398,2.5398,2.6054,2.6593,2.5806,2.564,2.5455,2.4297,2.3035,2.1993,2.1758,2.0904,2.0105,1.985,1.9798,1.9798,1.9798,1.9798,1.9798,1.9798,1.9798,1.9798,1.9798,1.9798,1.9798,1.9798,1.9423,1.8821,1.8112,1.7578,1.6686,1.5144,1.4389,1.3994,1.3994,1.3447,1.3184,1.335,1.3047,1.2959,1.3115,1.2959,1.2881,1.2881,1.2363,1.1543,1.0415,0.9316,0.8804,0.0,2.9012,2.9817,2.9777,2.9218,2.8444,2.7638,2.7017,0.0,2.5233,2.5163,2.5273,2.5218,2.5087,2.5125,2.55,2.5819,0.0,0.0,3.1235,0.0,0.0,3.8629,0.0,3.8291,0.0,0.0,0.0,0.0,0.0,3.6978,3.6814,3.6457,3.5684,3.5622,3.5622,3.5622,3.5622,3.5622,3.5622,3.5622,3.5622,3.5622,3.5622,3.5588,0.0,0.0,0.0,0.0,3.1254,3.0076,2.9271,2.8076,2.7575,2.7524,2.7524,2.6602,2.5618,2.7034,2.6147,2.4624,2.5906,2.5837,2.5231,2.5231,2.5287,2.5424,2.5483,2.5049,2.4606,2.4669,2.367,2.2523,2.1921,2.1237,2.0547,1.9952,1.9798,1.9798,1.9798,1.9798,1.9798,1.9798,1.985,1.985,1.9798,1.985,1.985,1.9798,1.9798,1.9527,1.8768,1.8715,1.8112,1.6708,1.5517,1.4841,1.4785,1.4014,1.373,1.4058,1.3379,1.3154,1.3545,1.3174,1.2969,1.2969,1.1586,1.0608,0.9947,0.9218,0.8871,2.5508,0.0,2.7093,2.6679,2.6392,2.6174,0.0,2.582,2.5611,2.5293,2.5264,2.5687,2.6982,2.601,2.6338,3.0388,0.0,0.0,3.2817,0.0,0.0,4.0032,4.1395,4.1787,4.0981,0.0,0.0,0.0,0.0,3.788,3.7936,3.7005,3.6414,3.6224,3.581,3.5622,3.5622,3.5622,3.5622,3.5622,3.5622,3.5622,3.5622,3.5622,3.5301,0.0,0.0,0.0,3.2428,3.1059,3.0076,2.9271,2.8076,2.7255,2.6774,2.6774,2.6162,2.5508,2.6443,2.6054,2.5119,2.4908,2.4266,2.3636,2.3636,2.4439,2.5424,2.5483,2.5416,2.5257,2.5352,2.4047,2.2686,2.2526,2.1236,2.0003,1.985,1.9798,1.9798,1.9798,1.9798,1.9798,1.9798,2.0258,2.0396,1.9901,2.0258,2.0396,1.985,1.9798,1.9527,1.8768,1.8715,1.834,1.7413,1.6318,1.541,1.4841,1.4287,1.398,1.4077,1.3945,1.3887,1.3984,1.3887,1.3838,1.3838,1.2663,1.2043,1.1826,1.0298,0.97,2.4128,2.5258,2.6333,2.6152,2.6112,2.6115,2.6051,2.5719,2.5401,2.5196,0.0,2.5562,2.6411,2.6263,2.6977,0.0,3.0226,0.0,0.0,0.0,3.9355,4.1165,4.1823,4.1866,0.0,0.0,0.0,0.0,0.0,3.7825,3.7789,3.6911,3.6374,3.6374,3.5898,3.5622,3.5622,3.5622,3.5622,3.5622,3.5622,3.5622,3.5605,3.5267,3.4878,0.0,0.0,0.0,3.1792,3.0502,2.9605,2.8904,2.7944,2.7357,2.6982,2.6982,2.6549,2.6014,2.6774,2.6322,2.5231,2.4105,2.3471,2.3078,2.3078,2.3695,2.4429,2.4819,2.4947,2.5071,2.5462,2.4796,2.3869,2.3242,2.2326,2.1315,2.0408,2.0401,2.0307,1.947,1.979,2.0007,1.9408,2.0131,2.0696,2.0295,2.0769,2.0966,2.0346,2.0258,1.9991,1.9254,1.9202,1.8927,1.8178,1.7537,1.6743,1.5624,1.5198,1.4884,1.4717,1.4291,1.4077,1.4077,1.4077,1.4077,1.4077,1.3199,1.2769,1.2716,1.1102,1.0414,2.3554,2.5071,2.6482,2.6519,2.6726,2.6869,2.6593,0.0,0.0,0.0,0.0,0.0,2.555,2.6382,0.0,0.0,0.0,0.0,3.5018,3.7584,3.95,4.0682,4.1065,0.0,0.0,0.0,0.0,0.0,0.0,3.7996,3.745,3.6843,3.6539,3.6539,3.5941,3.5622,3.5622,3.5622,3.5622,3.5622,3.5622,3.5622,3.5588,3.4844,3.4438,3.4252,0.0,0.0,3.1149,2.9915,2.9042,2.8415,2.786,2.7625,2.7625,2.7625,2.7188,2.6721,2.7255,2.6602,2.5342,2.393,2.3365,2.3305,2.3305,2.3198,2.3245,2.3943,2.4249,2.4597,2.5454,2.5465,2.4985,2.3984,2.3502,2.2829,2.1202,2.1154,2.1014,1.9305,1.9929,2.0316,1.9088,1.9914,2.0746,2.0646,2.1161,2.1342,2.0746,2.066,2.0446,1.985,1.9798,1.9527,1.8927,1.8874,1.8286,1.6922,1.6426,1.6008,1.5565,1.4772,1.4272,1.4272,1.4272,1.4272,1.4272,1.3652,1.3341,1.3341,1.188,1.1213,2.4214,2.5534,2.6248,2.5539,2.5975,2.6364,2.555,2.5262,0.0,0.0,0.0,0.0,0.0,2.7193,2.7705,0.0,0.0,3.4289,0.0,0.0,3.78,4.0121,0.0,0.0,0.0,0.0,0.0,0.0,0.0,3.8124,3.8451,3.7596,3.7076,3.7076,3.6139,3.5622,3.5622,3.5622,3.5622,3.5622,3.5622,3.5622,3.5588,3.4844,3.415,3.3525,0.0,3.1599,3.0399,2.9677,2.9042,2.8415,2.786,2.7625,2.7625,2.7625,2.7524,2.7357,2.6826,2.651,2.6176,2.5342,2.461,2.4118,2.4118,2.3649,2.3138,2.3245,2.3761,2.4646,2.5966,2.5059,2.3838,2.4267,2.3043,2.1733,2.1436,2.143,2.1305,2.0544,2.0548,2.0476,1.9731,2.0295,2.0597,2.0055,2.0547,2.0696,2.0055,1.9952,1.9901,1.9798,1.9798,1.9747,1.9643,1.9631,1.9254,1.8447,1.7718,1.7059,1.6368,1.5618,1.5215,1.5215,1.5215,1.5215,1.5215,1.4741,1.4511,1.4501,1.3295,1.2535,2.3179,2.4629,2.5729,2.5668,2.7079,2.8276,2.7446,2.7239,0.0,0.0,0.0,0.0,0.0,0.0,2.9032,3.2604,0.0,3.5129,3.6479,3.6893,3.7761,0.0,0.0,0.0,0.0,0.0,0.0,0.0,0.0,0.0,3.8676,3.7756,3.719,3.719,3.6165,3.5622,3.5622,3.5216,3.5216,3.5622,3.5199,3.4802,3.4464,3.3684,3.2959,3.2293,0.0,3.0999,2.9805,2.9496,2.8857,2.8008,2.771,2.7625,2.7625,2.7625,2.7625,2.7509,2.6774,2.651,2.6404,2.5618,2.5175,2.4851,2.4408,2.406,2.3662,2.3185,2.3649,2.4452,2.5119,2.4914,2.4475,2.4419,2.3672,2.2801,2.211,2.2171,2.2006,2.0753,2.0871,2.0819,1.9858,2.0284,2.0696,2.0396,2.0868,2.1064,2.0396,2.0346,2.0207,1.985,1.9798,1.9798,1.9798,1.9798,1.9475,1.8768,1.7633,1.6866,1.6482,1.5806,1.541,1.541,1.541,1.541,1.541,1.5215,1.5117,1.5117,1.4164,1.3366,2.245,2.3803,2.5077,2.5885,0.0,2.9221,2.917,2.8857,0.0,0.0,0.0,0.0,0.0,2.8925,0.0,3.281,3.4545,3.57,3.5786,3.6534,3.7532,3.8631,0.0,0.0,0.0,0.0,0.0,0.0,0.0,0.0,3.8515,3.7667,3.7135,3.7038,3.5925,3.5351,3.5351,3.4607,3.4607,3.5351,3.459,3.4001,3.3499,3.2555,3.1909,3.1589,3.1197,3.0393,2.9406,2.9406,2.867,2.7625,2.7625,2.7625,2.7625,2.7625,2.7625,2.7524,2.693,2.6774,2.6654,2.6108,2.5783,2.5508,2.4794,2.4452,2.4118,2.3305,2.3531,2.406,2.4234,2.4567,2.4781,2.4408,2.4176,2.3768,2.2703,2.2836,2.2658,2.1156,2.1218,2.1138,2.0074,2.0254,2.0547,2.0547,2.0953,2.1099,2.0646,2.0547,2.0346,1.985,1.9798,1.9798,1.9798,1.9798,1.9579,1.8992,1.7743,1.7034,1.7034,1.614,1.5642,1.5642,1.5468,1.541,1.541,1.541,1.541,1.541,1.4756,1.4034,2.3403,2.3884,2.4258,2.5732,2.6254,2.6885,2.8838,2.8316,0.0,3.041,0.0,0.0,0.0,3.22,3.3904,3.3424,3.5444,3.689,3.6416,0.0,3.5956,0.0,0.0,0.0,0.0,0.0,0.0,0.0,0.0,0.0,3.798,3.747,3.6981,3.6457,3.5258,3.4573,3.4573,3.3846,3.3846,3.4573,3.3829,3.3448,3.3372,3.2074,3.1766,3.2181,3.0917,2.9995,2.9406,2.9406,2.867,2.7625,2.7625,2.7625,2.7625,2.7625,2.7625,2.7575,2.7524,2.7524,2.7524,2.7458,2.6982,2.6283,2.5563,2.4851,2.4118,2.3305,2.3125,2.3365,2.4118,2.3767,2.3424,2.4118,2.3708,2.3185,2.3088,2.3053,2.2902,2.2314,2.1775,2.1317,2.0698,2.0175,1.985,1.985,1.9901,1.9901,1.9901,1.985,1.985,1.9811,1.9798,1.9798,1.9798,1.9798,1.9798,1.9695,1.8992,1.8555,1.8555,1.7191,1.6436,1.6436,1.5748,1.541,1.541,1.541,1.541,1.541,1.5352,1.4874,2.2061,2.3435,2.4677,2.5176,2.6136,0.0,0.0,3.0359,3.0838,3.2111,3.2086,0.0,0.0,0.0,3.2634,3.3287,3.4599,3.5631,3.5873,3.5739,3.5827,0.0,0.0,0.0,0.0,0.0,0.0,0.0,0.0,0.0,3.6076,3.5574,3.5231,3.5052,3.4226,3.3829,3.3829,3.3068,3.2848,3.3119,3.2831,3.2513,3.2107,3.1163,3.0645,3.0457,2.9962,2.9406,2.8826,2.8826,2.8367,2.7625,2.7625,2.7625,2.7625,2.7625,2.7625,2.7625,2.7625,2.7625,2.7509,2.7086,2.6721,2.6283,2.5063,2.4509,2.4118,2.3305,2.3078,2.3198,2.3484,2.3305,2.3198,2.3484,2.3305,2.3078,2.3078,2.3078,2.3015,2.2862,2.2096,2.143,2.1217,2.0413,1.9798,1.9798,1.9798,1.9798,1.9798,1.9798,1.9798,1.9798,1.9798,1.9798,1.9798,1.9798,1.9798,1.9798,1.9097,1.8501,1.8004,1.7034,1.6265,1.5806,1.5526,1.541,1.541,1.541,1.541,1.541,1.541,1.4991,2.1708,2.3154,2.459,2.4858,0.0,0.0,3.091,3.1689,3.2231,3.3719,3.3711,3.3269,3.2693,0.0,0.0,0.0,3.4525,3.5231,3.5537,3.5622,3.5739,0.0,0.0,0.0,0.0,0.0,0.0,0.0,0.0,0.0,0.0,3.4359,3.4125,3.3968,3.3359,3.3051,3.3051,3.2307,3.1935,3.1935,3.1935,3.1756,3.1316,3.0608,3.0081,2.9673,2.9496,2.9042,2.8511,2.8511,2.814,2.7625,2.7625,2.7473,2.7255,2.7255,2.7086,2.6916,2.6916,2.6916,2.6811,2.6336,2.6176,2.5906,2.4681,2.4292,2.4118,2.3305,2.3078,2.3078,2.3078,2.3078,2.3078,2.3078,2.3078,2.3078,2.3078,2.3078,2.3078,2.3078,2.2385,2.1694,2.1518,2.0702,2.0012,1.9823,1.9798,1.9798,1.9798,1.9798,1.9798,1.9798,1.9798,1.9695,1.9475,1.9475,1.9475,1.9475,1.8992,1.8489,1.795,1.7246,1.6482,1.5748,1.5526,1.541,1.541,1.541,1.541,1.541,1.541,1.5108,2.2791,2.313,2.3797,0.0,0.0,0.0,3.2245,3.18,3.1583,3.526,3.5034,3.4164,3.4125,0.0,0.0,3.444,3.5539,3.619,3.5633,3.5588,3.5588,0.0,0.0,0.0,0.0,0.0,0.0,0.0,0.0,0.0,0.0,3.4168,3.3911,3.3389,3.2662,3.2313,3.2313,3.1546,3.119,3.119,3.119,3.119,3.119,3.0559,3.0293,3.0251,2.9629,2.9042,2.8511,2.8511,2.814,2.7625,2.7575,2.7137,2.651,2.651,2.6014,2.5398,2.5398,2.5398,2.5398,2.5398,2.5398,2.5231,2.4509,2.4292,2.4118,2.3305,2.3078,2.3078,2.3078,2.3078,2.3078,2.3078,2.3078,2.3078,2.3078,2.3078,2.3078,2.3078,2.2686,2.2133,2.1594,2.1041,2.0476,1.9911,1.9811,1.9811,1.9811,1.9811,1.9811,1.9811,1.9811,1.9527,1.8768,1.8715,1.8715,1.8715,1.8715,1.8715,1.8715,1.8015,1.7246,1.6539,1.5806,1.541,1.541,1.541,1.541,1.541,1.541,1.541,2.1947,2.3291,0.0,2.4982,0.0,0.0,0.0,3.1619,0.0,0.0,3.526,3.4514,3.4864,0.0,0.0,3.3651,3.3624,3.3649,3.3981,3.4328,3.4411,3.4109,0.0,0.0,0.0,0.0,0.0,0.0,0.0,0.0,0.0,3.211,3.2032,3.185,3.163,3.1512,3.1512,3.1309,3.119,3.119,3.119,3.119,3.1151,3.0123,2.9673,2.9629,2.8575,2.8042,2.786,2.786,2.776,2.7575,2.7034,2.6669,2.6457,2.5906,2.5563,2.5398,2.5398,2.5398,2.5287,2.4794,2.4624,2.4452,2.3708,2.3484,2.3424,2.3198,2.3078,2.3078,2.3078,2.3078,2.3078,2.3078,2.3078,2.3078,2.3078,2.3078,2.3078,2.3078,2.2686,2.2259,2.2096,2.1606,2.1192,2.1016,2.0665,2.0401,2.0401,2.0401,2.0401,2.0401,2.0401,1.9961,1.8804,1.8715,1.8501,1.7961,1.7961,1.8167,1.8661,1.8501,1.8015,1.7302,1.6528,1.6151,1.6151,1.5642,1.541,1.541,1.541,1.541,2.2572,2.391,0.0,2.6195,2.739,2.888,3.0578,0.0,0.0,0.0,3.4521,3.4052,3.4466,3.3298,0.0,3.3288,3.3165,3.3191,3.3612,3.4051,3.4227,3.3955,3.4007,0.0,0.0,0.0,0.0,0.0,0.0,0.0,0.0,3.119,3.119,3.119,3.119,3.119,3.119,3.119,3.119,3.119,3.119,3.119,3.1151,3.0208,2.9629,2.9316,2.8125,2.7625,2.7625,2.7625,2.7625,2.7524,2.6774,2.6336,2.596,2.5231,2.4781,2.4496,2.4496,2.4496,2.4381,2.4002,2.3826,2.3708,2.3258,2.2884,2.2628,2.2628,2.2372,2.2187,2.2506,2.2628,2.2702,2.3005,2.3078,2.3078,2.3078,2.3078,2.3078,2.3078,2.2862,2.2573,2.2347,2.2033,2.1744,2.1518,2.1204,2.0991,2.0991,2.0991,2.0882,2.0527,2.033,1.9679,1.8225,1.791,1.7633,1.7202,1.7146,1.7468,1.8221,1.8286,1.8058,1.7633,1.6877,1.6492,1.6492,1.5748,1.541,1.541,1.541,1.541,2.3954,2.4647,0.0,2.7977,2.8612,0.0,3.1664,3.2902,3.3512,3.341,0.0,3.3179,3.3354,3.2822,3.2574,3.327,3.3694,3.3938,3.3938,3.43,3.4553,3.45,3.3577,0.0,0.0,0.0,0.0,0.0,0.0,0.0,3.119,3.119,3.119,3.119,3.119,3.119,3.119,3.119,3.119,3.119,3.119,3.119,3.1112,3.0477,2.9848,2.918,2.8076,2.7625,2.7625,2.7625,2.7625,2.7524,2.6721,2.6014,2.5287,2.4509,2.3708,2.3078,2.3078,2.3078,2.3078,2.3078,2.3078,2.3078,2.3078,2.2567,2.1877,2.1877,2.129,2.0782,2.169,2.1877,2.2125,2.2884,2.3078,2.3078,2.3078,2.3078,2.3078,2.3078,2.3078,2.2975,2.2472,2.2385,2.2196,2.1644,2.1556,2.1556,2.1556,2.1556,2.1262,2.0367,1.9951,1.9056,1.736,1.6796,1.6534,1.6436,1.6368,1.6708,1.7468,1.7633,1.7688,1.7688,1.7034,1.6652,1.6595,1.5864,1.5468,1.541,1.541,1.541,2.3108,2.3953,0.0,0.0,2.9729,3.1108,3.1375,3.1843,3.2429,3.3243,3.3354,3.3369,3.3372,3.3089,3.2921,3.3055,3.2946,3.2843,3.2843,3.3244,3.3373,3.3013,3.277,3.2459,0.0,0.0,0.0,0.0,0.0,0.0,3.119,3.119,3.119,3.119,3.119,3.119,3.119,3.119,3.119,0.0,3.119,3.0958,3.0477,2.9848,2.8996,2.7978,2.771,2.7625,2.7625,2.7625,2.7625,2.7458,2.6162,2.5563,2.5231,2.3872,2.3245,2.3078,2.3078,2.3078,2.3078,2.3078,2.3078,2.3078,2.3078,2.2567,2.1877,2.1877,2.129,2.0782,2.169,2.1877,2.2125,2.2884,2.3078,2.3078,2.3078,2.3078,2.3078,2.3078,2.3078,2.3027,2.2975,2.2962,2.2774,2.2221,2.2133,2.2133,2.2133,2.2133,2.1762,2.0902,2.0736,1.9748,1.7423,1.7089,1.6646,1.572,1.5642,1.5979,1.6708,1.7852,1.8436,1.8436,1.8286,1.795,1.7357,1.6652,1.5979,1.541,1.541,1.541,2.2405,0.0,0.0,2.718,0.0,3.0865,3.0381,3.0637,3.1141,3.1704,3.2104,3.2357,3.2357,3.2402,3.2449,3.2449,3.2648,3.2858,3.2858,3.3196,3.3332,3.289,3.2648,3.2316,3.1861,0.0,0.0,0.0,0.0,3.119,3.119,3.119,3.119,3.119,3.119,3.119,3.119,3.119,3.119,3.119,3.119,3.0878,3.0251,2.9361,2.8638,2.7993,2.771,2.7625,2.7625,2.7625,2.7625,2.7458,2.6,2.5398,2.5231,2.3649,2.3078,2.3078,2.3078,2.3078,2.3078,2.3078,2.3078,2.3078,2.3078,2.2249,2.1365,2.1753,2.0974,2.0268,2.1553,2.1877,2.2125,2.2884,2.3078,2.3078,2.3078,2.3078,2.3078,2.3078,2.3078,2.3078,2.3078,2.3078,2.3037,2.2749,2.2711,2.2711,2.2711,2.2711,2.2198,2.0947,2.0603,1.9638,1.7471,1.6911,1.6248,1.5245,1.4918,1.4982,1.5381,1.6465,1.7577,1.8661,1.8715,1.8501,1.8112,1.7413,1.6641,1.5921,1.6301,1.6073,2.1382,0.0,2.4705,2.6549,2.8477,0.0,2.9337,2.9604,2.9922,2.9922,3.0497,3.1043,3.1087,3.1554,3.1951,3.2022,3.2695,3.3214,3.3302,3.3447,3.3421,3.3063,3.2642,3.2142,3.1479,3.1295,0.0,0.0,0.0,3.1151,3.1055,3.1151,3.1151,3.1055,3.1151,3.119,3.119,3.119,3.119,3.119,3.1095,3.0838,3.0435,2.8962,2.8403,2.8463,2.786,2.7625,2.761,2.7505,2.752,2.7444,2.5873,2.5301,2.5231,2.3649,2.3078,2.3078,2.3078,2.3078,2.3078,2.3078,2.3078,2.3078,2.3078,2.2051,2.0974,2.169,2.0782,1.9879,2.1491,2.1877,2.2125,2.2884,2.3078,2.3078,2.3078,2.3078,2.3078,2.3078,2.3078,2.3078,2.3078,2.3078,2.3078,2.3078,2.3078,2.3078,2.3078,2.3078,2.2433,2.0782,2.0284,1.9326,1.7579,1.6641,1.5827,1.4941,1.443,1.4145,1.4025,1.4857,1.6208,1.8089,1.8489,1.8661,1.8501,1.8015,1.7357,1.6549,1.7246,1.6856,0.0,0.0,2.4836,0.0,2.7958,2.9127,0.0,0.0,2.9127,0.0,2.9736,3.036,3.0713,3.1655,3.255,3.2952,3.3105,3.3302,3.368,3.3136,3.2577,3.2293,3.2027,3.1376,3.0023,3.0697,0.0,0.0,3.0835,3.0975,3.0435,3.0918,3.0975,3.0435,3.0918,3.119,3.119,3.119,3.119,3.119,3.0658,3.0658,3.0998,2.8706,2.7938,2.8463,2.786,2.7625,2.7565,2.6961,2.7066,2.7399,2.5325,2.4914,2.5231,2.3649,2.3078,2.3078,2.3078,2.3078,2.3078,2.3078,2.3078,2.3078,2.3078,2.2445,2.1753,2.1877,2.1175,2.0655,2.1628,2.1877,2.2125,2.2884,2.3078,2.3078,2.3078,2.3078,2.3078,2.3078,2.3078,2.3078,2.3078,2.3078,2.3078,2.3078,2.3078,2.3078,2.3078,2.3078,2.2433,2.0782,2.0523,1.9684,1.7609,1.6934,1.6153,1.496,1.443,1.3914,1.3191,1.4563,1.5408,1.5753,1.7686,1.8394,1.7743,1.8286,1.7852,1.6549,1.7246,1.7135,1.9291,2.1253,2.3114,0.0,2.6689,2.7737,2.7888,0.0,2.8403,2.8613,2.8922,2.9334,2.9903,3.0688,3.1351,3.1779,3.1885,3.197,3.2156,3.1643,3.1133,3.0747,3.0606,3.0231,2.9333,2.9697,2.969,0.0,2.9665,2.9823,2.9264,2.9852,3.0208,3.0293,3.0576,3.0878,3.119,3.119,3.119,3.119,3.0918,3.0717,3.0526,2.8796,2.8158,2.8381,2.702,2.6467,2.6452,2.6153,2.6213,2.6321,2.4958,2.4571,2.4696,2.3521,2.3078,2.3078,2.3078,2.3078,2.3078,2.3078,2.3078,2.3078,2.3078,2.2567,2.2002,2.2445,2.2002,2.1491,2.2384,2.2567,2.2628,2.3005,2.3078,2.3078,2.3078,2.3078,2.3078,2.3078,2.3078,2.3078,2.3078,2.3078,2.3078,2.3078,2.3078,2.3078,2.3078,2.3078,2.2628,2.1491,2.091,1.9987,1.8578,1.7595,1.6372,1.4641,1.4132,1.3392,1.2397,1.2959,1.3784,1.4641,1.6925,1.8124,1.8232,1.8124,1.7743,1.7146,1.7468,1.7191,0.0,0.0,2.0911,2.3302,2.4878,2.6,0.0,0.0,2.7403,0.0,2.812,2.8357,2.9089,2.9841,3.0475,3.0754,3.0772,3.0725,3.0772,3.0277,2.9831,2.9362,2.9384,2.9179,2.8469,2.8755,2.869,2.7987,2.8553,2.8625,2.7949,2.8531,2.9038,2.9339,2.9608,3.0054,3.0729,3.105,3.1106,3.092,3.092,3.0454,2.9597,2.842,2.7806,2.7588,2.6214,2.5615,2.56,2.5435,2.5465,2.5503,2.4731,2.4532,2.4581,2.3709,2.3424,2.3365,2.3185,2.3078,2.3078,2.3078,2.3078,2.3078,2.3078,2.2567,2.2013,2.2641,2.2384,2.2075,2.2641,2.2944,2.3078,2.3078,2.3078,2.3078,2.3078,2.3078,2.3078,2.3078,2.3078,2.3078,2.3078,2.3078,2.3078,2.3078,2.3078,2.3078,2.3078,2.3078,2.2823,2.2013,2.1302,2.0462,1.9365,1.8324,1.6871,1.4893,1.4135,1.3195,1.1977,1.1892,1.2406,1.3597,1.5678,1.7224,1.8124,1.7797,1.7523,1.7302,1.7523,1.7191,0.0,1.7031,0.0,2.0812,2.2496,0.0,0.0,0.0,0.0,2.7123,2.7355,2.76,2.8327,2.971,3.08,3.0884,3.0534,3.0277,3.0308,2.9607,2.8937,2.8603,2.8853,2.8435,2.6945,2.8129,2.8488,2.7255,2.7828,2.7753,2.6658,2.719,2.7264,2.6704,2.7762,2.8659,2.9393,3.0583,3.0852,3.0176,3.0176,2.9492,2.8246,2.6976,2.6148,2.5637,2.5591,2.5615,2.5555,2.4881,2.5046,2.5521,2.4771,2.4884,2.5331,2.4565,2.4234,2.4118,2.3365,2.3078,2.3078,2.3078,2.3078,2.3078,2.3078,2.2567,2.1877,2.1939,2.1939,2.1877,2.1939,2.2506,2.3078,2.3078,2.3078,2.3078,2.3078,2.3078,2.3078,2.3078,2.3078,2.3078,2.3078,2.3078,2.3078,2.3078,2.3078,2.3078,2.3078,2.3078,2.2823,2.2013,2.1877,2.1164,1.9431,1.8804,1.7805,1.6136,1.4778,1.3574,1.2394,1.2235,1.2078,1.1958,1.3528,1.5138,1.6595,1.7302,1.7246,1.6539,1.7246,1.7191,0.0,0.0,0.0,1.9875,2.1211,2.2361,2.3849,2.4543,2.521,2.6377,2.6784,2.7183,2.7931,2.8556,2.9032,2.926,2.877,2.8351,2.8382,2.7875,2.747,2.735,2.7471,2.7179,2.6347,2.6745,2.6599,2.5449,2.6021,2.6083,2.5303,2.5863,2.6317,2.6479,2.6898,2.7573,2.8593,2.9374,2.9651,2.9381,2.9047,2.8384,2.7481,2.631,2.543,2.4777,2.4457,2.4328,2.4298,2.4059,2.4103,2.4268,2.396,2.4253,2.4733,2.3944,2.3918,2.4176,2.3365,2.3078,2.3005,2.2506,2.2322,2.2261,2.1678,2.1678,2.1753,2.1239,2.1865,2.2567,2.2002,2.2506,2.3078,2.3078,2.3078,2.3078,2.3078,2.3078,2.3078,2.3078,2.3078,2.3078,2.3078,2.3078,2.3078,2.3078,2.3078,2.3078,2.3078,2.3078,2.3005,2.2702,2.2199,2.1628,2.1037,1.9781,1.8434,1.6994,1.5942,1.4861,1.3648,1.3276,1.3345,1.3783,1.4038,1.4718,1.5736,1.6053,1.6312,1.6482,1.6312,1.6312,1.4623,0.0,0.0,0.0,0.0,2.0357,2.2818,0.0,2.3862,2.5478,2.6055,2.6408,2.704,2.7045,2.7194,2.7913,2.7631,2.7255,2.7115,2.6873,2.6691,2.6691,2.6556,2.6332,2.6049,2.5852,2.5373,2.4471,2.4823,0.0,2.4283,2.4702,2.5168,2.5796,2.6013,2.6677,2.7811,2.8436,2.8602,2.8367,2.8018,2.7262,2.6176,2.5444,2.4782,2.4116,2.3752,2.3595,2.3595,2.3595,2.3595,2.3626,2.3816,2.4141,2.4462,2.3864,2.3926,2.423,2.3408,2.3078,2.3017,2.2506,2.2125,2.1815,2.1239,2.1037,2.0985,2.0655,2.1164,2.1865,2.1877,2.2506,2.3078,2.3078,2.3078,2.3078,2.3078,2.3078,2.3078,2.3078,2.3078,2.3078,2.3078,2.3078,2.3078,2.3078,2.3078,2.3078,2.3078,2.3365,2.3484,2.3484,2.304,2.2592,2.2274,2.0951,1.9587,1.8137,1.7196,1.6163,1.4936,1.4168,1.398,1.4426,1.4291,1.4423,1.4915,1.5264,1.5642,1.6151,1.5633,1.5921,0.0,0.0,0.0,0.0,0.0,0.0,2.2226,0.0,2.1871,2.4469,2.5021,2.5132,2.5508,2.5304,2.5559,2.6991,2.7251,2.7112,2.6758,2.6691,2.6691,2.6691,2.6297,2.5977,2.5977,2.5486,2.4934,2.443,2.4389,2.4158,2.3638,2.3595,2.3837,2.4348,2.5082,2.5964,2.6994,2.7762,2.7745,2.7031,2.7031,2.6089,2.4389,2.4389,2.4074,2.3595,2.3595,2.3595,2.3595,2.3595,2.3595,2.367,2.4343,2.4567,2.4579,2.4441,2.4364,2.4259,2.3359,2.3065,2.3078,2.3078,2.2506,2.1877,2.1877,2.0655,1.9497,2.0333,2.0009,1.9814,2.1491,2.2506,2.3078,2.3078,2.3078,2.3078,2.3078,2.3078,2.3078,2.3078,2.3078,2.3078,2.3078,2.3138,2.3138,2.3078,2.3138,2.3138,2.3078,2.3767,2.4292,2.4292,2.4292,2.3904,2.3059,2.2335,2.1175,1.9431,1.8429,1.7418,1.62,1.4878,1.4047,1.3688,1.4048,1.4273,1.4273,1.4991,1.541,1.541,1.541,1.6187,1.1989,0.0,0.0,0.0,0.0,0.0,0.0,0.0,0.0,2.2596,2.3281,2.3709,2.4637,2.4977,2.5144,2.5248,2.5715,2.6213,2.6657,2.6691,2.659,2.6227,2.6085,2.5689,2.491,2.4712,2.4389,0.0,2.3837,2.3752,2.3595,2.3595,2.3681,2.3837,2.4425,2.4833,2.5155,2.5741,2.595,2.5718,2.5314,2.4885,2.4389,2.3991,2.3767,2.3595,2.3595,2.3595,2.3595,2.3595,2.3595,2.3625,2.3804,2.4193,2.4476,2.347,2.3647,2.4204,2.2968,2.2799,2.3005,2.2445,2.1678,2.0974,2.0974,2.0655,2.0268,2.0526,2.129,2.2175,2.2628,2.2944,2.3078,2.3078,2.3078,2.3078,2.3078,2.3078,2.3078,2.3078,2.3078,2.3078,2.3078,2.3603,2.3767,2.3198,2.3603,2.3767,2.3185,2.3305,2.3424,2.3424,2.3424,2.3352,2.31,2.2372,2.1428,2.0333,1.9399,1.8496,1.7543,1.6515,1.5954,1.5832,1.5302,1.505,1.505,1.5294,1.541,1.541,1.5921,1.6698,0.0,0.0,0.0,0.0,0.0,0.0,1.7773,1.8035,0.0,0.0,2.1735,2.2238,2.3371,2.3767,2.3967,2.4045,2.4391,2.4932,2.5676,2.5778,2.5663,2.543,2.5193,2.4775,2.4175,2.4216,2.4131,2.3825,2.4071,2.4158,2.3948,2.3906,2.3837,2.3595,2.3906,2.4184,2.4389,2.4697,2.4871,2.4855,2.4552,2.4266,2.4074,2.3752,2.3595,2.3595,2.3595,2.3595,2.3595,2.3595,2.3595,2.3595,2.3595,2.3849,2.4045,2.2991,2.3055,2.3507,2.2634,2.2523,2.2705,2.2494,2.1803,2.1037,2.0719,2.0333,2.0074,2.0074,2.129,2.258,2.258,2.2823,2.3078,2.3078,2.3365,2.359,2.359,2.3813,2.3872,2.3245,2.3365,2.359,2.359,2.4221,2.4509,2.3708,2.4002,2.4002,2.3198,2.3365,2.359,2.359,2.359,2.359,2.359,2.2871,2.1877,2.0655,2.0139,1.9299,1.8076,1.7363,1.6914,1.6675,1.6045,1.5596,1.541,1.541,1.5584,1.5864,1.6322,1.709,1.0942,1.2118,0.0,0.0,1.4483,0.0,1.7709,1.7212,1.6879,0.0,2.0119,2.0495,2.1658,2.1894,2.2147,2.2856,2.303,2.3414,2.4357,2.4506,2.4475,2.4413,2.3998,2.3687,2.362,2.3842,2.3973,2.3973,2.4569,2.4782,2.4387,2.4321,2.4122,2.3724,2.3638,2.3837,2.4307,2.4307,2.4307,2.4307,2.4307,2.4074,2.3595,2.3595,2.3595,2.3595,2.3595,2.3595,2.3595,2.3595,2.3595,2.3595,2.3595,2.3595,2.3524,2.2875,2.2643,2.2652,2.2415,2.2331,2.2412,2.2845,2.2481,2.1658,2.102,2.016,1.9431,1.9562,2.0719,2.1939,2.2002,2.2567,2.3078,2.3078,2.3662,2.4176,2.4292,2.4851,2.4894,2.359,2.3943,2.4408,2.4408,2.5007,2.5231,2.4408,2.435,2.4105,2.3185,2.3708,2.4176,2.4176,2.4176,2.4176,2.4176,2.3543,2.2433,2.0846,2.0719,1.9944,1.8202,1.773,1.7327,1.6807,1.6318,1.585,1.541,1.541,1.5748,1.6492,1.6595,1.7357,0.962,1.0487,1.1287,1.1464,0.0,0.0,1.4277,1.5133,1.6,0.0,1.6985,1.7557,1.8985,1.9429,1.9715,2.0173,2.0716,2.1866,2.4174,2.4506,2.4334,2.3901,2.3753,2.3553,2.3189,2.3175,2.3199,2.3199,2.3363,2.3628,2.4131,2.3741,2.3727,2.421,2.3837,2.3638,2.3767,2.3767,2.3767,2.3767,2.3767,2.3724,2.3595,2.3595,2.3595,2.3595,2.3595,2.3595,2.3595,2.3595,2.3595,2.3595,2.3595,2.3595,2.3523,2.2915,2.2951,2.3229,2.2725,2.2459,2.2395,2.2499,2.1931,2.1284,2.1787,2.1213,2.0462,2.1175,2.1628,2.2063,2.2702,2.3005,2.3078,2.3078,2.3185,2.3543,2.4176,2.4408,2.4624,2.4894,2.5063,2.5175,2.5175,2.5783,2.5837,2.4509,2.4794,2.4667,2.3305,2.3245,2.3305,2.3305,2.3305,2.3305,2.3305,2.3198,2.2689,2.169,2.1628,2.0846,1.911,1.8609,1.8019,1.7256,1.6475,1.585,1.541,1.541,1.5748,1.6482,1.709,1.7841,0.9245,0.9883,1.0438,1.0666,0.0,0.0,0.0,1.4642,1.5604,1.729,1.6965,1.6935,1.8893,1.9088,1.9141,1.967,2.03,2.1105,2.2104,2.2718,2.3042,2.3012,2.281,2.2636,2.2653,2.2752,2.3094,2.3703,2.3736,2.3783,2.3918,2.3635,2.3465,2.3343,2.3081,2.2869,2.2652,2.2652,2.2817,2.3131,2.3131,2.3295,2.3595,2.3595,2.3595,2.3595,2.3595,2.3595,2.3595,2.3595,2.3595,2.3595,2.3595,2.3595,2.3508,2.292,2.285,2.3073,2.2735,2.2555,2.2546,2.2789,2.2356,2.1756,2.2088,2.1402,2.0782,2.1616,2.1877,2.2075,2.2884,2.3078,2.3078,2.3078,2.3424,2.3826,2.4234,2.4567,2.5063,2.5783,2.596,2.596,2.596,2.6549,2.6549,2.5063,2.5175,2.4824,2.3305,2.3078,2.3078,2.3078,2.3078,2.3078,2.3078,2.3078,2.2763,2.1939,2.1877,2.1302,2.0009,1.9716,1.9179,1.8281,1.7648,1.7059,1.6518,1.6518,1.6698,1.709,1.7797,1.8543,0.0,0.0,0.0,0.0,0.0,1.2064,0.0,0.0,0.0,1.7868,1.7295,0.0,0.0,0.0,0.0,0.0,0.0,0.0,0.0,2.0356,0.0,2.1613,2.1569,2.1579,2.1819,2.1947,2.2543,2.3846,2.3722,2.3569,2.3523,2.3506,2.3169,2.2502,2.2353,2.2118,2.1695,2.1695,2.1964,2.2488,2.2664,2.2936,2.343,2.355,2.3595,2.3595,2.3724,2.3752,2.3752,2.3752,2.3794,2.3879,2.3681,2.3595,2.3551,2.3054,2.2875,2.2857,2.2833,2.2714,2.27,2.31,2.2823,2.2189,2.1958,2.1212,2.07,2.1502,2.1723,2.1932,2.2859,2.3078,2.3078,2.3078,2.3603,2.4118,2.4292,2.4794,2.5398,2.6122,2.6283,2.6404,2.6669,2.71,2.6916,2.5618,2.5287,2.4667,2.3305,2.3078,2.3078,2.3078,2.3078,2.3078,2.3078,2.3078,2.2823,2.2199,2.2137,2.1753,2.091,2.0719,2.0131,1.9134,1.8789,1.8295,1.7578,1.7743,1.7797,1.7852,1.8436,1.9097,0.0,0.0,0.0,0.0,0.9197,0.0,0.0,0.0,1.5163,1.479,0.0,0.0,0.0,0.0,0.0,0.0,0.0,0.0,1.7778,1.8324,1.8914,1.9321,2.0376,2.0845,2.031,1.9758,2.0101,2.179,2.0877,2.1005,2.2731,2.2766,2.2817,2.3016,2.254,2.2118,2.1695,2.1695,2.1739,2.1814,2.2439,2.2753,2.2802,2.3355,2.3595,2.3638,2.4116,2.4307,2.4307,2.4307,2.4592,2.4934,2.3948,2.3595,2.3595,2.3508,2.3508,2.3523,2.3495,2.3126,2.2672,2.2744,2.2269,2.1642,2.1348,2.0782,2.0382,2.0973,2.1092,2.1392,2.2747,2.3078,2.3078,2.3078,2.3198,2.3424,2.4176,2.435,2.4624,2.5398,2.5508,2.5946,2.724,2.6982,2.6336,2.5508,2.4851,2.4105,2.3185,2.3078,2.3078,2.3078,2.3078,2.3078,2.3078,2.3078,2.3078,2.2944,2.2944,2.2628,2.1815,2.0974,2.0131,1.9134,1.9056,1.8563,1.7578,1.8286,1.8555,1.8555,1.8661,1.9097,0.0,0.0,0.0,0.0,0.0,0.0,1.0021,0.0,1.4312,0.0,0.0,0.0,0.0,0.0,0.0,0.0,1.7485,0.0,0.0,0.0,1.7806,0.0,0.0,0.0,1.961,1.9265,1.9631,2.1147,2.0049,2.0099,2.1958,2.2042,2.1986,2.1871,2.165,2.1197,2.0565,2.0528,2.0722,2.1126,2.141,2.1739,2.2128,2.2772,2.3071,2.3128,2.4045,2.4389,2.443,2.4752,2.4989,2.5144,2.4697,2.4348,2.4032,2.3709,2.3595,2.3595,2.3595,2.3421,2.3143,2.283,2.244,2.2103,2.1602,2.1222,2.106,2.1599,2.1746,2.194,2.2867,2.3078,2.3078,2.3078,2.3078,2.3198,2.3543,2.359,2.3826,2.4624,2.4738,2.5063,2.6162,2.6054,2.5618,2.4851,2.4509,2.4002,2.3198,2.3078,2.3078,2.3078,2.3078,2.3078,2.3078,2.3543,2.3826,2.3826,2.4221,2.4092,2.3327,2.2942,2.2151,2.1007,2.0637,2.0109,1.9408,1.9361,1.9319,1.9319,1.9319,1.9475,0.6421,0.0,0.0,0.0,0.0,0.0,0.0,0.0,0.0,0.0,0.0,0.0,0.0,0.0,0.0,0.0,0.0,0.0,0.0,0.0,0.0,0.0,0.0,0.0,0.0,1.8352,1.8593,2.0416,0.0,1.9158,2.1131,2.1368,2.1244,2.0829,2.0797,2.0431,1.9726,1.969,1.9929,2.0438,2.0617,2.0961,2.1455,2.2113,2.2413,2.2484,2.3792,2.4351,2.439,2.5141,2.5486,2.5598,2.5297,2.495,2.4552,2.4032,2.3724,2.3595,2.3595,2.3595,2.3508,2.3098,2.2812,2.2547,2.2056,2.1771,2.1686,2.2476,2.2683,2.2794,2.3573,2.3695,2.3695,2.3695,2.359,2.3424,2.3424,2.3258,2.3245,2.3826,2.3943,2.4163,2.4667,2.4951,2.4894,2.4408,2.4118,2.3767,2.3198,2.3078,2.3078,2.3078,2.3078,2.3078,2.3078,2.3662,2.406,2.4292,2.5007,2.5175,2.4624,2.4408,2.3785,2.2643,2.1882,2.1217,2.0718,2.0087,1.9798,1.9798,1.9798,1.9798,0.0,0.0,0.0,0.4476,0.0,0.0,0.0,0.0,1.4601,0.0,0.0,0.0,0.0,0.0,0.0,0.0,0.0,0.0,0.0,0.0,0.0,0.0,0.0,0.0,0.0,1.6312,1.6209,0.0,1.761,1.761,2.0193,2.0748,2.0797,2.0348,2.0314,2.0124,1.9711,1.969,1.969,1.9735,2.0393,2.0722,2.0767,2.1425,2.1724,2.1834,2.35,2.4211,2.4296,2.5484,2.6245,2.6539,2.5598,2.5182,2.5105,2.4576,2.4032,2.3595,2.3595,2.3595,2.3595,2.3551,2.3157,2.2678,2.2678,2.2203,2.1966,2.322,2.3578,2.3854,2.5039,2.5342,2.5342,2.5342,2.4794,2.4234,2.4234,2.3662,2.3138,2.3138,2.3125,2.3138,2.3185,2.3826,2.435,2.4292,2.3662,2.3138,2.3078,2.3078,2.3078,2.3078,2.3078,2.3078,2.3078,2.3138,2.3484,2.4234,2.5007,2.5398,2.5342,2.4681,2.4015,2.3395,2.2137,2.1217,2.0718,2.0087,1.9798,1.9798,1.9798,1.9798,0.0,0.0,0.4736,0.4313,0.0,0.0,0.0,0.0,0.0,0.0,0.0,0.0,0.0,0.0,0.0,0.0,0.0,0.0,0.0,0.0,0.0,0.0,0.0,0.0,0.0,0.0,0.0,0.0,1.7135,0.0,2.0156,2.0449,2.0449,2.0314,2.0314,2.0089,1.9711,1.969,1.969,1.969,1.9929,2.0034,2.0049,2.0737,2.1051,2.112,2.2755,2.3747,2.4269,2.5327,2.6118,2.6657,2.6315,2.6016,2.5615,2.4752,2.4074,2.3595,2.3595,2.3595,2.3595,2.3595,2.3187,2.2694,2.2694,2.255,2.256,2.3354,2.3879,2.4348,2.5191,2.5398,2.5398,2.5398,2.4851,2.4292,2.4292,2.3649,2.3078,2.3078,2.3078,2.3078,2.3078,2.3305,2.3484,2.3484,2.3245,2.3305,2.3826,2.3424,2.3305,2.3826,2.3424,2.3078,2.3078,2.3603,2.4452,2.5673,2.6014,2.6122,2.6122,2.5892,2.519,2.4046,2.3184,2.2223,2.1204,2.0652,2.0175,1.9798,1.9798,1.9798,0.3511,0.4064,0.0,0.4337,0.5289,0.0,0.8488,0.0,0.0,0.0,0.0,0.0,0.0,0.0,0.0,0.0,0.0,0.0,0.0,1.2292,0.0,0.0,0.0,0.0,0.0,0.0,1.5301,1.6768,1.6446,0.0,0.0,1.9967,2.0089,2.0089,2.0089,1.9965,1.969,1.969,1.969,1.969,1.969,1.969,1.969,2.0154,2.0348,2.0415,2.1884,2.3028,2.3919,2.4962,2.5899,2.6691,2.6521,2.6139,2.5615,2.495,2.4225,2.3595,2.3595,2.3595,2.3595,2.3595,2.3334,2.3009,2.3009,2.3014,2.3174,2.4056,2.4568,2.5066,2.5934,2.6162,2.6162,2.6162,2.5618,2.5007,2.4738,2.4047,2.3424,2.3138,2.3078,2.3078,2.3078,2.3078,2.3078,2.3078,2.3365,2.3708,2.4234,2.4047,2.4105,2.4624,2.4221,2.3813,2.3543,2.4221,2.4951,2.5673,2.596,2.6229,2.651,2.6229,2.5783,2.5119,2.423,2.3146,2.1898,2.1335,2.0666,1.9798,1.9798,1.9798]}]]